Wetterdaten: Dienstag, 01.08.2017
Datum Zeit Temp. A. Pool Temp. Feuchte A. Luftdruck Regen Wind Richtung Richtung Sonnenschein ET UV Solar Taupunkt Windchill Windben Empfang
01.08.2017 00:00 24,2 C 25,6 C 71 % 1013,9 hPa 0,0 l/m 4,9 km/h (1 Bft) O-SO 119 0 min 0,000 mm 0,0 UV-I 0 W/m 18,6 C 24,2 C 6,4 km/h (2 Bft) 97,87 %
01.08.2017 00:02 24,2 C 25,6 C 71 % 1013,8 hPa 0,0 l/m 5,5 km/h (1 Bft) O 86 0 min 0,000 mm 0,0 UV-I 0 W/m 18,6 C 24,2 C 9,7 km/h (2 Bft) 10,53 %
01.08.2017 00:04 23,9 C 25,6 C 71 % 1013,8 hPa 0,0 l/m 6,0 km/h (2 Bft) O 80 0 min 0,000 mm 0,0 UV-I 0 W/m 18,3 C 23,9 C 9,7 km/h (2 Bft) 25,00 %
01.08.2017 00:06 23,9 C 25,6 C 72 % 1013,8 hPa 0,0 l/m 5,4 km/h (1 Bft) O-NO 76 0 min 0,000 mm 0,0 UV-I 0 W/m 18,5 C 23,9 C 8,0 km/h (2 Bft) 100,00 %
01.08.2017 00:08 23,9 C 25,6 C 72 % 1013,8 hPa 0,0 l/m 3,1 km/h (1 Bft) O-NO 76 0 min 0,000 mm 0,0 UV-I 0 W/m 18,5 C 23,9 C 4,8 km/h (1 Bft) 97,87 %
01.08.2017 00:10 23,9 C 25,6 C 72 % 1013,9 hPa 0,0 l/m 1,7 km/h (1 Bft) O-NO 76 0 min 0,000 mm 0,0 UV-I 0 W/m 18,5 C 23,9 C 4,8 km/h (1 Bft) 100,00 %
01.08.2017 00:12 23,6 C 25,6 C 74 % 1013,9 hPa 0,0 l/m 0,9 km/h (0 Bft) O-NO 76 0 min 0,000 mm 0,0 UV-I 0 W/m 18,7 C 23,6 C 3,2 km/h (1 Bft) 97,87 %
01.08.2017 00:14 23,1 C 25,6 C 75 % 1014,1 hPa 0,0 l/m 0,7 km/h (0 Bft) O-NO 76 0 min 0,000 mm 0,0 UV-I 0 W/m 18,4 C 23,1 C 3,2 km/h (1 Bft) 95,74 %
01.08.2017 00:16 22,8 C 25,6 C 77 % 1014,1 hPa 0,0 l/m 1,6 km/h (1 Bft) O-NO 76 0 min 0,000 mm 0,0 UV-I 0 W/m 18,5 C 22,8 C 3,2 km/h (1 Bft) 97,87 %
01.08.2017 00:18 22,6 C 25,6 C 78 % 1014,1 hPa 0,0 l/m 1,1 km/h (1 Bft) O-NO 76 0 min 0,000 mm 0,0 UV-I 0 W/m 18,6 C 22,6 C 1,6 km/h (1 Bft) 97,87 %
01.08.2017 00:20 22,5 C 25,6 C 79 % 1014,1 hPa 0,0 l/m 0,0 km/h (0 Bft) O-NO 76 0 min 0,000 mm 0,0 UV-I 0 W/m 18,7 C 22,5 C 1,6 km/h (1 Bft) 100,00 %
01.08.2017 00:22 22,4 C 25,6 C 79 % 1014,0 hPa 0,0 l/m 0,0 km/h (0 Bft) O-NO 76 0 min 0,000 mm 0,0 UV-I 0 W/m 18,6 C 22,4 C 0,0 km/h (0 Bft) 97,87 %
01.08.2017 00:24 22,2 C 25,6 C 80 % 1014,0 hPa 0,0 l/m 0,0 km/h (0 Bft) O-NO 76 0 min 0,000 mm 0,0 UV-I 0 W/m 18,6 C 22,2 C 0,0 km/h (0 Bft) 97,87 %
01.08.2017 00:26 21,9 C 25,6 C 80 % 1013,9 hPa 0,0 l/m 0,4 km/h (0 Bft) O-NO 76 0 min 0,000 mm 0,0 UV-I 0 W/m 18,3 C 21,9 C 3,2 km/h (1 Bft) 95,74 %
01.08.2017 00:28 21,8 C 25,6 C 81 % 1013,9 hPa 0,0 l/m 0,0 km/h (0 Bft) O-NO 76 0 min 0,000 mm 0,0 UV-I 0 W/m 18,4 C 21,8 C 0,0 km/h (0 Bft) 97,87 %
01.08.2017 00:30 21,8 C 25,6 C 81 % 1013,9 hPa 0,0 l/m 0,0 km/h (0 Bft) O-NO 76 0 min 0,000 mm 0,0 UV-I 0 W/m 18,4 C 21,8 C 0,0 km/h (0 Bft) 100,00 %
01.08.2017 00:32 21,8 C 25,6 C 82 % 1013,9 hPa 0,0 l/m 0,0 km/h (0 Bft) O-NO 76 0 min 0,000 mm 0,0 UV-I 0 W/m 18,6 C 21,8 C 0,0 km/h (0 Bft) 95,74 %
01.08.2017 00:34 21,8 C 25,6 C 81 % 1013,9 hPa 0,0 l/m 0,0 km/h (0 Bft) O-NO 76 0 min 0,000 mm 0,0 UV-I 0 W/m 18,4 C 21,8 C 1,6 km/h (1 Bft) 97,87 %
01.08.2017 00:36 21,8 C 25,6 C 82 % 1013,9 hPa 0,0 l/m 0,0 km/h (0 Bft) O-NO 76 0 min 0,000 mm 0,0 UV-I 0 W/m 18,6 C 21,8 C 0,0 km/h (0 Bft) 95,74 %
01.08.2017 00:38 21,7 C 25,6 C 82 % 1013,9 hPa 0,0 l/m 0,0 km/h (0 Bft) O-NO 76 0 min 0,000 mm 0,0 UV-I 0 W/m 18,5 C 21,7 C 0,0 km/h (0 Bft) 97,87 %
01.08.2017 00:40 21,7 C 25,6 C 82 % 1013,9 hPa 0,0 l/m 0,0 km/h (0 Bft) O-NO 76 0 min 0,000 mm 0,0 UV-I 0 W/m 18,5 C 21,7 C 0,0 km/h (0 Bft) 97,87 %
01.08.2017 00:42 21,8 C 25,6 C 82 % 1013,9 hPa 0,0 l/m 0,0 km/h (0 Bft) O-NO 76 0 min 0,000 mm 0,0 UV-I 0 W/m 18,6 C 21,8 C 0,0 km/h (0 Bft) 97,87 %
01.08.2017 00:44 21,8 C 25,6 C 82 % 1013,8 hPa 0,0 l/m 1,5 km/h (1 Bft) O-NO 76 0 min 0,000 mm 0,0 UV-I 0 W/m 18,6 C 21,8 C 4,8 km/h (1 Bft) 94,44 %
01.08.2017 00:46 21,8 C 25,6 C 82 % 1013,7 hPa 0,0 l/m 5,3 km/h (1 Bft) O-NO 57 0 min 0,000 mm 0,0 UV-I 0 W/m 18,6 C 21,8 C 6,4 km/h (2 Bft) 95,08 %
01.08.2017 00:48 21,7 C 25,6 C 82 % 1013,7 hPa 0,0 l/m 7,1 km/h (2 Bft) NO 52 0 min 0,000 mm 0,0 UV-I 0 W/m 18,5 C 21,5 C 8,0 km/h (2 Bft) 93,62 %
01.08.2017 00:50 21,6 C 25,6 C 82 % 1013,7 hPa 0,0 l/m 7,5 km/h (2 Bft) NO 53 0 min 0,000 mm 0,0 UV-I 0 W/m 18,4 C 21,2 C 9,7 km/h (2 Bft) 96,00 %
01.08.2017 00:52 21,8 C 25,6 C 81 % 1013,7 hPa 0,0 l/m 7,1 km/h (2 Bft) NO 55 0 min 0,000 mm 0,0 UV-I 0 W/m 18,4 C 21,6 C 8,0 km/h (2 Bft) 94,87 %
01.08.2017 00:54 21,9 C 25,6 C 81 % 1013,7 hPa 0,0 l/m 6,3 km/h (2 Bft) NO 53 0 min 0,000 mm 0,0 UV-I 0 W/m 18,5 C 21,9 C 8,0 km/h (2 Bft) 95,74 %
01.08.2017 00:56 22,1 C 25,6 C 81 % 1013,7 hPa 0,0 l/m 5,6 km/h (1 Bft) O-NO 71 0 min 0,000 mm 0,0 UV-I 0 W/m 18,7 C 22,1 C 8,0 km/h (2 Bft) 96,08 %
01.08.2017 00:58 22,2 C 25,6 C 80 % 1013,6 hPa 0,0 l/m 5,1 km/h (1 Bft) O-NO 69 0 min 0,000 mm 0,0 UV-I 0 W/m 18,6 C 22,2 C 6,4 km/h (2 Bft) 93,62 %
01.08.2017 01:00 22,3 C 25,6 C 80 % 1013,6 hPa 0,0 l/m 5,5 km/h (1 Bft) O-NO 65 0 min 0,025 mm 0,0 UV-I 0 W/m 18,7 C 22,3 C 8,0 km/h (2 Bft) 97,87 %
01.08.2017 01:02 22,3 C 25,6 C 80 % 1013,6 hPa 0,0 l/m 5,3 km/h (1 Bft) O-NO 69 0 min 0,000 mm 0,0 UV-I 0 W/m 18,7 C 22,3 C 6,4 km/h (2 Bft) 89,36 %
01.08.2017 01:04 22,3 C 25,6 C 81 % 1013,6 hPa 0,0 l/m 5,0 km/h (1 Bft) O-NO 69 0 min 0,000 mm 0,0 UV-I 0 W/m 18,9 C 22,3 C 6,4 km/h (2 Bft) 93,62 %
01.08.2017 01:06 22,3 C 25,6 C 80 % 1013,5 hPa 0,0 l/m 4,2 km/h (1 Bft) O-NO 69 0 min 0,000 mm 0,0 UV-I 0 W/m 18,7 C 22,3 C 6,4 km/h (2 Bft) 95,83 %
01.08.2017 01:08 22,4 C 25,6 C 80 % 1013,5 hPa 0,0 l/m 4,3 km/h (1 Bft) O-NO 69 0 min 0,000 mm 0,0 UV-I 0 W/m 18,8 C 22,4 C 4,8 km/h (1 Bft) 94,00 %
01.08.2017 01:10 22,3 C 25,6 C 81 % 1013,6 hPa 0,0 l/m 2,9 km/h (1 Bft) O-NO 69 0 min 0,000 mm 0,0 UV-I 0 W/m 18,9 C 22,3 C 4,8 km/h (1 Bft) 97,87 %
01.08.2017 01:12 22,3 C 25,6 C 80 % 1013,5 hPa 0,0 l/m 3,6 km/h (1 Bft) O-NO 69 0 min 0,000 mm 0,0 UV-I 0 W/m 18,7 C 22,3 C 4,8 km/h (1 Bft) 91,43 %
01.08.2017 01:14 22,2 C 25,6 C 81 % 1013,6 hPa 0,0 l/m 4,0 km/h (1 Bft) O-NO 69 0 min 0,000 mm 0,0 UV-I 0 W/m 18,8 C 22,2 C 4,8 km/h (1 Bft) 98,00 %
01.08.2017 01:16 22,2 C 25,6 C 81 % 1013,5 hPa 0,0 l/m 3,1 km/h (1 Bft) O-NO 69 0 min 0,000 mm 0,0 UV-I 0 W/m 18,8 C 22,2 C 4,8 km/h (1 Bft) 90,57 %
01.08.2017 01:18 22,1 C 25,0 C 81 % 1013,5 hPa 0,0 l/m 3,3 km/h (1 Bft) O-NO 69 0 min 0,000 mm 0,0 UV-I 0 W/m 18,7 C 22,1 C 4,8 km/h (1 Bft) 95,74 %
01.08.2017 01:20 22,1 C 25,0 C 82 % 1013,5 hPa 0,0 l/m 3,8 km/h (1 Bft) O-NO 69 0 min 0,000 mm 0,0 UV-I 0 W/m 18,9 C 22,1 C 4,8 km/h (1 Bft) 92,11 %
01.08.2017 01:22 22,1 C 25,0 C 82 % 1013,5 hPa 0,0 l/m 4,3 km/h (1 Bft) O-NO 69 0 min 0,000 mm 0,0 UV-I 0 W/m 18,9 C 22,1 C 4,8 km/h (1 Bft) 97,87 %
01.08.2017 01:24 22,1 C 25,0 C 82 % 1013,5 hPa 0,0 l/m 3,8 km/h (1 Bft) O-NO 69 0 min 0,000 mm 0,0 UV-I 0 W/m 18,9 C 22,1 C 4,8 km/h (1 Bft) 97,92 %
01.08.2017 01:26 22,1 C 25,0 C 82 % 1013,5 hPa 0,0 l/m 4,3 km/h (1 Bft) O-NO 69 0 min 0,000 mm 0,0 UV-I 0 W/m 18,9 C 22,1 C 6,4 km/h (2 Bft) 97,87 %
01.08.2017 01:28 22,1 C 25,0 C 82 % 1013,4 hPa 0,0 l/m 4,2 km/h (1 Bft) O-NO 69 0 min 0,000 mm 0,0 UV-I 0 W/m 18,9 C 22,1 C 6,4 km/h (2 Bft) 97,87 %
01.08.2017 01:30 22,1 C 25,0 C 82 % 1013,3 hPa 0,0 l/m 3,2 km/h (1 Bft) O-NO 69 0 min 0,000 mm 0,0 UV-I 0 W/m 18,9 C 22,1 C 6,4 km/h (2 Bft) 93,62 %
01.08.2017 01:32 22,0 C 25,0 C 82 % 1013,3 hPa 0,0 l/m 3,3 km/h (1 Bft) O-NO 69 0 min 0,000 mm 0,0 UV-I 0 W/m 18,8 C 22,0 C 4,8 km/h (1 Bft) 97,87 %
01.08.2017 01:34 21,9 C 25,0 C 82 % 1013,3 hPa 0,0 l/m 3,8 km/h (1 Bft) O-NO 69 0 min 0,000 mm 0,0 UV-I 0 W/m 18,7 C 21,9 C 6,4 km/h (2 Bft) 96,00 %
01.08.2017 01:36 21,8 C 25,0 C 83 % 1013,3 hPa 0,0 l/m 3,6 km/h (1 Bft) O-NO 69 0 min 0,000 mm 0,0 UV-I 0 W/m 18,8 C 21,8 C 4,8 km/h (1 Bft) 93,62 %
01.08.2017 01:38 21,8 C 25,0 C 83 % 1013,3 hPa 0,0 l/m 3,3 km/h (1 Bft) O-NO 69 0 min 0,000 mm 0,0 UV-I 0 W/m 18,8 C 21,8 C 4,8 km/h (1 Bft) 95,74 %
01.08.2017 01:40 21,9 C 25,0 C 83 % 1013,2 hPa 0,0 l/m 3,5 km/h (1 Bft) O-NO 69 0 min 0,000 mm 0,0 UV-I 0 W/m 18,9 C 21,9 C 4,8 km/h (1 Bft) 94,00 %
01.08.2017 01:42 21,9 C 25,0 C 83 % 1013,2 hPa 0,0 l/m 3,4 km/h (1 Bft) O-NO 69 0 min 0,000 mm 0,0 UV-I 0 W/m 18,9 C 21,9 C 4,8 km/h (1 Bft) 93,62 %
01.08.2017 01:44 21,8 C 25,0 C 83 % 1013,2 hPa 0,0 l/m 3,6 km/h (1 Bft) O-NO 69 0 min 0,000 mm 0,0 UV-I 0 W/m 18,8 C 21,8 C 4,8 km/h (1 Bft) 95,74 %
01.08.2017 01:46 21,8 C 25,0 C 83 % 1013,2 hPa 0,0 l/m 3,5 km/h (1 Bft) O-NO 69 0 min 0,000 mm 0,0 UV-I 0 W/m 18,8 C 21,8 C 4,8 km/h (1 Bft) 95,74 %
01.08.2017 01:48 21,7 C 25,0 C 83 % 1013,1 hPa 0,0 l/m 4,0 km/h (1 Bft) O-NO 69 0 min 0,000 mm 0,0 UV-I 0 W/m 18,7 C 21,7 C 4,8 km/h (1 Bft) 95,74 %
01.08.2017 01:50 21,7 C 25,0 C 83 % 1013,1 hPa 0,0 l/m 4,9 km/h (1 Bft) NO 50 0 min 0,000 mm 0,0 UV-I 0 W/m 18,7 C 21,7 C 6,4 km/h (2 Bft) 92,31 %
01.08.2017 01:52 21,6 C 25,0 C 84 % 1013,1 hPa 0,0 l/m 5,2 km/h (1 Bft) NO 48 0 min 0,000 mm 0,0 UV-I 0 W/m 18,8 C 21,6 C 6,4 km/h (2 Bft) 96,77 %
01.08.2017 01:54 21,4 C 25,0 C 84 % 1013,1 hPa 0,0 l/m 5,5 km/h (1 Bft) NO 48 0 min 0,000 mm 0,0 UV-I 0 W/m 18,6 C 21,4 C 6,4 km/h (2 Bft) 95,74 %
01.08.2017 01:56 21,4 C 25,0 C 84 % 1013,1 hPa 0,0 l/m 5,2 km/h (1 Bft) NO 48 0 min 0,000 mm 0,0 UV-I 0 W/m 18,6 C 21,4 C 6,4 km/h (2 Bft) 97,87 %
01.08.2017 01:58 21,3 C 25,0 C 85 % 1013,2 hPa 0,0 l/m 5,7 km/h (1 Bft) NO 48 0 min 0,000 mm 0,0 UV-I 0 W/m 18,7 C 21,3 C 8,0 km/h (2 Bft) 95,74 %
01.08.2017 02:00 21,3 C 25,0 C 85 % 1013,1 hPa 0,0 l/m 6,4 km/h (2 Bft) NO 46 0 min 0,026 mm 0,0 UV-I 0 W/m 18,7 C 21,3 C 8,0 km/h (2 Bft) 96,23 %
01.08.2017 02:02 21,3 C 25,0 C 85 % 1013,1 hPa 0,0 l/m 6,7 km/h (2 Bft) NO 43 0 min 0,000 mm 0,0 UV-I 0 W/m 18,7 C 21,2 C 9,7 km/h (2 Bft) 93,62 %
01.08.2017 02:04 21,3 C 25,0 C 85 % 1013,1 hPa 0,0 l/m 6,6 km/h (2 Bft) NO 43 0 min 0,000 mm 0,0 UV-I 0 W/m 18,7 C 21,2 C 8,0 km/h (2 Bft) 95,74 %
01.08.2017 02:06 21,3 C 25,0 C 85 % 1013,1 hPa 0,0 l/m 6,8 km/h (2 Bft) NO 34 0 min 0,000 mm 0,0 UV-I 0 W/m 18,7 C 21,2 C 9,7 km/h (2 Bft) 97,87 %
01.08.2017 02:08 21,2 C 25,0 C 86 % 1013,1 hPa 0,0 l/m 7,2 km/h (2 Bft) NO 46 0 min 0,000 mm 0,0 UV-I 0 W/m 18,8 C 20,9 C 9,7 km/h (2 Bft) 100,00 %
01.08.2017 02:10 21,2 C 25,0 C 85 % 1013,0 hPa 0,0 l/m 6,0 km/h (2 Bft) NO 46 0 min 0,000 mm 0,0 UV-I 0 W/m 18,6 C 21,2 C 8,0 km/h (2 Bft) 95,74 %
01.08.2017 02:12 21,2 C 25,0 C 85 % 1013,0 hPa 0,0 l/m 7,1 km/h (2 Bft) O-NO 62 0 min 0,000 mm 0,0 UV-I 0 W/m 18,6 C 20,9 C 9,7 km/h (2 Bft) 95,74 %
01.08.2017 02:14 21,3 C 25,0 C 85 % 1013,0 hPa 0,0 l/m 7,1 km/h (2 Bft) O-NO 57 0 min 0,000 mm 0,0 UV-I 0 W/m 18,7 C 21,0 C 9,7 km/h (2 Bft) 100,00 %
01.08.2017 02:16 21,3 C 25,0 C 85 % 1013,0 hPa 0,0 l/m 5,3 km/h (1 Bft) NO 52 0 min 0,000 mm 0,0 UV-I 0 W/m 18,7 C 21,3 C 8,0 km/h (2 Bft) 97,87 %
01.08.2017 02:18 21,4 C 25,0 C 85 % 1012,9 hPa 0,0 l/m 5,9 km/h (2 Bft) O-NO 61 0 min 0,000 mm 0,0 UV-I 0 W/m 18,8 C 21,4 C 8,0 km/h (2 Bft) 98,00 %
01.08.2017 02:20 21,5 C 25,0 C 84 % 1013,0 hPa 0,0 l/m 6,6 km/h (2 Bft) O-NO 62 0 min 0,000 mm 0,0 UV-I 0 W/m 18,7 C 21,4 C 8,0 km/h (2 Bft) 98,00 %
01.08.2017 02:22 21,6 C 25,0 C 84 % 1012,9 hPa 0,0 l/m 6,0 km/h (2 Bft) O-NO 59 0 min 0,000 mm 0,0 UV-I 0 W/m 18,8 C 21,6 C 8,0 km/h (2 Bft) 100,00 %
01.08.2017 02:24 21,6 C 25,0 C 84 % 1012,9 hPa 0,0 l/m 6,6 km/h (2 Bft) NO 51 0 min 0,000 mm 0,0 UV-I 0 W/m 18,8 C 21,5 C 8,0 km/h (2 Bft) 97,87 %
01.08.2017 02:26 21,6 C 25,0 C 84 % 1012,9 hPa 0,0 l/m 6,5 km/h (2 Bft) O-NO 63 0 min 0,000 mm 0,0 UV-I 0 W/m 18,8 C 21,6 C 9,7 km/h (2 Bft) 97,87 %
01.08.2017 02:28 21,7 C 25,0 C 84 % 1012,9 hPa 0,0 l/m 6,9 km/h (2 Bft) NO 55 0 min 0,000 mm 0,0 UV-I 0 W/m 18,9 C 21,5 C 9,7 km/h (2 Bft) 97,87 %
01.08.2017 02:30 21,7 C 25,0 C 84 % 1012,8 hPa 0,0 l/m 7,5 km/h (2 Bft) O-NO 61 0 min 0,000 mm 0,0 UV-I 0 W/m 18,9 C 21,3 C 9,7 km/h (2 Bft) 98,00 %
01.08.2017 02:32 21,7 C 25,0 C 83 % 1012,8 hPa 0,0 l/m 7,9 km/h (2 Bft) O-NO 57 0 min 0,000 mm 0,0 UV-I 0 W/m 18,7 C 21,2 C 9,7 km/h (2 Bft) 97,87 %
01.08.2017 02:34 21,7 C 25,0 C 83 % 1012,7 hPa 0,0 l/m 7,2 km/h (2 Bft) O-NO 66 0 min 0,000 mm 0,0 UV-I 0 W/m 18,7 C 21,4 C 9,7 km/h (2 Bft) 91,43 %
01.08.2017 02:36 21,7 C 25,0 C 83 % 1012,7 hPa 0,0 l/m 7,9 km/h (2 Bft) O-NO 65 0 min 0,000 mm 0,0 UV-I 0 W/m 18,7 C 21,2 C 12,9 km/h (3 Bft) 96,00 %
01.08.2017 02:38 21,7 C 25,0 C 83 % 1012,7 hPa 0,0 l/m 7,2 km/h (2 Bft) O-NO 67 0 min 0,000 mm 0,0 UV-I 0 W/m 18,7 C 21,4 C 11,3 km/h (2 Bft) 95,74 %
01.08.2017 02:40 21,7 C 25,0 C 83 % 1012,7 hPa 0,0 l/m 7,8 km/h (2 Bft) O-NO 69 0 min 0,000 mm 0,0 UV-I 0 W/m 18,7 C 21,2 C 12,9 km/h (3 Bft) 97,87 %
01.08.2017 02:42 21,7 C 25,0 C 83 % 1012,7 hPa 0,0 l/m 7,0 km/h (2 Bft) O-NO 62 0 min 0,000 mm 0,0 UV-I 0 W/m 18,7 C 21,5 C 11,3 km/h (2 Bft) 93,62 %
01.08.2017 02:44 21,6 C 25,0 C 84 % 1012,7 hPa 0,0 l/m 6,5 km/h (2 Bft) O-NO 63 0 min 0,000 mm 0,0 UV-I 0 W/m 18,8 C 21,6 C 9,7 km/h (2 Bft) 97,92 %
01.08.2017 02:46 21,6 C 25,0 C 84 % 1012,8 hPa 0,0 l/m 5,9 km/h (2 Bft) O-NO 61 0 min 0,000 mm 0,0 UV-I 0 W/m 18,8 C 21,6 C 11,3 km/h (2 Bft) 95,74 %
01.08.2017 02:48 21,6 C 25,0 C 84 % 1012,7 hPa 0,0 l/m 6,3 km/h (2 Bft) O-NO 61 0 min 0,000 mm 0,0 UV-I 0 W/m 18,8 C 21,6 C 9,7 km/h (2 Bft) 94,00 %
01.08.2017 02:50 21,5 C 25,0 C 84 % 1012,8 hPa 0,0 l/m 6,0 km/h (2 Bft) O-NO 65 0 min 0,000 mm 0,0 UV-I 0 W/m 18,7 C 21,5 C 9,7 km/h (2 Bft) 95,74 %
01.08.2017 02:52 21,4 C 25,0 C 84 % 1012,7 hPa 0,0 l/m 6,3 km/h (2 Bft) O-NO 71 0 min 0,000 mm 0,0 UV-I 0 W/m 18,6 C 21,4 C 8,0 km/h (2 Bft) 95,74 %
01.08.2017 02:54 21,3 C 25,0 C 84 % 1012,8 hPa 0,0 l/m 6,1 km/h (2 Bft) NO 55 0 min 0,000 mm 0,0 UV-I 0 W/m 18,5 C 21,3 C 8,0 km/h (2 Bft) 97,87 %
01.08.2017 02:56 21,3 C 25,0 C 84 % 1012,7 hPa 0,0 l/m 6,0 km/h (2 Bft) O-NO 61 0 min 0,000 mm 0,0 UV-I 0 W/m 18,5 C 21,3 C 8,0 km/h (2 Bft) 97,87 %
01.08.2017 02:58 21,3 C 25,0 C 84 % 1012,7 hPa 0,0 l/m 6,5 km/h (2 Bft) O-NO 61 0 min 0,000 mm 0,0 UV-I 0 W/m 18,5 C 21,3 C 9,7 km/h (2 Bft) 97,87 %
01.08.2017 03:00 21,3 C 25,0 C 84 % 1012,7 hPa 0,0 l/m 7,8 km/h (2 Bft) O-NO 71 0 min 0,025 mm 0,0 UV-I 0 W/m 18,5 C 20,8 C 11,3 km/h (2 Bft) 95,74 %
01.08.2017 03:02 21,3 C 25,0 C 84 % 1012,7 hPa 0,0 l/m 6,8 km/h (2 Bft) O 79 0 min 0,000 mm 0,0 UV-I 0 W/m 18,5 C 21,2 C 11,3 km/h (2 Bft) 94,87 %
01.08.2017 03:04 21,2 C 25,0 C 84 % 1012,7 hPa 0,0 l/m 5,4 km/h (1 Bft) O-NO 59 0 min 0,000 mm 0,0 UV-I 0 W/m 18,4 C 21,2 C 11,3 km/h (2 Bft) 91,49 %
01.08.2017 03:06 21,2 C 25,0 C 84 % 1012,7 hPa 0,0 l/m 5,2 km/h (1 Bft) O-NO 74 0 min 0,000 mm 0,0 UV-I 0 W/m 18,4 C 21,2 C 8,0 km/h (2 Bft) 95,74 %
01.08.2017 03:08 21,2 C 25,0 C 83 % 1012,7 hPa 0,0 l/m 5,1 km/h (1 Bft) O-NO 60 0 min 0,000 mm 0,0 UV-I 0 W/m 18,2 C 21,2 C 8,0 km/h (2 Bft) 95,74 %
01.08.2017 03:10 21,1 C 25,0 C 83 % 1012,6 hPa 0,0 l/m 5,5 km/h (1 Bft) O-NO 59 0 min 0,000 mm 0,0 UV-I 0 W/m 18,1 C 21,1 C 6,4 km/h (2 Bft) 97,87 %
01.08.2017 03:12 20,9 C 25,0 C 84 % 1012,6 hPa 0,0 l/m 5,5 km/h (1 Bft) NO 49 0 min 0,000 mm 0,0 UV-I 0 W/m 18,1 C 20,9 C 6,4 km/h (2 Bft) 100,00 %
01.08.2017 03:14 20,8 C 25,0 C 84 % 1012,6 hPa 0,0 l/m 4,5 km/h (1 Bft) O-NO 61 0 min 0,000 mm 0,0 UV-I 0 W/m 18,0 C 20,8 C 6,4 km/h (2 Bft) 98,00 %
01.08.2017 03:16 20,7 C 25,0 C 85 % 1012,6 hPa 0,0 l/m 4,7 km/h (1 Bft) O-NO 66 0 min 0,000 mm 0,0 UV-I 0 W/m 18,1 C 20,7 C 6,4 km/h (2 Bft) 100,00 %
01.08.2017 03:18 20,7 C 25,0 C 85 % 1012,6 hPa 0,0 l/m 3,9 km/h (1 Bft) O-NO 66 0 min 0,000 mm 0,0 UV-I 0 W/m 18,1 C 20,7 C 4,8 km/h (1 Bft) 96,00 %
01.08.2017 03:20 20,8 C 25,0 C 85 % 1012,7 hPa 0,0 l/m 4,4 km/h (1 Bft) O-NO 72 0 min 0,000 mm 0,0 UV-I 0 W/m 18,2 C 20,8 C 8,0 km/h (2 Bft) 97,87 %
01.08.2017 03:22 20,8 C 25,0 C 84 % 1012,7 hPa 0,0 l/m 3,2 km/h (1 Bft) O-NO 72 0 min 0,000 mm 0,0 UV-I 0 W/m 18,0 C 20,8 C 6,4 km/h (2 Bft) 100,00 %
01.08.2017 03:24 20,8 C 25,0 C 84 % 1012,7 hPa 0,0 l/m 3,1 km/h (1 Bft) O-NO 72 0 min 0,000 mm 0,0 UV-I 0 W/m 18,0 C 20,8 C 4,8 km/h (1 Bft) 97,87 %
01.08.2017 03:26 20,8 C 25,0 C 84 % 1012,7 hPa 0,0 l/m 2,6 km/h (1 Bft) O-NO 72 0 min 0,000 mm 0,0 UV-I 0 W/m 18,0 C 20,8 C 4,8 km/h (1 Bft) 100,00 %
01.08.2017 03:28 20,7 C 25,0 C 84 % 1012,7 hPa 0,0 l/m 1,0 km/h (0 Bft) O-NO 72 0 min 0,000 mm 0,0 UV-I 0 W/m 17,9 C 20,7 C 3,2 km/h (1 Bft) 95,83 %
01.08.2017 03:30 20,6 C 25,0 C 84 % 1012,7 hPa 0,0 l/m 2,2 km/h (1 Bft) O-NO 72 0 min 0,000 mm 0,0 UV-I 0 W/m 17,8 C 20,6 C 3,2 km/h (1 Bft) 97,87 %
01.08.2017 03:32 20,5 C 25,0 C 85 % 1012,7 hPa 0,0 l/m 1,2 km/h (1 Bft) O-NO 72 0 min 0,000 mm 0,0 UV-I 0 W/m 17,9 C 20,5 C 3,2 km/h (1 Bft) 100,00 %
01.08.2017 03:34 20,3 C 25,0 C 85 % 1012,8 hPa 0,0 l/m 2,7 km/h (1 Bft) O-NO 72 0 min 0,000 mm 0,0 UV-I 0 W/m 17,7 C 20,3 C 4,8 km/h (1 Bft) 97,87 %
01.08.2017 03:36 20,2 C 25,0 C 85 % 1012,7 hPa 0,0 l/m 3,5 km/h (1 Bft) O-NO 72 0 min 0,000 mm 0,0 UV-I 0 W/m 17,6 C 20,2 C 4,8 km/h (1 Bft) 100,00 %
01.08.2017 03:38 20,1 C 25,0 C 86 % 1012,7 hPa 0,0 l/m 3,1 km/h (1 Bft) O-NO 72 0 min 0,000 mm 0,0 UV-I 0 W/m 17,7 C 20,1 C 4,8 km/h (1 Bft) 97,87 %
01.08.2017 03:40 20,1 C 25,0 C 86 % 1012,7 hPa 0,0 l/m 4,1 km/h (1 Bft) O-NO 72 0 min 0,000 mm 0,0 UV-I 0 W/m 17,7 C 20,1 C 6,4 km/h (2 Bft) 100,00 %
01.08.2017 03:42 19,9 C 25,0 C 86 % 1012,7 hPa 0,0 l/m 3,9 km/h (1 Bft) O-NO 72 0 min 0,000 mm 0,0 UV-I 0 W/m 17,5 C 19,9 C 4,8 km/h (1 Bft) 97,87 %
01.08.2017 03:44 19,8 C 25,0 C 86 % 1012,7 hPa 0,0 l/m 4,0 km/h (1 Bft) O-NO 72 0 min 0,000 mm 0,0 UV-I 0 W/m 17,4 C 19,8 C 6,4 km/h (2 Bft) 97,87 %
01.08.2017 03:46 19,8 C 25,0 C 87 % 1012,7 hPa 0,0 l/m 3,7 km/h (1 Bft) O-NO 72 0 min 0,000 mm 0,0 UV-I 0 W/m 17,6 C 19,8 C 4,8 km/h (1 Bft) 98,00 %
01.08.2017 03:48 19,8 C 25,0 C 87 % 1012,7 hPa 0,0 l/m 1,9 km/h (1 Bft) O-NO 72 0 min 0,000 mm 0,0 UV-I 0 W/m 17,6 C 19,8 C 3,2 km/h (1 Bft) 95,74 %
01.08.2017 03:50 19,9 C 25,0 C 87 % 1012,7 hPa 0,0 l/m 1,3 km/h (1 Bft) O-NO 72 0 min 0,000 mm 0,0 UV-I 0 W/m 17,7 C 19,9 C 3,2 km/h (1 Bft) 97,87 %
01.08.2017 03:52 19,9 C 25,0 C 87 % 1012,6 hPa 0,0 l/m 0,5 km/h (0 Bft) O-NO 72 0 min 0,000 mm 0,0 UV-I 0 W/m 17,7 C 19,9 C 1,6 km/h (1 Bft) 97,87 %
01.08.2017 03:54 19,9 C 25,0 C 87 % 1012,6 hPa 0,0 l/m 0,0 km/h (0 Bft) O-NO 72 0 min 0,000 mm 0,0 UV-I 0 W/m 17,7 C 19,9 C 0,0 km/h (0 Bft) 100,00 %
01.08.2017 03:56 19,9 C 25,0 C 87 % 1012,6 hPa 0,0 l/m 0,1 km/h (0 Bft) O-NO 72 0 min 0,000 mm 0,0 UV-I 0 W/m 17,7 C 19,9 C 1,6 km/h (1 Bft) 97,87 %
01.08.2017 03:58 19,9 C 25,0 C 87 % 1012,6 hPa 0,0 l/m 0,6 km/h (0 Bft) O-NO 72 0 min 0,000 mm 0,0 UV-I 0 W/m 17,7 C 19,9 C 3,2 km/h (1 Bft) 95,74 %
01.08.2017 04:00 19,8 C 25,0 C 86 % 1012,6 hPa 0,0 l/m 0,4 km/h (0 Bft) O-NO 72 0 min 0,000 mm 0,0 UV-I 0 W/m 17,4 C 19,8 C 1,6 km/h (1 Bft) 97,87 %
01.08.2017 04:02 19,6 C 25,0 C 87 % 1012,6 hPa 0,0 l/m 1,2 km/h (1 Bft) O-NO 72 0 min 0,000 mm 0,0 UV-I 0 W/m 17,4 C 19,6 C 3,2 km/h (1 Bft) 100,00 %
01.08.2017 04:04 19,5 C 25,0 C 87 % 1012,6 hPa 0,0 l/m 1,2 km/h (1 Bft) O-NO 72 0 min 0,000 mm 0,0 UV-I 0 W/m 17,3 C 19,5 C 3,2 km/h (1 Bft) 97,44 %
01.08.2017 04:06 19,4 C 25,0 C 88 % 1012,7 hPa 0,0 l/m 0,4 km/h (0 Bft) O-NO 72 0 min 0,000 mm 0,0 UV-I 0 W/m 17,4 C 19,4 C 1,6 km/h (1 Bft) 100,00 %
01.08.2017 04:08 19,4 C 25,0 C 88 % 1012,7 hPa 0,0 l/m 0,6 km/h (0 Bft) O-NO 72 0 min 0,000 mm 0,0 UV-I 0 W/m 17,4 C 19,4 C 1,6 km/h (1 Bft) 93,62 %
01.08.2017 04:10 19,4 C 25,0 C 88 % 1012,7 hPa 0,0 l/m 0,0 km/h (0 Bft) O-NO 72 0 min 0,000 mm 0,0 UV-I 0 W/m 17,4 C 19,4 C 0,0 km/h (0 Bft) 97,87 %
01.08.2017 04:12 19,3 C 25,0 C 88 % 1012,7 hPa 0,0 l/m 0,0 km/h (0 Bft) O-NO 72 0 min 0,000 mm 0,0 UV-I 0 W/m 17,3 C 19,3 C 0,0 km/h (0 Bft) 100,00 %
01.08.2017 04:14 19,2 C 25,0 C 88 % 1012,8 hPa 0,0 l/m 0,0 km/h (0 Bft) O-NO 72 0 min 0,000 mm 0,0 UV-I 0 W/m 17,2 C 19,2 C 0,0 km/h (0 Bft) 100,00 %
01.08.2017 04:16 19,1 C 25,0 C 88 % 1012,7 hPa 0,0 l/m 0,0 km/h (0 Bft) O-NO 72 0 min 0,000 mm 0,0 UV-I 0 W/m 17,1 C 19,1 C 0,0 km/h (0 Bft) 100,00 %
01.08.2017 04:19 19,1 C 25,0 C 89 % 1012,7 hPa 0,0 l/m 0,0 km/h (0 Bft) O-NO 72 0 min 0,000 mm 0,0 UV-I 0 W/m 17,2 C 19,1 C 0,0 km/h (0 Bft) 98,57 %
01.08.2017 04:20 19,1 C 25,0 C 89 % 1012,7 hPa 0,0 l/m 0,2 km/h (0 Bft) O-NO 72 0 min 0,000 mm 0,0 UV-I 0 W/m 17,2 C 19,1 C 1,6 km/h (1 Bft) 100,00 %
01.08.2017 04:22 19,1 C 25,0 C 90 % 1012,8 hPa 0,0 l/m 1,6 km/h (1 Bft) O-NO 72 0 min 0,000 mm 0,0 UV-I 0 W/m 17,4 C 19,1 C 3,2 km/h (1 Bft) 100,00 %
01.08.2017 04:24 19,1 C 25,0 C 90 % 1012,8 hPa 0,0 l/m 1,2 km/h (1 Bft) O-NO 72 0 min 0,000 mm 0,0 UV-I 0 W/m 17,4 C 19,1 C 1,6 km/h (1 Bft) 97,87 %
01.08.2017 04:26 19,0 C 25,0 C 90 % 1012,8 hPa 0,0 l/m 0,9 km/h (0 Bft) O-NO 72 0 min 0,000 mm 0,0 UV-I 0 W/m 17,3 C 19,0 C 3,2 km/h (1 Bft) 97,87 %
01.08.2017 04:28 18,8 C 25,0 C 89 % 1012,8 hPa 0,0 l/m 0,0 km/h (0 Bft) O-NO 72 0 min 0,000 mm 0,0 UV-I 0 W/m 16,9 C 18,8 C 0,0 km/h (0 Bft) 97,87 %
01.08.2017 04:30 18,6 C 25,0 C 89 % 1012,8 hPa 0,0 l/m 0,0 km/h (0 Bft) O-NO 72 0 min 0,000 mm 0,0 UV-I 0 W/m 16,7 C 18,6 C 1,6 km/h (1 Bft) 97,87 %
01.08.2017 04:32 18,6 C 25,0 C 90 % 1012,8 hPa 0,0 l/m 0,9 km/h (0 Bft) O-NO 72 0 min 0,000 mm 0,0 UV-I 0 W/m 16,9 C 18,6 C 3,2 km/h (1 Bft) 93,62 %
01.08.2017 04:34 18,4 C 25,0 C 90 % 1012,7 hPa 0,0 l/m 2,5 km/h (1 Bft) O-NO 72 0 min 0,000 mm 0,0 UV-I 0 W/m 16,7 C 18,4 C 3,2 km/h (1 Bft) 95,74 %
01.08.2017 04:36 18,5 C 25,0 C 91 % 1012,7 hPa 0,0 l/m 2,3 km/h (1 Bft) O-NO 72 0 min 0,000 mm 0,0 UV-I 0 W/m 17,0 C 18,5 C 3,2 km/h (1 Bft) 95,74 %
01.08.2017 04:38 18,6 C 25,0 C 92 % 1012,7 hPa 0,0 l/m 1,9 km/h (1 Bft) O-NO 72 0 min 0,000 mm 0,0 UV-I 0 W/m 17,3 C 18,6 C 3,2 km/h (1 Bft) 97,87 %
01.08.2017 04:40 18,7 C 25,0 C 92 % 1012,8 hPa 0,0 l/m 0,2 km/h (0 Bft) O-NO 72 0 min 0,000 mm 0,0 UV-I 0 W/m 17,4 C 18,7 C 1,6 km/h (1 Bft) 94,44 %
01.08.2017 04:42 18,8 C 25,0 C 91 % 1012,9 hPa 0,0 l/m 1,4 km/h (1 Bft) O-NO 72 0 min 0,000 mm 0,0 UV-I 0 W/m 17,3 C 18,8 C 4,8 km/h (1 Bft) 95,74 %
01.08.2017 04:44 18,8 C 25,0 C 91 % 1012,9 hPa 0,0 l/m 1,5 km/h (1 Bft) O-NO 72 0 min 0,000 mm 0,0 UV-I 0 W/m 17,3 C 18,8 C 3,2 km/h (1 Bft) 95,74 %
01.08.2017 04:46 18,8 C 25,0 C 90 % 1012,9 hPa 0,0 l/m 1,6 km/h (1 Bft) O-NO 72 0 min 0,000 mm 0,0 UV-I 0 W/m 17,1 C 18,8 C 3,2 km/h (1 Bft) 97,87 %
01.08.2017 04:48 18,7 C 25,0 C 90 % 1012,9 hPa 0,0 l/m 0,4 km/h (0 Bft) O-NO 72 0 min 0,000 mm 0,0 UV-I 0 W/m 17,0 C 18,7 C 1,6 km/h (1 Bft) 95,74 %
01.08.2017 04:50 18,7 C 25,0 C 90 % 1012,9 hPa 0,0 l/m 1,2 km/h (1 Bft) O-NO 72 0 min 0,000 mm 0,0 UV-I 0 W/m 17,0 C 18,7 C 3,2 km/h (1 Bft) 93,62 %
01.08.2017 04:52 18,6 C 25,0 C 91 % 1013,0 hPa 0,0 l/m 2,0 km/h (1 Bft) O-NO 72 0 min 0,000 mm 0,0 UV-I 0 W/m 17,1 C 18,6 C 3,2 km/h (1 Bft) 97,87 %
01.08.2017 04:54 18,6 C 25,0 C 90 % 1013,0 hPa 0,0 l/m 4,6 km/h (1 Bft) SW 226 0 min 0,000 mm 0,0 UV-I 0 W/m 16,9 C 18,6 C 8,0 km/h (2 Bft) 91,49 %
01.08.2017 04:56 18,4 C 25,0 C 90 % 1013,0 hPa 0,0 l/m 4,7 km/h (1 Bft) SW 223 0 min 0,000 mm 0,0 UV-I 0 W/m 16,7 C 18,4 C 6,4 km/h (2 Bft) 95,74 %
01.08.2017 04:58 18,3 C 25,0 C 91 % 1013,0 hPa 0,0 l/m 4,4 km/h (1 Bft) SW 224 0 min 0,000 mm 0,0 UV-I 0 W/m 16,8 C 18,3 C 6,4 km/h (2 Bft) 94,00 %
01.08.2017 05:00 18,3 C 25,0 C 92 % 1013,0 hPa 0,0 l/m 3,8 km/h (1 Bft) SW 224 0 min 0,000 mm 0,0 UV-I 0 W/m 17,0 C 18,3 C 4,8 km/h (1 Bft) 91,49 %
01.08.2017 05:02 18,3 C 25,0 C 92 % 1012,9 hPa 0,0 l/m 3,6 km/h (1 Bft) SW 224 0 min 0,000 mm 0,0 UV-I 0 W/m 17,0 C 18,3 C 4,8 km/h (1 Bft) 95,74 %
01.08.2017 05:04 18,3 C 25,0 C 92 % 1012,9 hPa 0,0 l/m 2,7 km/h (1 Bft) SW 224 0 min 0,000 mm 0,0 UV-I 0 W/m 17,0 C 18,3 C 4,8 km/h (1 Bft) 95,74 %
01.08.2017 05:06 18,3 C 25,0 C 92 % 1012,9 hPa 0,0 l/m 3,1 km/h (1 Bft) SW 224 0 min 0,000 mm 0,0 UV-I 0 W/m 17,0 C 18,3 C 4,8 km/h (1 Bft) 89,36 %
01.08.2017 05:08 18,2 C 25,0 C 91 % 1012,9 hPa 0,0 l/m 1,6 km/h (1 Bft) SW 224 0 min 0,000 mm 0,0 UV-I 0 W/m 16,7 C 18,2 C 3,2 km/h (1 Bft) 95,74 %
01.08.2017 05:10 18,2 C 25,0 C 92 % 1013,0 hPa 0,0 l/m 3,0 km/h (1 Bft) SW 224 0 min 0,000 mm 0,0 UV-I 0 W/m 16,9 C 18,2 C 4,8 km/h (1 Bft) 93,62 %
01.08.2017 05:12 18,2 C 25,0 C 92 % 1013,0 hPa 0,0 l/m 2,3 km/h (1 Bft) SW 224 0 min 0,000 mm 0,0 UV-I 0 W/m 16,9 C 18,2 C 4,8 km/h (1 Bft) 94,00 %
01.08.2017 05:14 18,1 C 25,0 C 91 % 1013,0 hPa 0,0 l/m 0,0 km/h (0 Bft) SW 224 0 min 0,000 mm 0,0 UV-I 0 W/m 16,6 C 18,1 C 0,0 km/h (0 Bft) 97,87 %
01.08.2017 05:16 18,1 C 25,0 C 92 % 1013,0 hPa 0,0 l/m 0,0 km/h (0 Bft) SW 224 0 min 0,000 mm 0,0 UV-I 0 W/m 16,8 C 18,1 C 0,0 km/h (0 Bft) 95,74 %
01.08.2017 05:18 18,1 C 25,0 C 92 % 1013,0 hPa 0,0 l/m 1,2 km/h (1 Bft) SW 224 0 min 0,000 mm 0,0 UV-I 0 W/m 16,8 C 18,1 C 3,2 km/h (1 Bft) 97,44 %
01.08.2017 05:20 18,1 C 25,0 C 92 % 1013,0 hPa 0,0 l/m 0,9 km/h (0 Bft) SW 224 0 min 0,000 mm 0,0 UV-I 0 W/m 16,8 C 18,1 C 3,2 km/h (1 Bft) 95,74 %
01.08.2017 05:22 18,0 C 25,0 C 92 % 1013,0 hPa 0,0 l/m 2,4 km/h (1 Bft) SW 224 0 min 0,000 mm 0,0 UV-I 0 W/m 16,7 C 18,0 C 3,2 km/h (1 Bft) 97,87 %
01.08.2017 05:24 17,9 C 25,0 C 92 % 1012,9 hPa 0,0 l/m 4,2 km/h (1 Bft) S-SW 208 0 min 0,000 mm 0,0 UV-I 0 W/m 16,6 C 17,9 C 4,8 km/h (1 Bft) 95,74 %
01.08.2017 05:26 18,0 C 25,0 C 93 % 1012,9 hPa 0,0 l/m 4,6 km/h (1 Bft) S-SW 199 0 min 0,000 mm 0,0 UV-I 5 W/m 16,8 C 18,0 C 4,8 km/h (1 Bft) 98,11 %
01.08.2017 05:28 18,1 C 25,0 C 93 % 1012,9 hPa 0,0 l/m 3,6 km/h (1 Bft) S-SW 199 0 min 0,000 mm 0,0 UV-I 5 W/m 16,9 C 18,1 C 4,8 km/h (1 Bft) 95,74 %
01.08.2017 05:30 18,1 C 25,0 C 93 % 1013,0 hPa 0,0 l/m 3,4 km/h (1 Bft) S-SW 199 0 min 0,000 mm 0,0 UV-I 5 W/m 16,9 C 18,1 C 4,8 km/h (1 Bft) 95,74 %
01.08.2017 05:32 18,1 C 25,0 C 93 % 1012,9 hPa 0,0 l/m 1,4 km/h (1 Bft) S-SW 199 0 min 0,000 mm 0,0 UV-I 5 W/m 16,9 C 18,1 C 3,2 km/h (1 Bft) 93,62 %
01.08.2017 05:34 18,0 C 25,0 C 92 % 1013,0 hPa 0,0 l/m 0,3 km/h (0 Bft) S-SW 199 0 min 0,000 mm 0,0 UV-I 6 W/m 16,7 C 18,0 C 1,6 km/h (1 Bft) 93,62 %
01.08.2017 05:36 18,0 C 25,0 C 93 % 1013,0 hPa 0,0 l/m 0,0 km/h (0 Bft) S-SW 199 0 min 0,000 mm 0,0 UV-I 7 W/m 16,8 C 18,0 C 0,0 km/h (0 Bft) 97,87 %
01.08.2017 05:38 18,0 C 25,0 C 93 % 1013,1 hPa 0,0 l/m 0,0 km/h (0 Bft) S-SW 199 0 min 0,000 mm 0,0 UV-I 7 W/m 16,8 C 18,0 C 0,0 km/h (0 Bft) 95,74 %
01.08.2017 05:40 18,0 C 25,0 C 93 % 1013,1 hPa 0,0 l/m 1,5 km/h (1 Bft) S-SW 199 0 min 0,000 mm 0,0 UV-I 8 W/m 16,8 C 18,0 C 3,2 km/h (1 Bft) 95,74 %
01.08.2017 05:42 17,9 C 25,0 C 92 % 1013,2 hPa 0,0 l/m 2,9 km/h (1 Bft) S-SW 199 0 min 0,000 mm 0,0 UV-I 9 W/m 16,6 C 17,9 C 4,8 km/h (1 Bft) 95,83 %
01.08.2017 05:44 17,8 C 25,0 C 92 % 1013,2 hPa 0,0 l/m 2,6 km/h (1 Bft) S-SW 199 0 min 0,000 mm 0,0 UV-I 9 W/m 16,5 C 17,8 C 4,8 km/h (1 Bft) 95,74 %
01.08.2017 05:46 17,7 C 25,0 C 92 % 1013,1 hPa 0,0 l/m 0,5 km/h (0 Bft) S-SW 199 0 min 0,000 mm 0,0 UV-I 11 W/m 16,4 C 17,7 C 3,2 km/h (1 Bft) 97,87 %
01.08.2017 05:48 17,7 C 25,0 C 92 % 1013,1 hPa 0,0 l/m 3,8 km/h (1 Bft) S-SW 199 0 min 0,000 mm 0,0 UV-I 12 W/m 16,4 C 17,7 C 4,8 km/h (1 Bft) 95,74 %
01.08.2017 05:50 17,7 C 25,0 C 93 % 1013,1 hPa 0,0 l/m 3,4 km/h (1 Bft) S-SW 199 0 min 0,000 mm 0,0 UV-I 13 W/m 16,6 C 17,7 C 4,8 km/h (1 Bft) 95,74 %
01.08.2017 05:52 17,8 C 25,0 C 93 % 1013,0 hPa 0,0 l/m 4,1 km/h (1 Bft) S-SW 199 2 min 0,000 mm 0,0 UV-I 15 W/m 16,7 C 17,8 C 4,8 km/h (1 Bft) 97,22 %
01.08.2017 05:54 17,8 C 25,0 C 93 % 1013,1 hPa 0,0 l/m 4,3 km/h (1 Bft) S-SW 198 2 min 0,000 mm 0,0 UV-I 17 W/m 16,7 C 17,8 C 4,8 km/h (1 Bft) 96,00 %
01.08.2017 05:56 17,8 C 25,0 C 93 % 1013,0 hPa 0,0 l/m 2,2 km/h (1 Bft) S-SW 199 2 min 0,000 mm 0,0 UV-I 19 W/m 16,7 C 17,8 C 4,8 km/h (1 Bft) 100,00 %
01.08.2017 05:58 17,8 C 25,0 C 93 % 1013,1 hPa 0,0 l/m 0,4 km/h (0 Bft) S-SW 198 2 min 0,000 mm 0,0 UV-I 21 W/m 16,7 C 17,8 C 1,6 km/h (1 Bft) 98,00 %
01.08.2017 06:00 17,8 C 25,0 C 93 % 1013,1 hPa 0,0 l/m 0,2 km/h (0 Bft) S-SW 199 2 min 0,000 mm 0,0 UV-I 23 W/m 16,7 C 17,8 C 1,6 km/h (1 Bft) 100,00 %
01.08.2017 06:02 17,9 C 25,0 C 93 % 1013,1 hPa 0,0 l/m 0,2 km/h (0 Bft) S-SW 199 2 min 0,000 mm 0,0 UV-I 26 W/m 16,8 C 17,9 C 1,6 km/h (1 Bft) 95,12 %
01.08.2017 06:04 17,9 C 25,0 C 93 % 1013,1 hPa 0,0 l/m 0,0 km/h (0 Bft) S-SW 199 2 min 0,000 mm 0,0 UV-I 29 W/m 16,8 C 17,9 C 0,0 km/h (0 Bft) 97,87 %
01.08.2017 06:06 17,9 C 25,0 C 93 % 1013,1 hPa 0,0 l/m 0,0 km/h (0 Bft) S-SW 199 2 min 0,000 mm 0,0 UV-I 30 W/m 16,8 C 17,9 C 0,0 km/h (0 Bft) 97,87 %
01.08.2017 06:08 17,9 C 25,0 C 93 % 1013,2 hPa 0,0 l/m 0,0 km/h (0 Bft) S-SW 199 0 min 0,000 mm 0,0 UV-I 32 W/m 16,8 C 17,9 C 0,0 km/h (0 Bft) 100,00 %
01.08.2017 06:10 17,9 C 25,0 C 93 % 1013,1 hPa 0,0 l/m 0,0 km/h (0 Bft) S-SW 199 0 min 0,000 mm 0,0 UV-I 33 W/m 16,8 C 17,9 C 0,0 km/h (0 Bft) 100,00 %
01.08.2017 06:12 17,9 C 25,0 C 93 % 1013,1 hPa 0,0 l/m 0,0 km/h (0 Bft) S-SW 199 0 min 0,000 mm 0,0 UV-I 32 W/m 16,8 C 17,9 C 0,0 km/h (0 Bft) 97,87 %
01.08.2017 06:14 17,9 C 25,0 C 93 % 1013,1 hPa 0,0 l/m 0,0 km/h (0 Bft) S-SW 199 0 min 0,000 mm 0,0 UV-I 33 W/m 16,8 C 17,9 C 0,0 km/h (0 Bft) 97,87 %
01.08.2017 06:16 17,9 C 25,0 C 93 % 1013,1 hPa 0,0 l/m 0,0 km/h (0 Bft) S-SW 199 0 min 0,000 mm 0,0 UV-I 35 W/m 16,8 C 17,9 C 0,0 km/h (0 Bft) 95,74 %
01.08.2017 06:18 17,9 C 25,0 C 93 % 1013,1 hPa 0,0 l/m 0,0 km/h (0 Bft) S-SW 199 0 min 0,000 mm 0,0 UV-I 36 W/m 16,8 C 17,9 C 0,0 km/h (0 Bft) 95,74 %
01.08.2017 06:20 17,8 C 25,0 C 92 % 1013,1 hPa 0,0 l/m 0,0 km/h (0 Bft) S-SW 199 0 min 0,000 mm 0,0 UV-I 41 W/m 16,5 C 17,8 C 0,0 km/h (0 Bft) 93,62 %
01.08.2017 06:22 17,7 C 25,0 C 92 % 1013,2 hPa 0,0 l/m 0,0 km/h (0 Bft) S-SW 199 2 min 0,000 mm 0,0 UV-I 57 W/m 16,4 C 17,7 C 0,0 km/h (0 Bft) 93,62 %
01.08.2017 06:24 17,6 C 25,0 C 92 % 1013,2 hPa 0,0 l/m 0,0 km/h (0 Bft) S-SW 199 2 min 0,000 mm 0,0 UV-I 63 W/m 16,3 C 17,6 C 0,0 km/h (0 Bft) 100,00 %
01.08.2017 06:26 17,6 C 25,0 C 93 % 1013,1 hPa 0,0 l/m 0,0 km/h (0 Bft) S-SW 199 2 min 0,000 mm 0,0 UV-I 60 W/m 16,5 C 17,6 C 0,0 km/h (0 Bft) 98,00 %
01.08.2017 06:28 17,7 C 25,0 C 93 % 1013,1 hPa 0,0 l/m 0,0 km/h (0 Bft) S-SW 199 0 min 0,000 mm 0,0 UV-I 58 W/m 16,6 C 17,7 C 0,0 km/h (0 Bft) 89,36 %
01.08.2017 06:30 17,7 C 25,0 C 93 % 1013,1 hPa 0,0 l/m 0,0 km/h (0 Bft) S-SW 199 2 min 0,000 mm 0,0 UV-I 72 W/m 16,6 C 17,7 C 0,0 km/h (0 Bft) 95,74 %
01.08.2017 06:32 17,7 C 25,0 C 93 % 1013,1 hPa 0,0 l/m 0,0 km/h (0 Bft) S-SW 199 2 min 0,000 mm 0,0 UV-I 77 W/m 16,6 C 17,7 C 0,0 km/h (0 Bft) 98,00 %
01.08.2017 06:34 17,8 C 25,0 C 93 % 1013,1 hPa 0,0 l/m 0,6 km/h (0 Bft) S-SW 199 2 min 0,000 mm 0,0 UV-I 82 W/m 16,7 C 17,8 C 3,2 km/h (1 Bft) 97,87 %
01.08.2017 06:36 17,8 C 25,0 C 93 % 1013,1 hPa 0,0 l/m 2,8 km/h (1 Bft) S-SW 199 2 min 0,000 mm 0,0 UV-I 85 W/m 16,7 C 17,8 C 3,2 km/h (1 Bft) 95,74 %
01.08.2017 06:38 17,9 C 25,0 C 93 % 1013,2 hPa 0,0 l/m 0,8 km/h (0 Bft) S-SW 199 2 min 0,000 mm 0,0 UV-I 89 W/m 16,8 C 17,9 C 3,2 km/h (1 Bft) 94,44 %
01.08.2017 06:40 17,9 C 25,0 C 93 % 1013,1 hPa 0,0 l/m 0,0 km/h (0 Bft) S-SW 199 2 min 0,000 mm 0,0 UV-I 94 W/m 16,8 C 17,9 C 0,0 km/h (0 Bft) 95,74 %
01.08.2017 06:42 18,0 C 25,0 C 93 % 1013,1 hPa 0,0 l/m 0,0 km/h (0 Bft) S-SW 199 2 min 0,000 mm 0,0 UV-I 98 W/m 16,8 C 18,0 C 0,0 km/h (0 Bft) 93,62 %
01.08.2017 06:44 18,1 C 25,0 C 93 % 1013,1 hPa 0,0 l/m 0,0 km/h (0 Bft) S-SW 199 2 min 0,000 mm 0,0 UV-I 102 W/m 16,9 C 18,1 C 0,0 km/h (0 Bft) 93,62 %
01.08.2017 06:46 18,2 C 25,0 C 93 % 1013,2 hPa 0,0 l/m 0,6 km/h (0 Bft) S-SW 199 2 min 0,000 mm 0,0 UV-I 105 W/m 17,0 C 18,2 C 3,2 km/h (1 Bft) 97,87 %
01.08.2017 06:48 18,3 C 25,0 C 93 % 1013,2 hPa 0,0 l/m 1,4 km/h (1 Bft) S-SW 199 2 min 0,000 mm 0,0 UV-I 109 W/m 17,1 C 18,3 C 3,2 km/h (1 Bft) 96,00 %
01.08.2017 06:50 18,3 C 25,0 C 92 % 1013,2 hPa 0,0 l/m 0,0 km/h (0 Bft) S-SW 199 2 min 0,000 mm 0,0 UV-I 113 W/m 17,0 C 18,3 C 0,0 km/h (0 Bft) 95,74 %
01.08.2017 06:52 18,3 C 25,0 C 93 % 1013,2 hPa 0,0 l/m 0,0 km/h (0 Bft) S-SW 199 2 min 0,000 mm 0,0 UV-I 117 W/m 17,1 C 18,3 C 0,0 km/h (0 Bft) 93,62 %
01.08.2017 06:54 18,3 C 25,0 C 93 % 1013,2 hPa 0,0 l/m 1,0 km/h (0 Bft) S-SW 199 2 min 0,000 mm 0,0 UV-I 121 W/m 17,1 C 18,3 C 3,2 km/h (1 Bft) 96,00 %
01.08.2017 06:56 18,4 C 25,0 C 93 % 1013,3 hPa 0,0 l/m 0,6 km/h (0 Bft) S-SW 199 2 min 0,000 mm 0,0 UV-I 124 W/m 17,2 C 18,4 C 1,6 km/h (1 Bft) 93,62 %
01.08.2017 06:58 18,5 C 25,0 C 93 % 1013,3 hPa 0,0 l/m 0,9 km/h (0 Bft) S-SW 199 2 min 0,000 mm 0,0 UV-I 129 W/m 17,3 C 18,5 C 1,6 km/h (1 Bft) 95,74 %
01.08.2017 07:00 18,6 C 25,0 C 93 % 1013,4 hPa 0,0 l/m 2,4 km/h (1 Bft) S-SW 199 2 min 0,051 mm 0,0 UV-I 134 W/m 17,4 C 18,6 C 3,2 km/h (1 Bft) 95,74 %
01.08.2017 07:02 18,7 C 25,0 C 92 % 1013,4 hPa 0,0 l/m 2,0 km/h (1 Bft) S-SW 199 2 min 0,000 mm 0,0 UV-I 137 W/m 17,4 C 18,7 C 4,8 km/h (1 Bft) 97,87 %
01.08.2017 07:04 18,7 C 25,0 C 92 % 1013,4 hPa 0,0 l/m 2,2 km/h (1 Bft) S-SW 199 2 min 0,000 mm 0,0 UV-I 141 W/m 17,4 C 18,7 C 3,2 km/h (1 Bft) 97,37 %
01.08.2017 07:06 18,8 C 25,0 C 92 % 1013,4 hPa 0,0 l/m 3,6 km/h (1 Bft) S-SW 199 2 min 0,000 mm 0,0 UV-I 148 W/m 17,5 C 18,8 C 4,8 km/h (1 Bft) 96,00 %
01.08.2017 07:08 18,8 C 25,0 C 93 % 1013,4 hPa 0,0 l/m 1,9 km/h (1 Bft) S-SW 199 2 min 0,000 mm 0,0 UV-I 152 W/m 17,6 C 18,8 C 4,8 km/h (1 Bft) 95,74 %
01.08.2017 07:10 19,0 C 25,0 C 93 % 1013,4 hPa 0,0 l/m 0,7 km/h (0 Bft) S-SW 199 2 min 0,000 mm 0,0 UV-I 157 W/m 17,8 C 19,0 C 1,6 km/h (1 Bft) 94,00 %
01.08.2017 07:12 19,2 C 25,0 C 92 % 1013,5 hPa 0,0 l/m 0,2 km/h (0 Bft) S-SW 199 2 min 0,000 mm 0,0 UV-I 163 W/m 17,9 C 19,2 C 1,6 km/h (1 Bft) 97,87 %
01.08.2017 07:14 19,3 C 25,0 C 92 % 1013,5 hPa 0,0 l/m 1,7 km/h (1 Bft) S-SW 199 2 min 0,000 mm 0,0 UV-I 167 W/m 18,0 C 19,3 C 4,8 km/h (1 Bft) 97,87 %
01.08.2017 07:16 19,4 C 25,0 C 92 % 1013,5 hPa 0,0 l/m 2,2 km/h (1 Bft) S-SW 199 2 min 0,000 mm 0,0 UV-I 174 W/m 18,1 C 19,4 C 3,2 km/h (1 Bft) 94,00 %
01.08.2017 07:18 19,6 C 25,0 C 91 % 1013,4 hPa 0,0 l/m 1,2 km/h (1 Bft) S-SW 199 2 min 0,000 mm 0,0 UV-I 179 W/m 18,1 C 19,6 C 1,6 km/h (1 Bft) 93,62 %
01.08.2017 07:20 19,7 C 25,0 C 91 % 1013,4 hPa 0,0 l/m 0,3 km/h (0 Bft) S-SW 199 2 min 0,000 mm 0,0 UV-I 185 W/m 18,2 C 19,7 C 1,6 km/h (1 Bft) 97,87 %
01.08.2017 07:22 19,8 C 25,0 C 91 % 1013,4 hPa 0,0 l/m 0,0 km/h (0 Bft) S-SW 199 2 min 0,000 mm 0,0 UV-I 190 W/m 18,3 C 19,8 C 0,0 km/h (0 Bft) 93,75 %
01.08.2017 07:24 19,9 C 25,0 C 91 % 1013,4 hPa 0,0 l/m 0,0 km/h (0 Bft) S-SW 199 2 min 0,000 mm 0,0 UV-I 196 W/m 18,4 C 19,9 C 0,0 km/h (0 Bft) 97,30 %
01.08.2017 07:26 20,0 C 25,0 C 90 % 1013,4 hPa 0,0 l/m 0,0 km/h (0 Bft) S-SW 199 2 min 0,000 mm 0,0 UV-I 201 W/m 18,3 C 20,0 C 0,0 km/h (0 Bft) 97,87 %
01.08.2017 07:28 20,1 C 25,0 C 90 % 1013,5 hPa 0,0 l/m 0,9 km/h (0 Bft) S-SW 199 2 min 0,000 mm 0,0 UV-I 207 W/m 18,4 C 20,1 C 1,6 km/h (1 Bft) 97,87 %
01.08.2017 07:30 20,2 C 25,0 C 89 % 1013,5 hPa 0,0 l/m 1,1 km/h (1 Bft) S-SW 199 2 min 0,000 mm 0,0 UV-I 211 W/m 18,3 C 20,2 C 1,6 km/h (1 Bft) 87,23 %
01.08.2017 07:32 20,3 C 25,0 C 89 % 1013,4 hPa 0,0 l/m 0,6 km/h (0 Bft) S-SW 199 2 min 0,000 mm 0,2 UV-I 217 W/m 18,4 C 20,3 C 1,6 km/h (1 Bft) 89,36 %
01.08.2017 07:34 20,4 C 25,0 C 89 % 1013,4 hPa 0,0 l/m 1,7 km/h (1 Bft) S-SW 199 2 min 0,000 mm 0,5 UV-I 224 W/m 18,5 C 20,4 C 3,2 km/h (1 Bft) 98,00 %
01.08.2017 07:36 20,6 C 25,0 C 88 % 1013,5 hPa 0,0 l/m 1,0 km/h (0 Bft) S-SW 199 2 min 0,000 mm 0,5 UV-I 230 W/m 18,5 C 20,6 C 3,2 km/h (1 Bft) 95,74 %
01.08.2017 07:38 20,6 C 25,0 C 87 % 1013,5 hPa 0,0 l/m 0,0 km/h (0 Bft) S-SW 199 2 min 0,000 mm 0,5 UV-I 235 W/m 18,4 C 20,6 C 0,0 km/h (0 Bft) 98,00 %
01.08.2017 07:40 20,6 C 25,0 C 87 % 1013,5 hPa 0,0 l/m 0,0 km/h (0 Bft) S-SW 199 2 min 0,000 mm 0,5 UV-I 241 W/m 18,4 C 20,6 C 0,0 km/h (0 Bft) 97,87 %
01.08.2017 07:42 20,8 C 25,0 C 87 % 1013,5 hPa 0,0 l/m 0,0 km/h (0 Bft) S-SW 199 2 min 0,000 mm 0,5 UV-I 248 W/m 18,6 C 20,8 C 0,0 km/h (0 Bft) 93,62 %
01.08.2017 07:44 20,9 C 25,0 C 86 % 1013,5 hPa 0,0 l/m 0,0 km/h (0 Bft) S-SW 199 2 min 0,000 mm 0,6 UV-I 254 W/m 18,5 C 20,9 C 1,6 km/h (1 Bft) 95,74 %
01.08.2017 07:46 21,1 C 25,0 C 86 % 1013,5 hPa 0,0 l/m 0,4 km/h (0 Bft) S-SW 199 2 min 0,000 mm 0,6 UV-I 259 W/m 18,7 C 21,1 C 1,6 km/h (1 Bft) 100,00 %
01.08.2017 07:48 21,3 C 25,0 C 85 % 1013,5 hPa 0,0 l/m 0,2 km/h (0 Bft) S-SW 199 2 min 0,000 mm 0,6 UV-I 265 W/m 18,7 C 21,3 C 1,6 km/h (1 Bft) 97,87 %
01.08.2017 07:50 21,4 C 25,0 C 84 % 1013,4 hPa 0,0 l/m 0,0 km/h (0 Bft) S-SW 199 2 min 0,000 mm 0,6 UV-I 271 W/m 18,6 C 21,4 C 1,6 km/h (1 Bft) 94,74 %
01.08.2017 07:52 21,5 C 25,0 C 83 % 1013,4 hPa 0,0 l/m 0,5 km/h (0 Bft) W-NW 288 2 min 0,000 mm 0,7 UV-I 277 W/m 18,5 C 21,5 C 3,2 km/h (1 Bft) 97,92 %
01.08.2017 07:54 21,6 C 25,0 C 83 % 1013,4 hPa 0,0 l/m 1,1 km/h (1 Bft) W-NW 288 2 min 0,000 mm 0,7 UV-I 282 W/m 18,6 C 21,6 C 3,2 km/h (1 Bft) 100,00 %
01.08.2017 07:56 21,7 C 25,0 C 83 % 1013,4 hPa 0,0 l/m 2,6 km/h (1 Bft) N 5 2 min 0,000 mm 0,7 UV-I 289 W/m 18,7 C 21,7 C 4,8 km/h (1 Bft) 96,00 %
01.08.2017 07:58 21,8 C 25,0 C 83 % 1013,4 hPa 0,0 l/m 2,8 km/h (1 Bft) N-NO 16 2 min 0,000 mm 0,7 UV-I 295 W/m 18,8 C 21,8 C 4,8 km/h (1 Bft) 97,87 %
01.08.2017 08:00 21,8 C 25,0 C 82 % 1013,4 hPa 0,0 l/m 3,9 km/h (1 Bft) NO 51 2 min 0,127 mm 0,8 UV-I 302 W/m 18,6 C 21,8 C 6,4 km/h (2 Bft) 97,87 %
01.08.2017 08:02 21,9 C 25,0 C 83 % 1013,4 hPa 0,0 l/m 4,0 km/h (1 Bft) NO 52 2 min 0,000 mm 0,8 UV-I 308 W/m 18,9 C 21,9 C 6,4 km/h (2 Bft) 100,00 %
01.08.2017 08:04 21,9 C 25,0 C 82 % 1013,4 hPa 0,0 l/m 1,6 km/h (1 Bft) NO 52 2 min 0,000 mm 0,8 UV-I 314 W/m 18,7 C 21,9 C 4,8 km/h (1 Bft) 100,00 %
01.08.2017 08:06 21,9 C 25,0 C 81 % 1013,5 hPa 0,0 l/m 1,3 km/h (1 Bft) NO 52 2 min 0,000 mm 0,8 UV-I 318 W/m 18,5 C 21,9 C 3,2 km/h (1 Bft) 97,87 %
01.08.2017 08:08 22,0 C 25,0 C 82 % 1013,4 hPa 0,0 l/m 2,0 km/h (1 Bft) NO 52 2 min 0,000 mm 0,9 UV-I 324 W/m 18,8 C 22,0 C 4,8 km/h (1 Bft) 100,00 %
01.08.2017 08:10 22,1 C 25,0 C 81 % 1013,4 hPa 0,0 l/m 0,7 km/h (0 Bft) NO 52 2 min 0,000 mm 0,9 UV-I 330 W/m 18,7 C 22,1 C 3,2 km/h (1 Bft) 98,00 %
01.08.2017 08:12 22,2 C 25,0 C 81 % 1013,4 hPa 0,0 l/m 1,1 km/h (1 Bft) NO 51 2 min 0,000 mm 0,9 UV-I 336 W/m 18,8 C 22,2 C 4,8 km/h (1 Bft) 94,59 %
01.08.2017 08:14 22,3 C 25,0 C 81 % 1013,5 hPa 0,0 l/m 1,6 km/h (1 Bft) NO 51 2 min 0,000 mm 0,9 UV-I 342 W/m 18,9 C 22,3 C 4,8 km/h (1 Bft) 100,00 %
01.08.2017 08:16 22,4 C 25,0 C 81 % 1013,5 hPa 0,0 l/m 0,1 km/h (0 Bft) NO 51 2 min 0,000 mm 1,0 UV-I 348 W/m 19,0 C 22,4 C 1,6 km/h (1 Bft) 100,00 %
01.08.2017 08:18 22,5 C 25,0 C 81 % 1013,5 hPa 0,0 l/m 1,8 km/h (1 Bft) NO 36 2 min 0,000 mm 1,0 UV-I 354 W/m 19,1 C 22,5 C 4,8 km/h (1 Bft) 100,00 %
01.08.2017 08:20 22,6 C 25,0 C 80 % 1013,5 hPa 0,0 l/m 1,6 km/h (1 Bft) NO 37 2 min 0,000 mm 1,0 UV-I 359 W/m 19,0 C 22,6 C 4,8 km/h (1 Bft) 95,74 %
01.08.2017 08:22 22,7 C 25,0 C 79 % 1013,6 hPa 0,0 l/m 1,4 km/h (1 Bft) NO 36 2 min 0,000 mm 1,1 UV-I 366 W/m 18,9 C 22,7 C 3,2 km/h (1 Bft) 97,87 %
01.08.2017 08:24 22,7 C 25,0 C 79 % 1013,5 hPa 0,0 l/m 2,6 km/h (1 Bft) N-NO 33 2 min 0,000 mm 1,1 UV-I 371 W/m 18,9 C 22,7 C 4,8 km/h (1 Bft) 95,74 %
01.08.2017 08:26 22,8 C 25,0 C 79 % 1013,5 hPa 0,0 l/m 2,6 km/h (1 Bft) N-NO 32 2 min 0,000 mm 1,1 UV-I 376 W/m 19,0 C 22,8 C 6,4 km/h (2 Bft) 91,49 %
01.08.2017 08:28 22,9 C 25,0 C 78 % 1013,5 hPa 0,0 l/m 3,5 km/h (1 Bft) N-NO 30 2 min 0,000 mm 1,2 UV-I 382 W/m 18,9 C 22,9 C 4,8 km/h (1 Bft) 98,00 %
01.08.2017 08:30 22,9 C 25,0 C 79 % 1013,5 hPa 0,0 l/m 2,9 km/h (1 Bft) N-NO 31 2 min 0,000 mm 1,2 UV-I 387 W/m 19,1 C 22,9 C 4,8 km/h (1 Bft) 100,00 %
01.08.2017 08:32 23,1 C 25,0 C 79 % 1013,4 hPa 0,0 l/m 2,7 km/h (1 Bft) NO 41 2 min 0,000 mm 1,2 UV-I 393 W/m 19,3 C 23,1 C 6,4 km/h (2 Bft) 91,67 %
01.08.2017 08:34 23,2 C 25,0 C 77 % 1013,5 hPa 0,0 l/m 3,8 km/h (1 Bft) O 80 2 min 0,000 mm 1,2 UV-I 399 W/m 18,9 C 23,2 C 6,4 km/h (2 Bft) 93,62 %
01.08.2017 08:36 23,2 C 25,0 C 74 % 1013,4 hPa 0,0 l/m 5,5 km/h (1 Bft) O-NO 65 2 min 0,000 mm 1,3 UV-I 404 W/m 18,3 C 23,2 C 8,0 km/h (2 Bft) 94,00 %
01.08.2017 08:38 23,3 C 25,0 C 75 % 1013,5 hPa 0,0 l/m 6,2 km/h (2 Bft) O 79 2 min 0,000 mm 1,3 UV-I 410 W/m 18,6 C 23,3 C 9,7 km/h (2 Bft) 89,36 %
01.08.2017 08:40 23,3 C 25,0 C 75 % 1013,5 hPa 0,0 l/m 4,7 km/h (1 Bft) NO 51 2 min 0,000 mm 1,3 UV-I 415 W/m 18,6 C 23,3 C 6,4 km/h (2 Bft) 95,74 %
01.08.2017 08:42 23,5 C 25,0 C 76 % 1013,5 hPa 0,0 l/m 5,2 km/h (1 Bft) NO 45 2 min 0,000 mm 1,4 UV-I 421 W/m 19,0 C 23,5 C 8,0 km/h (2 Bft) 93,62 %
01.08.2017 08:44 23,7 C 25,0 C 75 % 1013,6 hPa 0,0 l/m 4,7 km/h (1 Bft) N-NO 25 2 min 0,000 mm 1,4 UV-I 427 W/m 19,0 C 23,7 C 8,0 km/h (2 Bft) 91,49 %
01.08.2017 08:46 23,7 C 25,0 C 73 % 1013,6 hPa 0,0 l/m 5,8 km/h (2 Bft) O-NO 70 2 min 0,000 mm 1,4 UV-I 433 W/m 18,6 C 23,7 C 8,0 km/h (2 Bft) 91,49 %
01.08.2017 08:48 23,8 C 25,0 C 74 % 1013,5 hPa 0,0 l/m 8,2 km/h (2 Bft) NO 45 2 min 0,000 mm 1,5 UV-I 438 W/m 18,9 C 23,3 C 11,3 km/h (2 Bft) 91,49 %
01.08.2017 08:50 23,9 C 25,0 C 73 % 1013,5 hPa 0,0 l/m 6,3 km/h (2 Bft) NO 49 2 min 0,000 mm 1,5 UV-I 443 W/m 18,8 C 23,9 C 9,7 km/h (2 Bft) 91,49 %
01.08.2017 08:52 24,0 C 25,0 C 73 % 1013,6 hPa 0,0 l/m 4,4 km/h (1 Bft) O-NO 63 2 min 0,000 mm 1,6 UV-I 450 W/m 18,9 C 24,0 C 6,4 km/h (2 Bft) 94,00 %
01.08.2017 08:54 24,0 C 25,0 C 74 % 1013,6 hPa 0,0 l/m 0,5 km/h (0 Bft) N-NO 25 2 min 0,000 mm 1,6 UV-I 454 W/m 19,1 C 24,0 C 3,2 km/h (1 Bft) 91,49 %
01.08.2017 08:56 24,2 C 25,0 C 74 % 1013,6 hPa 0,0 l/m 5,5 km/h (1 Bft) N-NO 26 2 min 0,000 mm 1,6 UV-I 459 W/m 19,3 C 24,2 C 8,0 km/h (2 Bft) 93,62 %
01.08.2017 08:58 24,3 C 25,0 C 72 % 1013,7 hPa 0,0 l/m 3,1 km/h (1 Bft) NO 34 2 min 0,000 mm 1,7 UV-I 466 W/m 18,9 C 24,3 C 4,8 km/h (1 Bft) 95,74 %
01.08.2017 09:00 24,5 C 25,0 C 73 % 1013,7 hPa 0,0 l/m 6,8 km/h (2 Bft) NO 38 2 min 0,254 mm 1,7 UV-I 471 W/m 19,3 C 24,4 C 9,7 km/h (2 Bft) 93,62 %
01.08.2017 09:02 24,6 C 25,0 C 73 % 1013,7 hPa 0,0 l/m 2,4 km/h (1 Bft) NO 38 2 min 0,000 mm 1,8 UV-I 476 W/m 19,4 C 24,6 C 6,4 km/h (2 Bft) 95,83 %
01.08.2017 09:04 24,7 C 25,0 C 73 % 1013,7 hPa 0,0 l/m 7,2 km/h (2 Bft) NO 54 2 min 0,000 mm 1,8 UV-I 482 W/m 19,5 C 24,5 C 9,7 km/h (2 Bft) 91,43 %
01.08.2017 09:06 24,7 C 25,0 C 71 % 1013,6 hPa 0,0 l/m 7,1 km/h (2 Bft) O-NO 71 2 min 0,000 mm 1,8 UV-I 486 W/m 19,1 C 24,5 C 11,3 km/h (2 Bft) 94,00 %
01.08.2017 09:08 24,7 C 25,0 C 70 % 1013,7 hPa 0,0 l/m 6,6 km/h (2 Bft) O-NO 70 2 min 0,000 mm 1,9 UV-I 492 W/m 18,8 C 24,7 C 8,0 km/h (2 Bft) 91,49 %
01.08.2017 09:10 24,6 C 25,0 C 70 % 1013,7 hPa 0,0 l/m 5,2 km/h (1 Bft) O-NO 58 2 min 0,000 mm 1,9 UV-I 499 W/m 18,8 C 24,6 C 8,0 km/h (2 Bft) 95,74 %
01.08.2017 09:12 24,6 C 25,0 C 70 % 1013,7 hPa 0,0 l/m 4,5 km/h (1 Bft) NO 55 2 min 0,000 mm 2,0 UV-I 504 W/m 18,8 C 24,6 C 6,4 km/h (2 Bft) 95,83 %
01.08.2017 09:14 24,7 C 25,0 C 70 % 1013,7 hPa 0,0 l/m 7,3 km/h (2 Bft) NO 54 2 min 0,000 mm 2,0 UV-I 509 W/m 18,8 C 24,5 C 9,7 km/h (2 Bft) 100,00 %
01.08.2017 09:16 24,8 C 25,0 C 70 % 1013,7 hPa 0,0 l/m 5,4 km/h (1 Bft) NO 50 2 min 0,000 mm 2,1 UV-I 513 W/m 18,9 C 24,8 C 9,7 km/h (2 Bft) 95,16 %
01.08.2017 09:18 24,9 C 25,0 C 70 % 1013,7 hPa 0,0 l/m 6,3 km/h (2 Bft) NO 51 2 min 0,000 mm 2,1 UV-I 518 W/m 19,0 C 24,9 C 9,7 km/h (2 Bft) 93,62 %
01.08.2017 09:20 25,0 C 25,0 C 69 % 1013,8 hPa 0,0 l/m 7,0 km/h (2 Bft) O-NO 74 2 min 0,000 mm 2,2 UV-I 524 W/m 18,9 C 24,8 C 9,7 km/h (2 Bft) 97,87 %
01.08.2017 09:22 25,0 C 25,0 C 70 % 1013,8 hPa 0,0 l/m 5,2 km/h (1 Bft) O-NO 63 2 min 0,000 mm 2,2 UV-I 528 W/m 19,1 C 25,0 C 8,0 km/h (2 Bft) 97,87 %
01.08.2017 09:24 25,1 C 25,0 C 68 % 1013,9 hPa 0,0 l/m 0,9 km/h (0 Bft) O-NO 63 2 min 0,000 mm 2,2 UV-I 533 W/m 18,8 C 25,1 C 3,2 km/h (1 Bft) 97,87 %
01.08.2017 09:26 25,2 C 25,0 C 71 % 1013,9 hPa 0,0 l/m 5,2 km/h (1 Bft) NO 53 2 min 0,000 mm 2,3 UV-I 538 W/m 19,6 C 25,2 C 9,7 km/h (2 Bft) 93,62 %
01.08.2017 09:28 25,2 C 25,0 C 68 % 1013,9 hPa 0,0 l/m 4,4 km/h (1 Bft) NO 47 2 min 0,000 mm 2,3 UV-I 543 W/m 18,9 C 25,2 C 8,0 km/h (2 Bft) 87,23 %
01.08.2017 09:30 25,3 C 25,0 C 69 % 1013,8 hPa 0,0 l/m 2,8 km/h (1 Bft) O-NO 59 2 min 0,000 mm 2,3 UV-I 548 W/m 19,2 C 25,3 C 8,0 km/h (2 Bft) 92,00 %
01.08.2017 09:32 25,3 C 25,0 C 68 % 1013,8 hPa 0,0 l/m 5,0 km/h (1 Bft) O-NO 62 2 min 0,000 mm 2,4 UV-I 553 W/m 19,0 C 25,3 C 6,4 km/h (2 Bft) 93,62 %
01.08.2017 09:34 25,3 C 25,0 C 70 % 1013,9 hPa 0,0 l/m 4,0 km/h (1 Bft) O-NO 61 2 min 0,000 mm 2,5 UV-I 558 W/m 19,4 C 25,3 C 6,4 km/h (2 Bft) 91,49 %
01.08.2017 09:36 25,3 C 25,0 C 68 % 1014,0 hPa 0,0 l/m 0,6 km/h (0 Bft) NO 55 2 min 0,000 mm 2,5 UV-I 564 W/m 19,0 C 25,3 C 1,6 km/h (1 Bft) 89,36 %
01.08.2017 09:38 25,3 C 25,0 C 67 % 1014,0 hPa 0,0 l/m 0,8 km/h (0 Bft) NO 51 2 min 0,000 mm 2,6 UV-I 568 W/m 18,7 C 25,3 C 3,2 km/h (1 Bft) 94,74 %
01.08.2017 09:40 25,3 C 25,0 C 67 % 1014,0 hPa 0,0 l/m 1,1 km/h (1 Bft) NO 51 2 min 0,000 mm 2,6 UV-I 572 W/m 18,7 C 25,3 C 1,6 km/h (1 Bft) 97,87 %
01.08.2017 09:42 25,3 C 25,0 C 69 % 1013,9 hPa 0,0 l/m 0,1 km/h (0 Bft) NO 51 2 min 0,000 mm 2,6 UV-I 576 W/m 19,2 C 25,3 C 1,6 km/h (1 Bft) 93,62 %
01.08.2017 09:44 25,6 C 25,0 C 69 % 1014,0 hPa 0,0 l/m 0,8 km/h (0 Bft) NO 51 2 min 0,000 mm 2,7 UV-I 580 W/m 19,5 C 25,6 C 4,8 km/h (1 Bft) 92,00 %
01.08.2017 09:46 25,7 C 25,0 C 67 % 1014,0 hPa 0,0 l/m 0,6 km/h (0 Bft) NO 51 2 min 0,000 mm 2,7 UV-I 587 W/m 19,1 C 25,7 C 1,6 km/h (1 Bft) 91,49 %
01.08.2017 09:48 25,7 C 25,0 C 68 % 1014,0 hPa 0,0 l/m 0,7 km/h (0 Bft) NO 37 2 min 0,000 mm 2,8 UV-I 593 W/m 19,3 C 25,7 C 3,2 km/h (1 Bft) 97,87 %
01.08.2017 09:50 25,8 C 25,0 C 67 % 1014,1 hPa 0,0 l/m 1,2 km/h (1 Bft) N-NO 33 2 min 0,000 mm 2,8 UV-I 598 W/m 19,2 C 25,8 C 3,2 km/h (1 Bft) 98,00 %
01.08.2017 09:52 25,8 C 25,0 C 68 % 1014,1 hPa 0,0 l/m 2,4 km/h (1 Bft) N 349 2 min 0,000 mm 2,9 UV-I 604 W/m 19,4 C 25,8 C 3,2 km/h (1 Bft) 100,00 %
01.08.2017 09:54 25,7 C 25,0 C 67 % 1014,1 hPa 0,0 l/m 2,6 km/h (1 Bft) N-NW 333 2 min 0,000 mm 2,9 UV-I 608 W/m 19,1 C 25,7 C 4,8 km/h (1 Bft) 93,62 %
01.08.2017 09:56 25,8 C 25,0 C 67 % 1014,1 hPa 0,0 l/m 0,9 km/h (0 Bft) N-NW 333 2 min 0,000 mm 3,0 UV-I 614 W/m 19,2 C 25,8 C 3,2 km/h (1 Bft) 97,87 %
01.08.2017 09:58 25,8 C 25,0 C 67 % 1014,1 hPa 0,0 l/m 1,0 km/h (0 Bft) N-NW 336 2 min 0,000 mm 3,0 UV-I 616 W/m 19,2 C 25,8 C 1,6 km/h (1 Bft) 90,00 %
01.08.2017 10:00 26,0 C 25,0 C 67 % 1014,1 hPa 0,0 l/m 2,1 km/h (1 Bft) N-NW 336 2 min 0,356 mm 3,1 UV-I 622 W/m 19,4 C 26,0 C 4,8 km/h (1 Bft) 93,62 %
01.08.2017 10:03 26,1 C 25,0 C 65 % 1014,1 hPa 0,0 l/m 1,6 km/h (1 Bft) N-NO 15 3 min 0,000 mm 3,1 UV-I 630 W/m 19,0 C 26,1 C 3,2 km/h (1 Bft) 94,74 %
01.08.2017 10:04 26,2 C 25,0 C 66 % 1014,1 hPa 0,0 l/m 0,2 km/h (0 Bft) N 360 1 min 0,000 mm 3,2 UV-I 633 W/m 19,3 C 26,2 C 1,6 km/h (1 Bft) 100,00 %
01.08.2017 10:06 26,3 C 25,0 C 63 % 1014,1 hPa 0,0 l/m 0,7 km/h (0 Bft) N 360 2 min 0,000 mm 3,2 UV-I 636 W/m 18,7 C 26,3 C 3,2 km/h (1 Bft) 100,00 %
01.08.2017 10:08 26,3 C 25,0 C 65 % 1014,2 hPa 0,0 l/m 1,3 km/h (1 Bft) N 360 2 min 0,000 mm 3,3 UV-I 640 W/m 19,2 C 26,3 C 3,2 km/h (1 Bft) 96,08 %
01.08.2017 10:10 26,4 C 25,0 C 67 % 1014,1 hPa 0,0 l/m 1,4 km/h (1 Bft) N 10 2 min 0,000 mm 3,3 UV-I 645 W/m 19,8 C 26,4 C 4,8 km/h (1 Bft) 97,87 %
01.08.2017 10:12 26,7 C 25,0 C 63 % 1014,1 hPa 0,0 l/m 2,3 km/h (1 Bft) N-NO 16 2 min 0,000 mm 3,3 UV-I 650 W/m 19,1 C 26,7 C 8,0 km/h (2 Bft) 100,00 %
01.08.2017 10:14 26,8 C 25,0 C 63 % 1014,1 hPa 0,0 l/m 3,3 km/h (1 Bft) N-NO 16 2 min 0,000 mm 3,4 UV-I 654 W/m 19,1 C 26,8 C 6,4 km/h (2 Bft) 97,87 %
01.08.2017 10:16 26,8 C 25,0 C 64 % 1014,1 hPa 0,0 l/m 0,9 km/h (0 Bft) N-NO 12 2 min 0,000 mm 2,7 UV-I 661 W/m 19,4 C 26,8 C 3,2 km/h (1 Bft) 93,62 %
01.08.2017 10:18 27,0 C 25,0 C 66 % 1014,2 hPa 0,0 l/m 3,6 km/h (1 Bft) N-NO 21 2 min 0,000 mm 3,5 UV-I 662 W/m 20,1 C 27,0 C 8,0 km/h (2 Bft) 100,00 %
01.08.2017 10:20 27,1 C 25,0 C 62 % 1014,1 hPa 0,0 l/m 3,5 km/h (1 Bft) N-NO 26 2 min 0,000 mm 3,6 UV-I 669 W/m 19,2 C 27,1 C 6,4 km/h (2 Bft) 97,87 %
01.08.2017 10:22 27,2 C 25,0 C 61 % 1014,1 hPa 0,0 l/m 3,5 km/h (1 Bft) N-NO 27 2 min 0,000 mm 3,6 UV-I 672 W/m 19,0 C 27,2 C 4,8 km/h (1 Bft) 95,74 %
01.08.2017 10:24 27,2 C 25,0 C 61 % 1014,1 hPa 0,0 l/m 2,1 km/h (1 Bft) N-NO 29 2 min 0,000 mm 3,6 UV-I 674 W/m 19,0 C 27,2 C 4,8 km/h (1 Bft) 100,00 %
01.08.2017 10:26 27,3 C 25,0 C 65 % 1014,2 hPa 0,0 l/m 3,4 km/h (1 Bft) NO 35 2 min 0,000 mm 3,7 UV-I 679 W/m 20,1 C 27,3 C 8,0 km/h (2 Bft) 95,83 %
01.08.2017 10:28 27,4 C 25,0 C 63 % 1014,2 hPa 0,0 l/m 1,9 km/h (1 Bft) N-NO 32 2 min 0,000 mm 3,7 UV-I 683 W/m 19,7 C 27,4 C 4,8 km/h (1 Bft) 98,44 %
01.08.2017 10:30 27,6 C 25,0 C 61 % 1014,2 hPa 0,0 l/m 1,9 km/h (1 Bft) N-NO 12 2 min 0,000 mm 3,8 UV-I 688 W/m 19,4 C 27,6 C 4,8 km/h (1 Bft) 95,83 %
01.08.2017 10:32 27,7 C 25,0 C 62 % 1014,2 hPa 0,0 l/m 0,7 km/h (0 Bft) N-NO 12 2 min 0,000 mm 3,8 UV-I 691 W/m 19,7 C 27,7 C 1,6 km/h (1 Bft) 97,87 %
01.08.2017 10:34 27,7 C 25,0 C 62 % 1014,2 hPa 0,0 l/m 0,9 km/h (0 Bft) N-NW 348 2 min 0,000 mm 3,9 UV-I 693 W/m 19,7 C 27,7 C 3,2 km/h (1 Bft) 91,49 %
01.08.2017 10:36 27,7 C 25,0 C 63 % 1014,3 hPa 0,0 l/m 0,6 km/h (0 Bft) N-NW 348 2 min 0,000 mm 3,9 UV-I 680 W/m 20,0 C 27,7 C 3,2 km/h (1 Bft) 95,83 %
01.08.2017 10:38 27,7 C 25,0 C 61 % 1014,2 hPa 0,0 l/m 2,0 km/h (1 Bft) N-NW 348 2 min 0,000 mm 4,0 UV-I 701 W/m 19,5 C 27,7 C 3,2 km/h (1 Bft) 97,87 %
01.08.2017 10:40 27,6 C 25,0 C 62 % 1014,2 hPa 0,0 l/m 1,4 km/h (1 Bft) N 360 2 min 0,000 mm 4,0 UV-I 707 W/m 19,6 C 27,6 C 3,2 km/h (1 Bft) 97,87 %
01.08.2017 10:42 27,8 C 25,0 C 66 % 1014,2 hPa 0,0 l/m 2,4 km/h (1 Bft) N-NO 17 2 min 0,000 mm 4,1 UV-I 709 W/m 20,8 C 27,8 C 4,8 km/h (1 Bft) 97,87 %
01.08.2017 10:44 27,9 C 25,0 C 63 % 1014,1 hPa 0,0 l/m 2,5 km/h (1 Bft) N-NO 17 2 min 0,000 mm 4,1 UV-I 713 W/m 20,2 C 27,9 C 6,4 km/h (2 Bft) 96,00 %
01.08.2017 10:46 28,2 C 25,0 C 61 % 1014,1 hPa 0,0 l/m 5,0 km/h (1 Bft) N-NO 28 2 min 0,000 mm 4,2 UV-I 717 W/m 19,9 C 28,2 C 8,0 km/h (2 Bft) 97,87 %
01.08.2017 10:48 28,2 C 25,0 C 61 % 1014,1 hPa 0,0 l/m 3,9 km/h (1 Bft) N-NO 28 2 min 0,000 mm 4,2 UV-I 719 W/m 19,9 C 28,2 C 6,4 km/h (2 Bft) 93,62 %
01.08.2017 10:50 28,2 C 25,0 C 62 % 1014,1 hPa 0,0 l/m 2,1 km/h (1 Bft) NO 34 2 min 0,000 mm 4,3 UV-I 724 W/m 20,2 C 28,2 C 6,4 km/h (2 Bft) 91,49 %
01.08.2017 10:52 28,3 C 25,0 C 61 % 1014,1 hPa 0,0 l/m 4,2 km/h (1 Bft) NO 34 2 min 0,000 mm 4,3 UV-I 728 W/m 20,0 C 28,3 C 6,4 km/h (2 Bft) 97,87 %
01.08.2017 10:54 28,5 C 25,0 C 64 % 1014,1 hPa 0,0 l/m 3,7 km/h (1 Bft) NO 34 2 min 0,000 mm 4,3 UV-I 731 W/m 21,0 C 28,5 C 6,4 km/h (2 Bft) 94,74 %
01.08.2017 10:56 28,5 C 25,0 C 60 % 1014,1 hPa 0,0 l/m 4,3 km/h (1 Bft) O-NO 67 2 min 0,000 mm 4,2 UV-I 735 W/m 20,0 C 28,5 C 8,0 km/h (2 Bft) 97,87 %
01.08.2017 11:00 28,4 C 25,6 C 58 % 1014,1 hPa 0,0 l/m 4,8 km/h (1 Bft) O-NO 57 4 min 0,457 mm 4,5 UV-I 741 W/m 19,3 C 28,4 C 6,4 km/h (2 Bft) 100,00 %
01.08.2017 11:02 28,4 C 25,6 C 61 % 1014,2 hPa 0,0 l/m 3,0 km/h (1 Bft) O-NO 58 2 min 0,000 mm 4,5 UV-I 744 W/m 20,1 C 28,4 C 6,4 km/h (2 Bft) 97,56 %
01.08.2017 11:04 28,6 C 25,6 C 61 % 1014,1 hPa 0,0 l/m 4,5 km/h (1 Bft) O 93 2 min 0,000 mm 4,6 UV-I 747 W/m 20,3 C 28,6 C 6,4 km/h (2 Bft) 97,87 %
01.08.2017 11:06 28,5 C 25,6 C 60 % 1014,2 hPa 0,0 l/m 3,5 km/h (1 Bft) O 93 2 min 0,000 mm 4,6 UV-I 750 W/m 20,0 C 28,5 C 4,8 km/h (1 Bft) 98,11 %
01.08.2017 11:08 28,4 C 25,6 C 60 % 1014,2 hPa 0,0 l/m 2,1 km/h (1 Bft) SO 125 2 min 0,000 mm 4,7 UV-I 756 W/m 19,9 C 28,4 C 4,8 km/h (1 Bft) 100,00 %
01.08.2017 11:10 28,5 C 25,6 C 61 % 1014,2 hPa 0,0 l/m 1,4 km/h (1 Bft) SO 125 2 min 0,000 mm 4,7 UV-I 758 W/m 20,2 C 28,5 C 4,8 km/h (1 Bft) 96,23 %
01.08.2017 11:13 28,8 C 25,6 C 62 % 1014,1 hPa 0,0 l/m 2,4 km/h (1 Bft) NO 53 3 min 0,000 mm 4,8 UV-I 762 W/m 20,8 C 28,8 C 4,8 km/h (1 Bft) 100,00 %
01.08.2017 11:14 28,9 C 25,6 C 63 % 1014,1 hPa 0,0 l/m 2,1 km/h (1 Bft) NO 51 1 min 0,000 mm 4,8 UV-I 763 W/m 21,1 C 28,9 C 3,2 km/h (1 Bft) 100,00 %
01.08.2017 11:16 29,2 C 25,6 C 60 % 1014,1 hPa 0,0 l/m 1,0 km/h (0 Bft) NO 43 2 min 0,000 mm 4,8 UV-I 765 W/m 20,6 C 29,2 C 3,2 km/h (1 Bft) 100,00 %
01.08.2017 11:18 29,3 C 25,6 C 59 % 1014,1 hPa 0,0 l/m 0,8 km/h (0 Bft) N 355 2 min 0,000 mm 4,9 UV-I 769 W/m 20,4 C 29,3 C 3,2 km/h (1 Bft) 100,00 %
01.08.2017 11:20 29,2 C 25,6 C 58 % 1014,1 hPa 0,0 l/m 1,9 km/h (1 Bft) NW 317 2 min 0,000 mm 4,9 UV-I 772 W/m 20,1 C 29,2 C 4,8 km/h (1 Bft) 97,37 %
01.08.2017 11:22 29,0 C 25,6 C 57 % 1014,1 hPa 0,0 l/m 0,6 km/h (0 Bft) NW 317 2 min 0,000 mm 4,9 UV-I 779 W/m 19,6 C 29,0 C 1,6 km/h (1 Bft) 94,74 %
01.08.2017 11:24 28,8 C 25,6 C 58 % 1014,0 hPa 0,0 l/m 0,8 km/h (0 Bft) NW 317 2 min 0,000 mm 5,0 UV-I 780 W/m 19,7 C 28,8 C 3,2 km/h (1 Bft) 98,21 %
01.08.2017 11:26 28,8 C 25,6 C 59 % 1014,0 hPa 0,0 l/m 0,2 km/h (0 Bft) NW 317 2 min 0,000 mm 5,0 UV-I 785 W/m 20,0 C 28,8 C 1,6 km/h (1 Bft) 95,12 %
01.08.2017 11:28 29,0 C 25,6 C 62 % 1013,9 hPa 0,0 l/m 2,3 km/h (1 Bft) N 355 2 min 0,000 mm 5,1 UV-I 786 W/m 21,0 C 29,0 C 4,8 km/h (1 Bft) 98,11 %
01.08.2017 11:30 29,3 C 25,6 C 59 % 1013,9 hPa 0,0 l/m 1,1 km/h (1 Bft) N-NO 27 2 min 0,000 mm 5,0 UV-I 789 W/m 20,4 C 29,3 C 3,2 km/h (1 Bft) 100,00 %
01.08.2017 11:33 29,5 C 25,6 C 59 % 1014,0 hPa 0,0 l/m 1,3 km/h (1 Bft) N-NO 12 3 min 0,000 mm 5,2 UV-I 791 W/m 20,6 C 29,5 C 4,8 km/h (1 Bft) 97,26 %
01.08.2017 11:34 29,4 C 25,6 C 56 % 1014,0 hPa 0,0 l/m 1,1 km/h (1 Bft) N-NO 12 1 min 0,000 mm 5,2 UV-I 790 W/m 19,7 C 29,4 C 3,2 km/h (1 Bft) 96,30 %
01.08.2017 11:36 29,4 C 25,6 C 58 % 1014,0 hPa 0,0 l/m 1,0 km/h (0 Bft) N-NO 12 2 min 0,000 mm 5,2 UV-I 791 W/m 20,3 C 29,4 C 3,2 km/h (1 Bft) 100,00 %
01.08.2017 11:38 29,7 C 25,6 C 59 % 1014,0 hPa 0,0 l/m 0,7 km/h (0 Bft) N 5 2 min 0,000 mm 5,2 UV-I 798 W/m 20,8 C 29,7 C 3,2 km/h (1 Bft) 100,00 %
01.08.2017 11:40 29,9 C 25,6 C 59 % 1014,0 hPa 0,0 l/m 0,5 km/h (0 Bft) N 10 2 min 0,000 mm 5,3 UV-I 799 W/m 21,0 C 29,9 C 3,2 km/h (1 Bft) 100,00 %
01.08.2017 11:42 30,0 C 25,6 C 58 % 1014,0 hPa 0,0 l/m 1,0 km/h (0 Bft) N 5 2 min 0,000 mm 5,3 UV-I 799 W/m 20,8 C 30,0 C 3,2 km/h (1 Bft) 100,00 %
01.08.2017 11:44 29,9 C 25,6 C 55 % 1014,0 hPa 0,0 l/m 2,2 km/h (1 Bft) SW 221 2 min 0,000 mm 5,3 UV-I 804 W/m 19,9 C 29,9 C 4,8 km/h (1 Bft) 98,00 %
01.08.2017 11:46 29,8 C 25,6 C 54 % 1014,0 hPa 0,0 l/m 3,4 km/h (1 Bft) SW 233 2 min 0,000 mm 5,4 UV-I 808 W/m 19,5 C 29,8 C 6,4 km/h (2 Bft) 100,00 %
01.08.2017 11:48 29,8 C 25,6 C 59 % 1014,0 hPa 0,0 l/m 3,6 km/h (1 Bft) W-SW 242 2 min 0,000 mm 5,4 UV-I 811 W/m 20,9 C 29,8 C 4,8 km/h (1 Bft) 97,87 %
01.08.2017 11:50 29,9 C 25,6 C 55 % 1014,0 hPa 0,0 l/m 3,0 km/h (1 Bft) W-SW 241 2 min 0,000 mm 5,5 UV-I 813 W/m 19,9 C 29,9 C 4,8 km/h (1 Bft) 100,00 %
01.08.2017 11:52 29,9 C 25,6 C 54 % 1014,0 hPa 0,0 l/m 3,4 km/h (1 Bft) W 267 2 min 0,000 mm 5,5 UV-I 813 W/m 19,6 C 29,9 C 6,4 km/h (2 Bft) 98,11 %
01.08.2017 11:54 30,0 C 25,6 C 54 % 1014,0 hPa 0,0 l/m 4,4 km/h (1 Bft) W 267 2 min 0,000 mm 5,5 UV-I 815 W/m 19,7 C 30,0 C 6,4 km/h (2 Bft) 95,12 %
01.08.2017 11:56 30,1 C 25,6 C 54 % 1014,0 hPa 0,0 l/m 1,5 km/h (1 Bft) W-SW 253 2 min 0,000 mm 5,6 UV-I 817 W/m 19,7 C 30,1 C 6,4 km/h (2 Bft) 98,11 %
01.08.2017 11:58 30,1 C 25,6 C 53 % 1014,0 hPa 0,0 l/m 2,4 km/h (1 Bft) S-SO 160 2 min 0,000 mm 5,6 UV-I 819 W/m 19,4 C 30,1 C 6,4 km/h (2 Bft) 100,00 %
01.08.2017 12:00 30,1 C 25,6 C 53 % 1014,0 hPa 0,0 l/m 3,4 km/h (1 Bft) O-SO 106 2 min 0,000 mm 5,6 UV-I 823 W/m 19,4 C 30,1 C 4,8 km/h (1 Bft) 95,12 %
01.08.2017 12:02 30,2 C 25,6 C 54 % 1014,0 hPa 0,0 l/m 2,7 km/h (1 Bft) SW 225 2 min 0,533 mm 5,6 UV-I 826 W/m 19,8 C 30,2 C 4,8 km/h (1 Bft) 100,00 %
01.08.2017 12:04 30,2 C 25,6 C 53 % 1014,0 hPa 0,0 l/m 2,6 km/h (1 Bft) S-SW 209 2 min 0,000 mm 5,7 UV-I 826 W/m 19,5 C 30,2 C 8,0 km/h (2 Bft) 98,11 %
01.08.2017 12:06 30,3 C 25,6 C 54 % 1014,0 hPa 0,0 l/m 1,6 km/h (1 Bft) W-SW 252 2 min 0,000 mm 5,7 UV-I 829 W/m 19,9 C 30,3 C 6,4 km/h (2 Bft) 98,11 %
01.08.2017 12:08 30,3 C 25,6 C 50 % 1014,0 hPa 0,0 l/m 3,2 km/h (1 Bft) W-SW 251 2 min 0,000 mm 5,7 UV-I 830 W/m 18,7 C 30,3 C 4,8 km/h (1 Bft) 97,44 %
01.08.2017 12:10 30,4 C 25,6 C 52 % 1014,0 hPa 0,0 l/m 4,0 km/h (1 Bft) W 277 2 min 0,000 mm 5,8 UV-I 831 W/m 19,4 C 30,4 C 4,8 km/h (1 Bft) 96,00 %
01.08.2017 12:12 30,4 C 25,6 C 49 % 1014,1 hPa 0,0 l/m 4,0 km/h (1 Bft) W 274 2 min 0,000 mm 5,8 UV-I 833 W/m 18,5 C 30,4 C 6,4 km/h (2 Bft) 94,74 %
01.08.2017 12:14 30,4 C 25,6 C 47 % 1014,1 hPa 0,0 l/m 2,8 km/h (1 Bft) W 274 2 min 0,000 mm 5,8 UV-I 833 W/m 17,8 C 30,4 C 6,4 km/h (2 Bft) 96,23 %
01.08.2017 12:16 30,6 C 25,6 C 47 % 1014,0 hPa 0,0 l/m 2,4 km/h (1 Bft) N 360 2 min 0,000 mm 5,8 UV-I 836 W/m 18,0 C 30,6 C 3,2 km/h (1 Bft) 94,34 %
01.08.2017 12:18 30,8 C 25,6 C 50 % 1014,0 hPa 0,0 l/m 3,7 km/h (1 Bft) NO 34 2 min 0,000 mm 5,8 UV-I 837 W/m 19,1 C 30,8 C 6,4 km/h (2 Bft) 97,14 %
01.08.2017 12:20 31,0 C 25,6 C 48 % 1014,0 hPa 0,0 l/m 2,8 km/h (1 Bft) N-NO 30 2 min 0,000 mm 5,9 UV-I 840 W/m 18,7 C 31,0 C 4,8 km/h (1 Bft) 95,56 %
01.08.2017 12:22 31,1 C 25,6 C 47 % 1013,9 hPa 0,0 l/m 1,6 km/h (1 Bft) N-NO 30 2 min 0,000 mm 5,9 UV-I 843 W/m 18,4 C 31,1 C 3,2 km/h (1 Bft) 87,50 %
01.08.2017 12:24 31,0 C 25,6 C 47 % 1013,9 hPa 0,0 l/m 0,7 km/h (0 Bft) N-NO 30 2 min 0,000 mm 5,9 UV-I 844 W/m 18,3 C 31,0 C 1,6 km/h (1 Bft) 95,45 %
01.08.2017 12:26 30,9 C 25,6 C 47 % 1013,8 hPa 0,0 l/m 0,3 km/h (0 Bft) N-NO 20 2 min 0,000 mm 5,9 UV-I 841 W/m 18,2 C 30,9 C 1,6 km/h (1 Bft) 96,00 %
01.08.2017 12:28 31,1 C 25,6 C 52 % 1013,9 hPa 0,0 l/m 2,6 km/h (1 Bft) N-NO 30 2 min 0,000 mm 6,0 UV-I 844 W/m 20,1 C 31,1 C 6,4 km/h (2 Bft) 95,74 %
01.08.2017 12:30 31,3 C 25,6 C 51 % 1013,8 hPa 0,0 l/m 3,0 km/h (1 Bft) NO 52 2 min 0,000 mm 6,0 UV-I 847 W/m 19,9 C 31,3 C 6,4 km/h (2 Bft) 94,34 %
01.08.2017 12:32 31,4 C 26,1 C 52 % 1013,8 hPa 0,0 l/m 4,0 km/h (1 Bft) NO 48 2 min 0,000 mm 6,0 UV-I 848 W/m 20,3 C 31,4 C 8,0 km/h (2 Bft) 95,12 %
01.08.2017 12:34 31,4 C 26,1 C 53 % 1013,8 hPa 0,0 l/m 3,9 km/h (1 Bft) NO 51 2 min 0,000 mm 6,0 UV-I 847 W/m 20,6 C 31,4 C 8,0 km/h (2 Bft) 90,00 %
01.08.2017 12:36 31,6 C 26,1 C 49 % 1013,8 hPa 0,0 l/m 3,3 km/h (1 Bft) NO 46 2 min 0,000 mm 6,0 UV-I 847 W/m 19,6 C 31,6 C 8,0 km/h (2 Bft) 93,62 %
01.08.2017 12:38 31,6 C 26,1 C 50 % 1013,9 hPa 0,0 l/m 3,1 km/h (1 Bft) O 101 2 min 0,000 mm 6,0 UV-I 850 W/m 19,9 C 31,6 C 6,4 km/h (2 Bft) 87,80 %
01.08.2017 12:40 31,6 C 26,1 C 51 % 1013,8 hPa 0,0 l/m 6,0 km/h (2 Bft) O-NO 57 2 min 0,000 mm 6,1 UV-I 851 W/m 20,2 C 31,6 C 8,0 km/h (2 Bft) 91,49 %
01.08.2017 12:42 31,7 C 26,1 C 49 % 1013,8 hPa 0,0 l/m 5,3 km/h (1 Bft) O-NO 63 2 min 0,000 mm 6,1 UV-I 851 W/m 19,6 C 31,7 C 9,7 km/h (2 Bft) 94,00 %
01.08.2017 12:44 31,7 C 26,1 C 47 % 1013,8 hPa 0,0 l/m 4,7 km/h (1 Bft) O-NO 67 2 min 0,000 mm 6,1 UV-I 853 W/m 19,0 C 31,7 C 8,0 km/h (2 Bft) 94,00 %
01.08.2017 12:46 31,6 C 26,1 C 47 % 1013,7 hPa 0,0 l/m 2,0 km/h (1 Bft) NO 37 2 min 0,000 mm 6,1 UV-I 854 W/m 18,9 C 31,6 C 6,4 km/h (2 Bft) 97,87 %
01.08.2017 12:48 31,6 C 26,1 C 48 % 1013,6 hPa 0,0 l/m 4,8 km/h (1 Bft) NO 38 2 min 0,000 mm 6,1 UV-I 854 W/m 19,2 C 31,6 C 6,4 km/h (2 Bft) 97,37 %
01.08.2017 12:50 31,8 C 26,1 C 50 % 1013,6 hPa 0,0 l/m 4,4 km/h (1 Bft) O-NO 69 2 min 0,000 mm 6,1 UV-I 857 W/m 20,1 C 31,8 C 6,4 km/h (2 Bft) 98,00 %
01.08.2017 12:52 31,9 C 26,1 C 48 % 1013,6 hPa 0,0 l/m 6,0 km/h (2 Bft) NO 45 2 min 0,000 mm 6,2 UV-I 858 W/m 19,5 C 31,9 C 8,0 km/h (2 Bft) 100,00 %
01.08.2017 12:54 32,0 C 26,1 C 46 % 1013,6 hPa 0,0 l/m 5,5 km/h (1 Bft) N-NO 26 2 min 0,000 mm 6,2 UV-I 856 W/m 18,9 C 32,0 C 12,9 km/h (3 Bft) 98,11 %
01.08.2017 12:56 32,0 C 26,1 C 46 % 1013,6 hPa 0,0 l/m 5,6 km/h (1 Bft) N-NO 23 2 min 0,000 mm 6,2 UV-I 856 W/m 18,9 C 32,0 C 11,3 km/h (2 Bft) 98,00 %
01.08.2017 12:58 32,0 C 26,1 C 47 % 1013,5 hPa 0,0 l/m 3,3 km/h (1 Bft) N-NO 29 2 min 0,000 mm 6,1 UV-I 854 W/m 19,2 C 32,0 C 6,4 km/h (2 Bft) 93,62 %
01.08.2017 13:00 32,1 C 26,1 C 50 % 1013,5 hPa 0,0 l/m 5,6 km/h (1 Bft) NO 55 2 min 0,000 mm 6,1 UV-I 854 W/m 20,3 C 32,1 C 9,7 km/h (2 Bft) 96,00 %
01.08.2017 13:02 32,1 C 26,1 C 47 % 1013,5 hPa 0,0 l/m 6,7 km/h (2 Bft) NO 43 2 min 0,610 mm 6,2 UV-I 855 W/m 19,3 C 32,1 C 9,7 km/h (2 Bft) 94,74 %
01.08.2017 13:04 32,1 C 26,1 C 48 % 1013,5 hPa 0,0 l/m 4,5 km/h (1 Bft) NO 36 2 min 0,000 mm 6,2 UV-I 857 W/m 19,7 C 32,1 C 8,0 km/h (2 Bft) 98,00 %
01.08.2017 13:06 32,2 C 26,1 C 47 % 1013,5 hPa 0,0 l/m 5,3 km/h (1 Bft) NO 42 2 min 0,000 mm 6,2 UV-I 856 W/m 19,4 C 32,2 C 11,3 km/h (2 Bft) 95,45 %
01.08.2017 13:08 32,2 C 26,1 C 46 % 1013,5 hPa 0,0 l/m 3,4 km/h (1 Bft) NO 36 2 min 0,000 mm 6,2 UV-I 857 W/m 19,1 C 32,2 C 9,7 km/h (2 Bft) 98,00 %
01.08.2017 13:10 32,4 C 26,1 C 46 % 1013,4 hPa 0,0 l/m 4,5 km/h (1 Bft) NO 34 2 min 0,000 mm 6,2 UV-I 856 W/m 19,3 C 32,4 C 8,0 km/h (2 Bft) 93,62 %
01.08.2017 13:12 32,5 C 26,1 C 46 % 1013,5 hPa 0,0 l/m 3,8 km/h (1 Bft) O-NO 59 2 min 0,000 mm 6,2 UV-I 855 W/m 19,4 C 32,5 C 8,0 km/h (2 Bft) 95,45 %
01.08.2017 13:14 32,7 C 26,1 C 48 % 1013,4 hPa 0,0 l/m 6,6 km/h (2 Bft) NO 42 2 min 0,000 mm 6,2 UV-I 856 W/m 20,2 C 32,7 C 11,3 km/h (2 Bft) 100,00 %
01.08.2017 13:16 32,7 C 26,1 C 41 % 1013,4 hPa 0,0 l/m 10,4 km/h (2 Bft) O-NO 76 2 min 0,000 mm 6,2 UV-I 854 W/m 17,7 C 32,7 C 14,5 km/h (3 Bft) 96,00 %
01.08.2017 13:18 32,6 C 26,1 C 40 % 1013,4 hPa 0,0 l/m 7,8 km/h (2 Bft) N 11 2 min 0,000 mm 6,2 UV-I 855 W/m 17,2 C 32,6 C 12,9 km/h (3 Bft) 92,68 %
01.08.2017 13:20 32,7 C 26,1 C 42 % 1013,3 hPa 0,0 l/m 5,3 km/h (1 Bft) N-NO 31 2 min 0,000 mm 6,2 UV-I 855 W/m 18,1 C 32,7 C 9,7 km/h (2 Bft) 97,44 %
01.08.2017 13:22 32,8 C 26,1 C 42 % 1013,3 hPa 0,0 l/m 6,8 km/h (2 Bft) NO 49 2 min 0,000 mm 6,2 UV-I 857 W/m 18,2 C 32,8 C 11,3 km/h (2 Bft) 98,28 %
01.08.2017 13:24 32,9 C 26,1 C 39 % 1013,2 hPa 0,0 l/m 6,2 km/h (2 Bft) NO 40 2 min 0,000 mm 6,2 UV-I 856 W/m 17,1 C 32,9 C 9,7 km/h (2 Bft) 100,00 %
01.08.2017 13:26 32,9 C 26,1 C 40 % 1013,2 hPa 0,0 l/m 3,6 km/h (1 Bft) NO 49 2 min 0,000 mm 6,2 UV-I 856 W/m 17,5 C 32,9 C 6,4 km/h (2 Bft) 92,86 %
01.08.2017 13:28 33,1 C 26,1 C 39 % 1013,2 hPa 0,0 l/m 2,5 km/h (1 Bft) NO 48 2 min 0,000 mm 6,2 UV-I 855 W/m 17,3 C 33,1 C 6,4 km/h (2 Bft) 100,00 %
01.08.2017 13:30 33,2 C 26,1 C 39 % 1013,2 hPa 0,0 l/m 5,6 km/h (1 Bft) N 10 2 min 0,000 mm 6,2 UV-I 856 W/m 17,3 C 33,2 C 9,7 km/h (2 Bft) 100,00 %
01.08.2017 13:32 33,1 C 26,1 C 41 % 1013,2 hPa 0,0 l/m 3,3 km/h (1 Bft) N-NO 22 2 min 0,000 mm 6,2 UV-I 856 W/m 18,0 C 33,1 C 8,0 km/h (2 Bft) 96,43 %
01.08.2017 13:34 33,2 C 26,1 C 41 % 1013,1 hPa 0,0 l/m 4,9 km/h (1 Bft) O 85 2 min 0,000 mm 6,2 UV-I 854 W/m 18,1 C 33,2 C 8,0 km/h (2 Bft) 96,00 %
01.08.2017 13:36 33,1 C 26,1 C 41 % 1013,1 hPa 0,0 l/m 4,8 km/h (1 Bft) NO 51 2 min 0,000 mm 6,1 UV-I 853 W/m 18,0 C 33,1 C 8,0 km/h (2 Bft) 100,00 %
01.08.2017 13:38 33,2 C 26,1 C 44 % 1013,1 hPa 0,0 l/m 4,8 km/h (1 Bft) NO 55 2 min 0,000 mm 6,1 UV-I 850 W/m 19,3 C 33,2 C 9,7 km/h (2 Bft) 98,00 %
01.08.2017 13:40 33,4 C 26,1 C 43 % 1013,1 hPa 0,0 l/m 6,9 km/h (2 Bft) NO 42 2 min 0,000 mm 6,1 UV-I 849 W/m 19,1 C 33,4 C 9,7 km/h (2 Bft) 92,11 %
01.08.2017 13:42 33,3 C 26,1 C 40 % 1013,1 hPa 0,0 l/m 6,2 km/h (2 Bft) NO 48 2 min 0,000 mm 6,1 UV-I 847 W/m 17,8 C 33,3 C 11,3 km/h (2 Bft) 95,74 %
01.08.2017 13:44 33,1 C 26,1 C 42 % 1013,1 hPa 0,0 l/m 4,9 km/h (1 Bft) NO 56 2 min 0,000 mm 6,1 UV-I 846 W/m 18,4 C 33,1 C 8,0 km/h (2 Bft) 98,00 %
01.08.2017 13:46 32,9 C 26,1 C 41 % 1013,1 hPa 0,0 l/m 1,7 km/h (1 Bft) N 5 2 min 0,000 mm 6,1 UV-I 846 W/m 17,9 C 32,9 C 3,2 km/h (1 Bft) 98,11 %
01.08.2017 13:48 32,9 C 26,1 C 42 % 1013,1 hPa 0,0 l/m 1,7 km/h (1 Bft) NW 325 2 min 0,000 mm 6,0 UV-I 843 W/m 18,3 C 32,9 C 3,2 km/h (1 Bft) 97,56 %
01.08.2017 13:50 33,1 C 26,1 C 46 % 1013,0 hPa 0,0 l/m 1,0 km/h (0 Bft) N-NW 331 2 min 0,000 mm 6,0 UV-I 839 W/m 19,9 C 33,1 C 4,8 km/h (1 Bft) 97,87 %
01.08.2017 13:52 33,2 C 26,1 C 40 % 1013,0 hPa 0,0 l/m 2,0 km/h (1 Bft) NW 320 2 min 0,000 mm 6,0 UV-I 843 W/m 17,7 C 33,2 C 4,8 km/h (1 Bft) 100,00 %
01.08.2017 13:54 33,3 C 26,1 C 39 % 1012,9 hPa 0,0 l/m 1,8 km/h (1 Bft) N 355 2 min 0,000 mm 6,0 UV-I 842 W/m 17,4 C 33,3 C 3,2 km/h (1 Bft) 100,00 %
01.08.2017 13:56 33,4 C 26,1 C 40 % 1013,0 hPa 0,0 l/m 2,0 km/h (1 Bft) N-NW 327 2 min 0,000 mm 6,0 UV-I 842 W/m 17,9 C 33,4 C 3,2 km/h (1 Bft) 97,87 %
01.08.2017 13:58 33,4 C 26,1 C 40 % 1012,9 hPa 0,0 l/m 3,4 km/h (1 Bft) N 9 2 min 0,000 mm 6,0 UV-I 838 W/m 17,9 C 33,4 C 6,4 km/h (2 Bft) 100,00 %
01.08.2017 14:00 33,4 C 26,1 C 41 % 1012,9 hPa 0,0 l/m 2,9 km/h (1 Bft) NW 310 2 min 0,000 mm 5,9 UV-I 834 W/m 18,3 C 33,4 C 4,8 km/h (1 Bft) 97,87 %
01.08.2017 14:02 33,4 C 26,1 C 40 % 1012,8 hPa 0,0 l/m 5,1 km/h (1 Bft) N-NO 17 2 min 0,635 mm 5,9 UV-I 832 W/m 17,9 C 33,4 C 9,7 km/h (2 Bft) 91,07 %
01.08.2017 14:04 33,6 C 26,1 C 43 % 1012,8 hPa 0,0 l/m 6,2 km/h (2 Bft) N-NO 15 2 min 0,000 mm 5,9 UV-I 830 W/m 19,3 C 33,6 C 9,7 km/h (2 Bft) 97,56 %
01.08.2017 14:06 33,6 C 26,7 C 40 % 1012,7 hPa 0,0 l/m 2,2 km/h (1 Bft) O-NO 60 2 min 0,000 mm 5,9 UV-I 828 W/m 18,1 C 33,6 C 6,4 km/h (2 Bft) 95,24 %
01.08.2017 14:08 33,7 C 26,7 C 43 % 1012,7 hPa 0,0 l/m 4,6 km/h (1 Bft) O-SO 117 2 min 0,000 mm 5,9 UV-I 831 W/m 19,3 C 33,7 C 9,7 km/h (2 Bft) 97,87 %
01.08.2017 14:10 33,7 C 26,7 C 39 % 1012,7 hPa 0,0 l/m 6,7 km/h (2 Bft) NO 35 2 min 0,000 mm 5,9 UV-I 834 W/m 17,8 C 33,7 C 12,9 km/h (3 Bft) 93,62 %
01.08.2017 14:12 33,8 C 26,7 C 45 % 1012,7 hPa 0,0 l/m 2,8 km/h (1 Bft) N-NO 24 2 min 0,000 mm 5,8 UV-I 829 W/m 20,2 C 33,8 C 9,7 km/h (2 Bft) 97,87 %
01.08.2017 14:14 33,9 C 26,7 C 41 % 1012,7 hPa 0,0 l/m 2,3 km/h (1 Bft) NW 308 2 min 0,000 mm 5,8 UV-I 828 W/m 18,8 C 33,9 C 6,4 km/h (2 Bft) 96,23 %
01.08.2017 14:16 33,9 C 26,7 C 39 % 1012,7 hPa 0,0 l/m 4,4 km/h (1 Bft) N-NO 32 2 min 0,000 mm 5,8 UV-I 824 W/m 18,0 C 33,9 C 9,7 km/h (2 Bft) 98,04 %
01.08.2017 14:18 33,8 C 26,7 C 39 % 1012,7 hPa 0,0 l/m 6,6 km/h (2 Bft) N-NO 31 2 min 0,000 mm 5,7 UV-I 822 W/m 17,9 C 33,8 C 9,7 km/h (2 Bft) 95,12 %
01.08.2017 14:20 33,9 C 26,7 C 39 % 1012,7 hPa 0,0 l/m 1,9 km/h (1 Bft) O-NO 69 2 min 0,000 mm 5,7 UV-I 820 W/m 18,0 C 33,9 C 6,4 km/h (2 Bft) 94,00 %
01.08.2017 14:22 33,9 C 26,7 C 39 % 1012,7 hPa 0,0 l/m 3,3 km/h (1 Bft) N-NO 18 2 min 0,000 mm 5,7 UV-I 817 W/m 18,0 C 33,9 C 8,0 km/h (2 Bft) 92,68 %
01.08.2017 14:24 33,9 C 26,7 C 37 % 1012,6 hPa 0,0 l/m 2,1 km/h (1 Bft) N-NW 346 2 min 0,000 mm 5,7 UV-I 815 W/m 17,1 C 33,9 C 6,4 km/h (2 Bft) 92,00 %
01.08.2017 14:26 34,0 C 26,7 C 40 % 1012,6 hPa 0,0 l/m 2,3 km/h (1 Bft) NO 35 2 min 0,000 mm 5,6 UV-I 812 W/m 18,5 C 34,0 C 6,4 km/h (2 Bft) 92,11 %
01.08.2017 14:28 34,2 C 26,7 C 38 % 1012,6 hPa 0,0 l/m 3,3 km/h (1 Bft) N 10 2 min 0,000 mm 5,6 UV-I 809 W/m 17,8 C 34,2 C 6,4 km/h (2 Bft) 94,00 %
01.08.2017 14:30 34,2 C 26,7 C 36 % 1012,6 hPa 0,0 l/m 6,6 km/h (2 Bft) N-NO 19 2 min 0,000 mm 5,5 UV-I 807 W/m 17,0 C 34,2 C 12,9 km/h (3 Bft) 95,45 %
01.08.2017 14:32 34,2 C 26,7 C 39 % 1012,6 hPa 0,0 l/m 0,8 km/h (0 Bft) N 5 2 min 0,000 mm 5,5 UV-I 803 W/m 18,2 C 34,2 C 1,6 km/h (1 Bft) 98,31 %
01.08.2017 14:34 34,3 C 26,7 C 36 % 1012,5 hPa 0,0 l/m 1,0 km/h (0 Bft) N-NO 16 2 min 0,000 mm 5,5 UV-I 803 W/m 17,0 C 34,3 C 3,2 km/h (1 Bft) 95,12 %
01.08.2017 14:36 34,4 C 26,7 C 38 % 1012,5 hPa 0,0 l/m 0,6 km/h (0 Bft) W-NW 282 2 min 0,000 mm 5,4 UV-I 798 W/m 18,0 C 34,4 C 1,6 km/h (1 Bft) 96,00 %
01.08.2017 14:38 34,3 C 26,7 C 34 % 1012,5 hPa 0,0 l/m 3,1 km/h (1 Bft) N 349 2 min 0,000 mm 5,4 UV-I 797 W/m 16,1 C 34,3 C 6,4 km/h (2 Bft) 97,87 %
01.08.2017 14:40 34,3 C 26,7 C 36 % 1012,5 hPa 0,0 l/m 8,2 km/h (2 Bft) N-NO 31 2 min 0,000 mm 5,4 UV-I 794 W/m 17,0 C 34,3 C 14,5 km/h (3 Bft) 94,00 %
01.08.2017 14:42 34,3 C 26,7 C 35 % 1012,5 hPa 0,0 l/m 7,6 km/h (2 Bft) NO 55 2 min 0,000 mm 5,3 UV-I 790 W/m 16,6 C 34,3 C 12,9 km/h (3 Bft) 97,56 %
01.08.2017 14:44 34,3 C 26,7 C 35 % 1012,4 hPa 0,0 l/m 6,8 km/h (2 Bft) O-NO 65 2 min 0,000 mm 5,3 UV-I 789 W/m 16,6 C 34,3 C 12,9 km/h (3 Bft) 96,00 %
01.08.2017 14:46 34,3 C 26,7 C 34 % 1012,5 hPa 0,0 l/m 7,9 km/h (2 Bft) O 79 2 min 0,000 mm 5,3 UV-I 788 W/m 16,1 C 34,3 C 12,9 km/h (3 Bft) 94,00 %
01.08.2017 14:48 34,3 C 26,7 C 34 % 1012,5 hPa 0,0 l/m 6,8 km/h (2 Bft) O-NO 66 2 min 0,000 mm 5,2 UV-I 786 W/m 16,1 C 34,3 C 11,3 km/h (2 Bft) 97,44 %
01.08.2017 14:50 34,1 C 26,7 C 31 % 1012,4 hPa 0,0 l/m 3,2 km/h (1 Bft) O-NO 66 2 min 0,000 mm 5,2 UV-I 780 W/m 14,5 C 34,1 C 6,4 km/h (2 Bft) 96,00 %
01.08.2017 14:52 34,0 C 26,7 C 33 % 1012,5 hPa 0,0 l/m 1,9 km/h (1 Bft) N-NW 327 2 min 0,000 mm 5,1 UV-I 775 W/m 15,4 C 34,0 C 3,2 km/h (1 Bft) 98,00 %
01.08.2017 14:54 34,2 C 26,7 C 39 % 1012,4 hPa 0,0 l/m 3,6 km/h (1 Bft) O-NO 57 2 min 0,000 mm 5,1 UV-I 769 W/m 18,2 C 34,2 C 9,7 km/h (2 Bft) 100,00 %
01.08.2017 14:56 34,3 C 26,7 C 33 % 1012,4 hPa 0,0 l/m 4,2 km/h (1 Bft) O-NO 71 2 min 0,000 mm 5,0 UV-I 769 W/m 15,7 C 34,3 C 6,4 km/h (2 Bft) 97,56 %
01.08.2017 14:58 34,3 C 26,7 C 33 % 1012,4 hPa 0,0 l/m 5,3 km/h (1 Bft) N-NO 26 2 min 0,000 mm 5,0 UV-I 766 W/m 15,7 C 34,3 C 14,5 km/h (3 Bft) 100,00 %
01.08.2017 15:00 34,4 C 26,7 C 34 % 1012,4 hPa 0,0 l/m 6,6 km/h (2 Bft) NO 46 2 min 0,609 mm 5,0 UV-I 763 W/m 16,2 C 34,4 C 11,3 km/h (2 Bft) 98,11 %
01.08.2017 15:02 34,4 C 26,7 C 33 % 1012,4 hPa 0,0 l/m 8,8 km/h (2 Bft) N-NO 14 2 min 0,000 mm 4,9 UV-I 760 W/m 15,8 C 34,4 C 14,5 km/h (3 Bft) 97,73 %
01.08.2017 15:04 34,3 C 26,7 C 33 % 1012,4 hPa 0,0 l/m 3,0 km/h (1 Bft) NO 34 2 min 0,000 mm 4,9 UV-I 758 W/m 15,7 C 34,3 C 8,0 km/h (2 Bft) 100,00 %
01.08.2017 15:06 34,2 C 26,7 C 33 % 1012,4 hPa 0,0 l/m 2,0 km/h (1 Bft) NO 34 2 min 0,000 mm 4,9 UV-I 755 W/m 15,6 C 34,2 C 6,4 km/h (2 Bft) 98,00 %
01.08.2017 15:08 34,2 C 26,7 C 36 % 1012,4 hPa 0,0 l/m 3,3 km/h (1 Bft) NO 34 2 min 0,000 mm 4,8 UV-I 751 W/m 17,0 C 34,2 C 6,4 km/h (2 Bft) 100,00 %
01.08.2017 15:10 34,2 C 26,7 C 31 % 1012,4 hPa 0,0 l/m 4,0 km/h (1 Bft) SO 134 2 min 0,000 mm 4,8 UV-I 746 W/m 14,6 C 34,2 C 6,4 km/h (2 Bft) 97,56 %
01.08.2017 15:12 34,2 C 26,7 C 37 % 1012,4 hPa 0,0 l/m 2,8 km/h (1 Bft) O-NO 74 2 min 0,000 mm 4,7 UV-I 744 W/m 17,4 C 34,2 C 6,4 km/h (2 Bft) 100,00 %
01.08.2017 15:14 34,3 C 26,7 C 32 % 1012,4 hPa 0,0 l/m 4,7 km/h (1 Bft) O 80 2 min 0,000 mm 4,7 UV-I 740 W/m 15,2 C 34,3 C 6,4 km/h (2 Bft) 97,87 %
01.08.2017 15:16 34,3 C 26,7 C 31 % 1012,3 hPa 0,0 l/m 6,3 km/h (2 Bft) NO 44 2 min 0,000 mm 4,7 UV-I 739 W/m 14,7 C 34,3 C 9,7 km/h (2 Bft) 96,00 %
01.08.2017 15:18 34,4 C 26,7 C 33 % 1012,3 hPa 0,0 l/m 6,9 km/h (2 Bft) N-NO 15 2 min 0,000 mm 4,6 UV-I 736 W/m 15,8 C 34,4 C 11,3 km/h (2 Bft) 97,37 %
01.08.2017 15:20 34,6 C 26,7 C 29 % 1012,3 hPa 0,0 l/m 5,4 km/h (1 Bft) NO 55 2 min 0,000 mm 4,6 UV-I 731 W/m 13,9 C 34,6 C 9,7 km/h (2 Bft) 96,00 %
01.08.2017 15:22 34,6 C 26,7 C 27 % 1012,3 hPa 0,0 l/m 0,9 km/h (0 Bft) O-NO 60 2 min 0,000 mm 4,5 UV-I 729 W/m 12,8 C 34,6 C 1,6 km/h (1 Bft) 100,00 %
01.08.2017 15:24 34,6 C 26,7 C 29 % 1012,3 hPa 0,0 l/m 1,2 km/h (1 Bft) O-NO 60 2 min 0,000 mm 4,5 UV-I 726 W/m 13,9 C 34,6 C 3,2 km/h (1 Bft) 97,87 %
01.08.2017 15:26 34,6 C 26,7 C 28 % 1012,2 hPa 0,0 l/m 0,5 km/h (0 Bft) O 99 2 min 0,000 mm 4,4 UV-I 721 W/m 13,4 C 34,6 C 1,6 km/h (1 Bft) 100,00 %
01.08.2017 15:28 34,6 C 26,7 C 30 % 1012,3 hPa 0,0 l/m 1,5 km/h (1 Bft) O 97 2 min 0,000 mm 4,4 UV-I 718 W/m 14,5 C 34,6 C 3,2 km/h (1 Bft) 97,87 %
01.08.2017 15:30 34,7 C 26,7 C 29 % 1012,3 hPa 0,0 l/m 3,0 km/h (1 Bft) O-NO 65 2 min 0,000 mm 4,3 UV-I 713 W/m 14,0 C 34,7 C 8,0 km/h (2 Bft) 98,21 %
01.08.2017 15:32 34,8 C 26,7 C 27 % 1012,2 hPa 0,0 l/m 5,5 km/h (1 Bft) O 90 2 min 0,000 mm 4,3 UV-I 709 W/m 13,0 C 34,8 C 8,0 km/h (2 Bft) 95,45 %
01.08.2017 15:34 34,7 C 26,7 C 28 % 1012,2 hPa 0,0 l/m 2,2 km/h (1 Bft) O-SO 123 2 min 0,000 mm 4,2 UV-I 707 W/m 13,5 C 34,7 C 4,8 km/h (1 Bft) 100,00 %
01.08.2017 15:36 34,7 C 26,7 C 29 % 1012,2 hPa 0,0 l/m 5,7 km/h (1 Bft) O 89 2 min 0,000 mm 4,2 UV-I 703 W/m 14,0 C 34,7 C 8,0 km/h (2 Bft) 97,37 %
01.08.2017 15:38 34,8 C 26,7 C 28 % 1012,2 hPa 0,0 l/m 6,0 km/h (2 Bft) O 83 2 min 0,000 mm 4,1 UV-I 700 W/m 13,6 C 34,8 C 11,3 km/h (2 Bft) 100,00 %
01.08.2017 15:40 34,7 C 26,7 C 28 % 1012,2 hPa 0,0 l/m 2,7 km/h (1 Bft) O-SO 103 2 min 0,000 mm 4,1 UV-I 696 W/m 13,5 C 34,7 C 9,7 km/h (2 Bft) 96,00 %
01.08.2017 15:42 34,6 C 27,2 C 28 % 1012,1 hPa 0,0 l/m 1,1 km/h (1 Bft) O-SO 106 2 min 0,000 mm 4,0 UV-I 691 W/m 13,4 C 34,6 C 3,2 km/h (1 Bft) 95,45 %
01.08.2017 15:44 34,6 C 27,2 C 31 % 1012,1 hPa 0,0 l/m 2,2 km/h (1 Bft) NO 50 2 min 0,000 mm 4,0 UV-I 688 W/m 15,0 C 34,6 C 6,4 km/h (2 Bft) 98,00 %
01.08.2017 15:46 34,7 C 27,2 C 28 % 1012,1 hPa 0,0 l/m 5,1 km/h (1 Bft) O 84 2 min 0,000 mm 4,0 UV-I 685 W/m 13,5 C 34,7 C 8,0 km/h (2 Bft) 94,00 %
01.08.2017 15:48 34,8 C 27,2 C 30 % 1012,1 hPa 0,0 l/m 4,6 km/h (1 Bft) N-NO 19 2 min 0,000 mm 3,9 UV-I 680 W/m 14,6 C 34,8 C 6,4 km/h (2 Bft) 96,00 %
01.08.2017 15:50 35,0 C 27,2 C 32 % 1012,1 hPa 0,0 l/m 5,4 km/h (1 Bft) NO 38 2 min 0,000 mm 3,9 UV-I 677 W/m 15,8 C 35,0 C 12,9 km/h (3 Bft) 97,87 %
01.08.2017 15:52 35,0 C 27,2 C 31 % 1012,0 hPa 0,0 l/m 5,8 km/h (2 Bft) NO 44 2 min 0,000 mm 3,8 UV-I 670 W/m 15,3 C 35,0 C 9,7 km/h (2 Bft) 94,74 %
01.08.2017 15:54 34,9 C 27,2 C 30 % 1012,0 hPa 0,0 l/m 3,2 km/h (1 Bft) O-NO 58 2 min 0,000 mm 3,8 UV-I 665 W/m 14,7 C 34,9 C 4,8 km/h (1 Bft) 97,73 %
01.08.2017 15:56 35,0 C 27,2 C 31 % 1012,0 hPa 0,0 l/m 3,1 km/h (1 Bft) N-NO 13 2 min 0,000 mm 3,7 UV-I 659 W/m 15,3 C 35,0 C 8,0 km/h (2 Bft) 96,23 %
01.08.2017 15:58 35,0 C 27,2 C 32 % 1012,0 hPa 0,0 l/m 2,1 km/h (1 Bft) N-NW 346 2 min 0,000 mm 3,6 UV-I 656 W/m 15,8 C 35,0 C 4,8 km/h (1 Bft) 94,74 %
01.08.2017 16:00 35,0 C 27,2 C 31 % 1012,0 hPa 0,0 l/m 7,4 km/h (2 Bft) NO 39 2 min 0,000 mm 3,6 UV-I 650 W/m 15,3 C 35,0 C 12,9 km/h (3 Bft) 96,23 %
01.08.2017 16:02 35,0 C 27,2 C 32 % 1012,0 hPa 0,0 l/m 5,9 km/h (2 Bft) N-NO 19 2 min 0,559 mm 3,6 UV-I 646 W/m 15,8 C 35,0 C 12,9 km/h (3 Bft) 97,87 %
01.08.2017 16:04 34,9 C 27,2 C 27 % 1012,0 hPa 0,0 l/m 5,1 km/h (1 Bft) O-NO 73 2 min 0,000 mm 3,5 UV-I 643 W/m 13,1 C 34,9 C 6,4 km/h (2 Bft) 93,75 %
01.08.2017 16:06 34,9 C 27,2 C 30 % 1012,0 hPa 0,0 l/m 6,5 km/h (2 Bft) NO 55 2 min 0,000 mm 3,4 UV-I 639 W/m 14,7 C 34,9 C 11,3 km/h (2 Bft) 96,15 %
01.08.2017 16:08 34,9 C 27,2 C 30 % 1012,0 hPa 0,0 l/m 6,4 km/h (2 Bft) NO 46 2 min 0,000 mm 3,4 UV-I 634 W/m 14,7 C 34,9 C 11,3 km/h (2 Bft) 100,00 %
01.08.2017 16:10 34,9 C 27,2 C 32 % 1012,0 hPa 0,0 l/m 6,8 km/h (2 Bft) N 5 2 min 0,000 mm 3,3 UV-I 627 W/m 15,7 C 34,9 C 12,9 km/h (3 Bft) 98,31 %
01.08.2017 16:12 34,9 C 27,2 C 31 % 1012,0 hPa 0,0 l/m 7,2 km/h (2 Bft) NO 35 2 min 0,000 mm 3,3 UV-I 622 W/m 15,2 C 34,9 C 14,5 km/h (3 Bft) 92,68 %
01.08.2017 16:14 34,8 C 27,2 C 32 % 1012,0 hPa 0,0 l/m 6,5 km/h (2 Bft) N-NO 24 2 min 0,000 mm 3,2 UV-I 618 W/m 15,6 C 34,8 C 11,3 km/h (2 Bft) 96,23 %
01.08.2017 16:16 34,9 C 27,2 C 31 % 1012,0 hPa 0,0 l/m 1,3 km/h (1 Bft) N-NO 15 2 min 0,000 mm 3,2 UV-I 615 W/m 15,2 C 34,9 C 6,4 km/h (2 Bft) 97,87 %
01.08.2017 16:18 35,0 C 27,2 C 32 % 1012,0 hPa 0,0 l/m 3,0 km/h (1 Bft) N 9 2 min 0,000 mm 3,1 UV-I 607 W/m 15,8 C 35,0 C 6,4 km/h (2 Bft) 95,12 %
01.08.2017 16:20 35,1 C 27,2 C 35 % 1012,0 hPa 0,0 l/m 7,0 km/h (2 Bft) N-NO 18 2 min 0,000 mm 3,1 UV-I 604 W/m 17,3 C 35,1 C 14,5 km/h (3 Bft) 98,00 %
01.08.2017 16:22 35,2 C 27,2 C 32 % 1012,0 hPa 0,0 l/m 2,2 km/h (1 Bft) NO 45 2 min 0,000 mm 3,0 UV-I 598 W/m 16,0 C 35,2 C 6,4 km/h (2 Bft) 91,49 %
01.08.2017 16:24 35,1 C 27,2 C 31 % 1012,0 hPa 0,0 l/m 2,3 km/h (1 Bft) NW 325 2 min 0,000 mm 3,0 UV-I 594 W/m 15,4 C 35,1 C 6,4 km/h (2 Bft) 92,11 %
01.08.2017 16:26 35,1 C 27,2 C 35 % 1011,9 hPa 0,0 l/m 4,8 km/h (1 Bft) N-NO 14 2 min 0,000 mm 3,0 UV-I 591 W/m 17,3 C 35,1 C 11,3 km/h (2 Bft) 96,00 %
01.08.2017 16:28 34,9 C 27,2 C 32 % 1011,9 hPa 0,0 l/m 3,0 km/h (1 Bft) N-NW 335 2 min 0,000 mm 2,9 UV-I 586 W/m 15,7 C 34,9 C 8,0 km/h (2 Bft) 97,87 %
01.08.2017 16:30 34,9 C 27,2 C 31 % 1012,0 hPa 0,0 l/m 2,7 km/h (1 Bft) N-NO 27 2 min 0,000 mm 2,9 UV-I 580 W/m 15,2 C 34,9 C 8,0 km/h (2 Bft) 88,68 %
01.08.2017 16:32 34,9 C 27,2 C 34 % 1011,9 hPa 0,0 l/m 8,3 km/h (2 Bft) N 355 2 min 0,000 mm 2,8 UV-I 575 W/m 16,7 C 34,9 C 16,1 km/h (3 Bft) 92,11 %
01.08.2017 16:34 34,9 C 27,2 C 31 % 1011,9 hPa 0,0 l/m 2,0 km/h (1 Bft) NW 309 2 min 0,000 mm 2,8 UV-I 570 W/m 15,2 C 34,9 C 6,4 km/h (2 Bft) 91,49 %
01.08.2017 16:36 35,0 C 27,2 C 32 % 1011,9 hPa 0,0 l/m 2,2 km/h (1 Bft) N-NW 344 2 min 0,000 mm 2,7 UV-I 566 W/m 15,8 C 35,0 C 4,8 km/h (1 Bft) 94,34 %
01.08.2017 16:38 35,0 C 27,2 C 31 % 1011,9 hPa 0,0 l/m 4,6 km/h (1 Bft) N-NO 12 2 min 0,000 mm 2,7 UV-I 562 W/m 15,3 C 35,0 C 12,9 km/h (3 Bft) 97,37 %
01.08.2017 16:40 35,0 C 27,2 C 33 % 1011,9 hPa 0,0 l/m 9,9 km/h (2 Bft) N-NO 20 2 min 0,000 mm 2,6 UV-I 555 W/m 16,3 C 35,0 C 16,1 km/h (3 Bft) 98,21 %
01.08.2017 16:42 34,9 C 27,2 C 32 % 1011,9 hPa 0,0 l/m 8,4 km/h (2 Bft) N-NO 22 2 min 0,000 mm 2,6 UV-I 551 W/m 15,7 C 34,9 C 14,5 km/h (3 Bft) 92,59 %
01.08.2017 16:44 34,9 C 27,2 C 31 % 1011,9 hPa 0,0 l/m 6,4 km/h (2 Bft) N-NO 15 2 min 0,000 mm 2,5 UV-I 544 W/m 15,2 C 34,9 C 12,9 km/h (3 Bft) 98,36 %
01.08.2017 16:46 34,8 C 27,2 C 32 % 1011,9 hPa 0,0 l/m 6,3 km/h (2 Bft) N-NO 23 2 min 0,000 mm 2,5 UV-I 539 W/m 15,6 C 34,8 C 12,9 km/h (3 Bft) 100,00 %
01.08.2017 16:48 34,8 C 27,2 C 30 % 1011,8 hPa 0,0 l/m 5,1 km/h (1 Bft) N-NO 22 2 min 0,000 mm 2,4 UV-I 535 W/m 14,6 C 34,8 C 8,0 km/h (2 Bft) 94,34 %
01.08.2017 16:50 34,8 C 27,2 C 32 % 1011,8 hPa 0,0 l/m 7,7 km/h (2 Bft) N-NO 30 2 min 0,000 mm 2,4 UV-I 531 W/m 15,6 C 34,8 C 12,9 km/h (3 Bft) 93,62 %
01.08.2017 16:52 34,8 C 27,2 C 31 % 1011,8 hPa 0,0 l/m 2,6 km/h (1 Bft) N-NO 33 2 min 0,000 mm 2,3 UV-I 525 W/m 15,1 C 34,8 C 6,4 km/h (2 Bft) 95,74 %
01.08.2017 16:54 34,9 C 27,2 C 32 % 1011,7 hPa 0,0 l/m 4,5 km/h (1 Bft) N-NW 339 2 min 0,000 mm 2,3 UV-I 519 W/m 15,7 C 34,9 C 6,4 km/h (2 Bft) 96,00 %
01.08.2017 16:56 34,9 C 27,2 C 35 % 1011,6 hPa 0,0 l/m 11,0 km/h (2 Bft) O-NO 57 2 min 0,000 mm 2,3 UV-I 516 W/m 17,1 C 34,9 C 17,7 km/h (3 Bft) 100,00 %
01.08.2017 16:58 34,8 C 27,2 C 31 % 1011,6 hPa 0,0 l/m 10,1 km/h (2 Bft) N-NO 31 2 min 0,000 mm 2,2 UV-I 511 W/m 15,1 C 34,8 C 16,1 km/h (3 Bft) 98,00 %
01.08.2017 17:00 34,8 C 27,2 C 31 % 1011,6 hPa 0,0 l/m 7,8 km/h (2 Bft) N-NO 32 2 min 0,483 mm 2,2 UV-I 503 W/m 15,1 C 34,8 C 9,7 km/h (2 Bft) 97,56 %
01.08.2017 17:02 34,9 C 27,2 C 30 % 1011,6 hPa 0,0 l/m 5,9 km/h (2 Bft) NO 35 2 min 0,000 mm 2,1 UV-I 496 W/m 14,7 C 34,9 C 9,7 km/h (2 Bft) 98,11 %
01.08.2017 17:04 34,9 C 27,2 C 33 % 1011,5 hPa 0,0 l/m 5,1 km/h (1 Bft) N-NO 13 2 min 0,000 mm 2,1 UV-I 493 W/m 16,2 C 34,9 C 11,3 km/h (2 Bft) 97,87 %
01.08.2017 17:06 34,9 C 27,2 C 33 % 1011,5 hPa 0,0 l/m 5,9 km/h (2 Bft) N-NO 30 2 min 0,000 mm 2,0 UV-I 486 W/m 16,2 C 34,9 C 9,7 km/h (2 Bft) 100,00 %
01.08.2017 17:08 34,9 C 27,2 C 35 % 1011,5 hPa 0,0 l/m 6,4 km/h (2 Bft) NO 39 2 min 0,000 mm 2,0 UV-I 480 W/m 17,1 C 34,9 C 11,3 km/h (2 Bft) 100,00 %
01.08.2017 17:10 35,0 C 27,2 C 30 % 1011,5 hPa 0,0 l/m 6,8 km/h (2 Bft) O 83 2 min 0,000 mm 2,0 UV-I 476 W/m 14,8 C 35,0 C 14,5 km/h (3 Bft) 95,83 %
01.08.2017 17:12 35,0 C 27,2 C 30 % 1011,4 hPa 0,0 l/m 7,5 km/h (2 Bft) N 9 2 min 0,000 mm 1,9 UV-I 471 W/m 14,8 C 35,0 C 11,3 km/h (2 Bft) 96,72 %
01.08.2017 17:14 35,1 C 27,2 C 34 % 1011,4 hPa 0,0 l/m 8,3 km/h (2 Bft) NO 49 2 min 0,000 mm 1,9 UV-I 465 W/m 16,8 C 35,1 C 11,3 km/h (2 Bft) 98,11 %
01.08.2017 17:16 34,9 C 27,2 C 31 % 1011,4 hPa 0,0 l/m 7,5 km/h (2 Bft) N-NO 23 2 min 0,000 mm 1,8 UV-I 461 W/m 15,2 C 34,9 C 9,7 km/h (2 Bft) 95,12 %
01.08.2017 17:18 34,8 C 27,2 C 34 % 1011,3 hPa 0,0 l/m 8,0 km/h (2 Bft) NO 44 2 min 0,000 mm 1,8 UV-I 454 W/m 16,6 C 34,8 C 12,9 km/h (3 Bft) 92,00 %
01.08.2017 17:20 34,7 C 27,2 C 35 % 1011,3 hPa 0,0 l/m 7,5 km/h (2 Bft) N-NO 30 2 min 0,000 mm 1,7 UV-I 449 W/m 16,9 C 34,7 C 12,9 km/h (3 Bft) 95,74 %
01.08.2017 17:22 34,7 C 27,2 C 31 % 1011,2 hPa 0,0 l/m 8,6 km/h (2 Bft) O-NO 67 2 min 0,000 mm 1,7 UV-I 442 W/m 15,0 C 34,7 C 17,7 km/h (3 Bft) 96,00 %
01.08.2017 17:24 34,8 C 27,2 C 33 % 1011,2 hPa 0,0 l/m 9,3 km/h (2 Bft) NO 45 2 min 0,000 mm 1,7 UV-I 438 W/m 16,1 C 34,8 C 14,5 km/h (3 Bft) 92,86 %
01.08.2017 17:26 34,8 C 27,2 C 33 % 1011,2 hPa 0,0 l/m 9,2 km/h (2 Bft) NO 36 2 min 0,000 mm 1,6 UV-I 433 W/m 16,1 C 34,8 C 16,1 km/h (3 Bft) 92,00 %
01.08.2017 17:28 34,8 C 27,2 C 33 % 1011,2 hPa 0,0 l/m 8,4 km/h (2 Bft) NO 40 2 min 0,000 mm 1,6 UV-I 429 W/m 16,1 C 34,8 C 11,3 km/h (2 Bft) 94,74 %
01.08.2017 17:30 34,8 C 27,2 C 30 % 1011,1 hPa 0,0 l/m 11,5 km/h (2 Bft) NO 53 2 min 0,000 mm 1,6 UV-I 423 W/m 14,6 C 34,8 C 17,7 km/h (3 Bft) 96,23 %
01.08.2017 17:32 34,8 C 27,2 C 31 % 1011,1 hPa 0,0 l/m 14,5 km/h (3 Bft) NO 52 2 min 0,000 mm 1,5 UV-I 416 W/m 15,1 C 34,8 C 19,3 km/h (3 Bft) 96,00 %
01.08.2017 17:34 34,7 C 27,2 C 31 % 1011,1 hPa 0,0 l/m 11,6 km/h (2 Bft) NO 40 2 min 0,000 mm 1,5 UV-I 411 W/m 15,0 C 34,7 C 17,7 km/h (3 Bft) 97,37 %
01.08.2017 17:36 34,7 C 27,2 C 30 % 1011,1 hPa 0,0 l/m 10,0 km/h (2 Bft) NO 34 2 min 0,000 mm 1,5 UV-I 406 W/m 14,5 C 34,7 C 16,1 km/h (3 Bft) 96,61 %
01.08.2017 17:38 34,7 C 27,2 C 32 % 1011,0 hPa 0,0 l/m 7,9 km/h (2 Bft) NO 36 2 min 0,000 mm 1,4 UV-I 398 W/m 15,5 C 34,7 C 12,9 km/h (3 Bft) 94,74 %
01.08.2017 17:40 34,7 C 27,2 C 31 % 1011,0 hPa 0,0 l/m 9,5 km/h (2 Bft) NO 40 2 min 0,000 mm 1,4 UV-I 392 W/m 15,0 C 34,7 C 16,1 km/h (3 Bft) 92,00 %
01.08.2017 17:42 34,7 C 27,2 C 29 % 1011,0 hPa 0,0 l/m 11,2 km/h (2 Bft) NO 42 2 min 0,000 mm 1,4 UV-I 386 W/m 14,0 C 34,7 C 16,1 km/h (3 Bft) 95,45 %
01.08.2017 17:44 34,6 C 27,2 C 30 % 1010,9 hPa 0,0 l/m 11,4 km/h (2 Bft) NO 34 2 min 0,000 mm 1,3 UV-I 380 W/m 14,5 C 34,6 C 16,1 km/h (3 Bft) 96,55 %
01.08.2017 17:46 34,7 C 27,2 C 31 % 1010,9 hPa 0,0 l/m 10,0 km/h (2 Bft) N-NO 30 2 min 0,000 mm 1,3 UV-I 374 W/m 15,0 C 34,7 C 14,5 km/h (3 Bft) 98,46 %
01.08.2017 17:48 34,6 C 27,2 C 33 % 1010,9 hPa 0,0 l/m 9,9 km/h (2 Bft) N-NO 23 2 min 0,000 mm 1,3 UV-I 367 W/m 15,9 C 34,6 C 14,5 km/h (3 Bft) 96,23 %
01.08.2017 17:50 34,4 C 27,2 C 33 % 1010,9 hPa 0,0 l/m 7,8 km/h (2 Bft) NO 40 2 min 0,000 mm 1,2 UV-I 361 W/m 15,8 C 34,4 C 14,5 km/h (3 Bft) 100,00 %
01.08.2017 17:52 34,4 C 27,2 C 33 % 1010,9 hPa 0,0 l/m 5,3 km/h (1 Bft) N 9 2 min 0,000 mm 1,2 UV-I 355 W/m 15,8 C 34,4 C 9,7 km/h (2 Bft) 100,00 %
01.08.2017 17:54 34,4 C 27,2 C 34 % 1010,9 hPa 0,0 l/m 6,3 km/h (2 Bft) N-NO 24 2 min 0,000 mm 1,2 UV-I 350 W/m 16,2 C 34,4 C 11,3 km/h (2 Bft) 100,00 %
01.08.2017 17:56 34,5 C 27,2 C 34 % 1010,8 hPa 0,0 l/m 6,8 km/h (2 Bft) N-NO 28 2 min 0,000 mm 1,1 UV-I 343 W/m 16,3 C 34,5 C 11,3 km/h (2 Bft) 100,00 %
01.08.2017 17:58 34,5 C 27,2 C 34 % 1010,9 hPa 0,0 l/m 8,1 km/h (2 Bft) NO 48 2 min 0,000 mm 1,1 UV-I 338 W/m 16,3 C 34,5 C 14,5 km/h (3 Bft) 96,00 %
01.08.2017 18:00 34,5 C 27,2 C 33 % 1010,9 hPa 0,0 l/m 9,6 km/h (2 Bft) N-NO 32 2 min 0,000 mm 1,1 UV-I 332 W/m 15,8 C 34,5 C 16,1 km/h (3 Bft) 95,45 %
01.08.2017 18:02 34,6 C 27,2 C 34 % 1010,8 hPa 0,0 l/m 10,0 km/h (2 Bft) O-NO 57 2 min 0,406 mm 1,0 UV-I 327 W/m 16,4 C 34,6 C 14,5 km/h (3 Bft) 97,92 %
01.08.2017 18:04 34,4 C 27,2 C 34 % 1010,8 hPa 0,0 l/m 9,2 km/h (2 Bft) O-NO 58 2 min 0,000 mm 1,0 UV-I 321 W/m 16,2 C 34,4 C 12,9 km/h (3 Bft) 97,87 %
01.08.2017 18:06 34,2 C 27,2 C 37 % 1010,8 hPa 0,0 l/m 7,5 km/h (2 Bft) O-NO 60 2 min 0,000 mm 1,0 UV-I 315 W/m 17,4 C 34,2 C 12,9 km/h (3 Bft) 98,00 %
01.08.2017 18:08 34,2 C 27,2 C 34 % 1010,8 hPa 0,0 l/m 8,8 km/h (2 Bft) N-NO 27 2 min 0,000 mm 0,9 UV-I 310 W/m 16,1 C 34,2 C 16,1 km/h (3 Bft) 96,55 %
01.08.2017 18:10 34,2 C 27,2 C 34 % 1010,8 hPa 0,0 l/m 12,0 km/h (2 Bft) NO 43 2 min 0,000 mm 0,9 UV-I 305 W/m 16,1 C 34,2 C 17,7 km/h (3 Bft) 98,11 %
01.08.2017 18:12 34,2 C 27,2 C 36 % 1010,8 hPa 0,0 l/m 8,2 km/h (2 Bft) NO 44 2 min 0,000 mm 0,9 UV-I 299 W/m 17,0 C 34,2 C 12,9 km/h (3 Bft) 96,43 %
01.08.2017 18:14 34,1 C 27,2 C 36 % 1010,7 hPa 0,0 l/m 9,8 km/h (2 Bft) NO 35 2 min 0,000 mm 0,8 UV-I 294 W/m 16,9 C 34,1 C 16,1 km/h (3 Bft) 96,00 %
01.08.2017 18:16 33,9 C 27,2 C 35 % 1010,7 hPa 0,0 l/m 12,6 km/h (3 Bft) NO 46 2 min 0,000 mm 0,8 UV-I 289 W/m 16,2 C 33,9 C 16,1 km/h (3 Bft) 95,74 %
01.08.2017 18:18 34,0 C 27,2 C 36 % 1010,7 hPa 0,0 l/m 8,2 km/h (2 Bft) O-NO 67 2 min 0,000 mm 0,8 UV-I 282 W/m 16,8 C 34,0 C 14,5 km/h (3 Bft) 95,74 %
01.08.2017 18:20 34,0 C 27,2 C 37 % 1010,6 hPa 0,0 l/m 10,5 km/h (2 Bft) N-NO 32 2 min 0,000 mm 0,8 UV-I 274 W/m 17,2 C 34,0 C 17,7 km/h (3 Bft) 97,56 %
01.08.2017 18:22 34,1 C 27,2 C 35 % 1010,6 hPa 0,0 l/m 9,1 km/h (2 Bft) NO 46 2 min 0,000 mm 0,7 UV-I 270 W/m 16,4 C 34,1 C 16,1 km/h (3 Bft) 96,23 %
01.08.2017 18:24 34,0 C 27,2 C 38 % 1010,6 hPa 0,0 l/m 9,1 km/h (2 Bft) NO 36 2 min 0,000 mm 0,7 UV-I 263 W/m 17,6 C 34,0 C 14,5 km/h (3 Bft) 97,56 %
01.08.2017 18:26 34,0 C 27,2 C 37 % 1010,6 hPa 0,0 l/m 10,4 km/h (2 Bft) O-NO 64 2 min 0,000 mm 0,7 UV-I 256 W/m 17,2 C 34,0 C 17,7 km/h (3 Bft) 96,00 %
01.08.2017 18:28 34,0 C 27,2 C 38 % 1010,7 hPa 0,0 l/m 9,1 km/h (2 Bft) NO 38 2 min 0,000 mm 0,7 UV-I 249 W/m 17,6 C 34,0 C 14,5 km/h (3 Bft) 96,00 %
01.08.2017 18:30 33,9 C 27,2 C 38 % 1010,7 hPa 0,0 l/m 8,2 km/h (2 Bft) NO 53 2 min 0,000 mm 0,6 UV-I 245 W/m 17,5 C 33,9 C 14,5 km/h (3 Bft) 93,62 %
01.08.2017 18:32 33,8 C 27,2 C 38 % 1010,6 hPa 0,0 l/m 9,3 km/h (2 Bft) N-NO 15 2 min 0,000 mm 0,6 UV-I 239 W/m 17,5 C 33,8 C 12,9 km/h (3 Bft) 94,29 %
01.08.2017 18:34 33,8 C 27,2 C 37 % 1010,6 hPa 0,0 l/m 10,9 km/h (2 Bft) NO 46 2 min 0,000 mm 0,6 UV-I 233 W/m 17,0 C 33,8 C 17,7 km/h (3 Bft) 96,23 %
01.08.2017 18:36 33,7 C 27,2 C 38 % 1010,6 hPa 0,0 l/m 14,2 km/h (3 Bft) NO 40 2 min 0,000 mm 0,6 UV-I 229 W/m 17,4 C 33,7 C 19,3 km/h (3 Bft) 96,00 %
01.08.2017 18:38 33,6 C 27,2 C 39 % 1010,5 hPa 0,0 l/m 8,9 km/h (2 Bft) NO 36 2 min 0,000 mm 0,5 UV-I 223 W/m 17,7 C 33,6 C 14,5 km/h (3 Bft) 97,22 %
01.08.2017 18:40 33,5 C 27,2 C 40 % 1010,5 hPa 0,0 l/m 8,2 km/h (2 Bft) NO 42 2 min 0,000 mm 0,5 UV-I 218 W/m 18,0 C 33,5 C 14,5 km/h (3 Bft) 94,55 %
01.08.2017 18:42 33,4 C 27,2 C 38 % 1010,5 hPa 0,0 l/m 6,5 km/h (2 Bft) N-NO 15 2 min 0,000 mm 0,5 UV-I 213 W/m 17,1 C 33,4 C 9,7 km/h (2 Bft) 94,87 %
01.08.2017 18:44 33,4 C 27,2 C 40 % 1010,5 hPa 0,0 l/m 6,5 km/h (2 Bft) N-NO 25 2 min 0,000 mm 0,5 UV-I 207 W/m 17,9 C 33,4 C 9,7 km/h (2 Bft) 96,00 %
01.08.2017 18:46 33,3 C 27,2 C 39 % 1010,5 hPa 0,0 l/m 8,2 km/h (2 Bft) NO 49 2 min 0,000 mm 0,5 UV-I 202 W/m 17,4 C 33,3 C 14,5 km/h (3 Bft) 96,55 %
01.08.2017 18:48 33,3 C 27,2 C 39 % 1010,5 hPa 0,0 l/m 6,1 km/h (2 Bft) N-NO 22 2 min 0,000 mm 0,2 UV-I 196 W/m 17,4 C 33,3 C 11,3 km/h (2 Bft) 98,65 %
01.08.2017 18:50 33,3 C 27,2 C 39 % 1010,5 hPa 0,0 l/m 7,4 km/h (2 Bft) N-NO 28 2 min 0,000 mm 0,0 UV-I 192 W/m 17,4 C 33,3 C 12,9 km/h (3 Bft) 94,74 %
01.08.2017 18:52 33,3 C 27,2 C 39 % 1010,5 hPa 0,0 l/m 6,3 km/h (2 Bft) NO 44 2 min 0,000 mm 0,0 UV-I 187 W/m 17,4 C 33,3 C 9,7 km/h (2 Bft) 96,00 %
01.08.2017 18:54 33,2 C 27,2 C 39 % 1010,5 hPa 0,0 l/m 6,0 km/h (2 Bft) NO 39 2 min 0,000 mm 0,0 UV-I 181 W/m 17,3 C 33,2 C 9,7 km/h (2 Bft) 96,23 %
01.08.2017 18:56 33,1 C 27,2 C 39 % 1010,5 hPa 0,0 l/m 6,7 km/h (2 Bft) NO 35 2 min 0,000 mm 0,0 UV-I 177 W/m 17,3 C 33,1 C 11,3 km/h (2 Bft) 100,00 %
01.08.2017 18:58 33,0 C 27,2 C 39 % 1010,5 hPa 0,0 l/m 7,4 km/h (2 Bft) NO 35 2 min 0,000 mm 0,0 UV-I 171 W/m 17,2 C 33,0 C 11,3 km/h (2 Bft) 98,11 %
01.08.2017 19:00 33,0 C 27,2 C 39 % 1010,4 hPa 0,0 l/m 7,1 km/h (2 Bft) NO 44 2 min 0,000 mm 0,0 UV-I 167 W/m 17,2 C 33,0 C 11,3 km/h (2 Bft) 95,00 %
01.08.2017 19:02 32,9 C 27,2 C 39 % 1010,5 hPa 0,0 l/m 6,5 km/h (2 Bft) NO 46 2 min 0,280 mm 0,0 UV-I 162 W/m 17,1 C 32,9 C 11,3 km/h (2 Bft) 96,00 %
01.08.2017 19:04 32,9 C 27,2 C 38 % 1010,5 hPa 0,0 l/m 7,0 km/h (2 Bft) N-NO 21 2 min 0,000 mm 0,0 UV-I 157 W/m 16,7 C 32,9 C 11,3 km/h (2 Bft) 100,00 %
01.08.2017 19:06 32,8 C 27,2 C 39 % 1010,5 hPa 0,0 l/m 8,7 km/h (2 Bft) N-NO 30 2 min 0,000 mm 0,0 UV-I 152 W/m 17,0 C 32,8 C 14,5 km/h (3 Bft) 98,11 %
01.08.2017 19:08 32,8 C 27,2 C 38 % 1010,5 hPa 0,0 l/m 6,3 km/h (2 Bft) N-NO 24 2 min 0,000 mm 0,0 UV-I 147 W/m 16,6 C 32,8 C 9,7 km/h (2 Bft) 94,74 %
01.08.2017 19:10 32,8 C 27,2 C 38 % 1010,5 hPa 0,0 l/m 6,1 km/h (2 Bft) NO 49 2 min 0,000 mm 0,0 UV-I 142 W/m 16,6 C 32,8 C 8,0 km/h (2 Bft) 96,36 %
01.08.2017 19:12 32,7 C 27,2 C 38 % 1010,5 hPa 0,0 l/m 5,2 km/h (1 Bft) NO 40 2 min 0,000 mm 0,0 UV-I 136 W/m 16,5 C 32,7 C 9,7 km/h (2 Bft) 95,74 %
01.08.2017 19:14 32,7 C 27,2 C 38 % 1010,5 hPa 0,0 l/m 6,8 km/h (2 Bft) N-NO 31 2 min 0,000 mm 0,0 UV-I 132 W/m 16,5 C 32,7 C 9,7 km/h (2 Bft) 97,37 %
01.08.2017 19:16 32,6 C 27,2 C 39 % 1010,4 hPa 0,0 l/m 7,3 km/h (2 Bft) O-NO 61 2 min 0,000 mm 0,0 UV-I 127 W/m 16,8 C 32,6 C 11,3 km/h (2 Bft) 95,74 %
01.08.2017 19:18 32,4 C 27,2 C 40 % 1010,4 hPa 0,0 l/m 6,6 km/h (2 Bft) NO 51 2 min 0,000 mm 0,0 UV-I 123 W/m 17,0 C 32,4 C 9,7 km/h (2 Bft) 94,34 %
01.08.2017 19:20 32,3 C 27,2 C 40 % 1010,4 hPa 0,0 l/m 6,8 km/h (2 Bft) NO 41 2 min 0,000 mm 0,0 UV-I 119 W/m 16,9 C 32,3 C 9,7 km/h (2 Bft) 96,36 %
01.08.2017 19:22 32,3 C 27,2 C 40 % 1010,4 hPa 0,0 l/m 6,4 km/h (2 Bft) NO 39 2 min 0,000 mm 0,0 UV-I 115 W/m 16,9 C 32,3 C 9,7 km/h (2 Bft) 95,65 %
01.08.2017 19:24 32,2 C 27,2 C 40 % 1010,4 hPa 0,0 l/m 6,7 km/h (2 Bft) N 355 2 min 0,000 mm 0,0 UV-I 110 W/m 16,9 C 32,2 C 11,3 km/h (2 Bft) 95,45 %
01.08.2017 19:26 32,2 C 27,2 C 40 % 1010,4 hPa 0,0 l/m 4,9 km/h (1 Bft) NO 51 2 min 0,000 mm 0,0 UV-I 105 W/m 16,9 C 32,2 C 8,0 km/h (2 Bft) 97,56 %
01.08.2017 19:28 32,1 C 27,2 C 42 % 1010,4 hPa 0,0 l/m 6,7 km/h (2 Bft) NO 36 2 min 0,000 mm 0,0 UV-I 101 W/m 17,5 C 32,1 C 9,7 km/h (2 Bft) 96,15 %
01.08.2017 19:30 32,1 C 27,2 C 41 % 1010,4 hPa 0,0 l/m 5,7 km/h (1 Bft) NO 42 2 min 0,000 mm 0,0 UV-I 97 W/m 17,2 C 32,1 C 8,0 km/h (2 Bft) 95,74 %
01.08.2017 19:32 32,0 C 27,2 C 40 % 1010,3 hPa 0,0 l/m 4,7 km/h (1 Bft) NO 40 2 min 0,000 mm 0,0 UV-I 93 W/m 16,7 C 32,0 C 6,4 km/h (2 Bft) 100,00 %
01.08.2017 19:34 31,9 C 27,2 C 41 % 1010,3 hPa 0,0 l/m 4,6 km/h (1 Bft) NO 41 2 min 0,000 mm 0,0 UV-I 90 W/m 17,0 C 31,9 C 6,4 km/h (2 Bft) 100,00 %
01.08.2017 19:36 31,8 C 27,2 C 42 % 1010,2 hPa 0,0 l/m 5,6 km/h (1 Bft) NO 55 2 min 0,000 mm 0,0 UV-I 86 W/m 17,3 C 31,8 C 9,7 km/h (2 Bft) 100,00 %
01.08.2017 19:38 31,7 C 27,2 C 42 % 1010,2 hPa 0,0 l/m 5,6 km/h (1 Bft) N-NO 32 2 min 0,000 mm 0,0 UV-I 82 W/m 17,2 C 31,7 C 8,0 km/h (2 Bft) 98,11 %
01.08.2017 19:40 31,6 C 27,2 C 42 % 1010,2 hPa 0,0 l/m 5,6 km/h (1 Bft) NO 44 2 min 0,000 mm 0,0 UV-I 79 W/m 17,1 C 31,6 C 6,4 km/h (2 Bft) 100,00 %
01.08.2017 19:42 31,6 C 27,2 C 42 % 1010,1 hPa 0,0 l/m 6,1 km/h (2 Bft) NO 53 2 min 0,000 mm 0,0 UV-I 76 W/m 17,1 C 31,6 C 9,7 km/h (2 Bft) 97,87 %
01.08.2017 19:44 31,5 C 27,2 C 43 % 1010,0 hPa 0,0 l/m 5,2 km/h (1 Bft) NO 55 2 min 0,000 mm 0,0 UV-I 73 W/m 17,4 C 31,5 C 6,4 km/h (2 Bft) 98,00 %
01.08.2017 19:46 31,4 C 27,2 C 43 % 1010,0 hPa 0,0 l/m 4,9 km/h (1 Bft) O-NO 66 0 min 0,000 mm 0,0 UV-I 65 W/m 17,3 C 31,4 C 8,0 km/h (2 Bft) 100,00 %
01.08.2017 19:48 31,4 C 27,2 C 43 % 1010,0 hPa 0,0 l/m 5,1 km/h (1 Bft) O-NO 67 0 min 0,000 mm 0,0 UV-I 56 W/m 17,3 C 31,4 C 6,4 km/h (2 Bft) 100,00 %
01.08.2017 19:50 31,3 C 27,2 C 44 % 1010,0 hPa 0,0 l/m 4,2 km/h (1 Bft) NO 49 0 min 0,000 mm 0,0 UV-I 55 W/m 17,6 C 31,3 C 8,0 km/h (2 Bft) 96,00 %
01.08.2017 19:52 31,2 C 27,2 C 44 % 1010,0 hPa 0,0 l/m 4,6 km/h (1 Bft) O-NO 63 0 min 0,000 mm 0,0 UV-I 55 W/m 17,5 C 31,2 C 8,0 km/h (2 Bft) 100,00 %
01.08.2017 19:54 31,0 C 27,2 C 45 % 1010,0 hPa 0,0 l/m 4,5 km/h (1 Bft) O-NO 63 0 min 0,000 mm 0,0 UV-I 53 W/m 17,6 C 31,0 C 8,0 km/h (2 Bft) 97,56 %
01.08.2017 19:56 30,9 C 27,2 C 45 % 1010,0 hPa 0,0 l/m 4,5 km/h (1 Bft) O-NO 63 0 min 0,000 mm 0,0 UV-I 50 W/m 17,6 C 30,9 C 4,8 km/h (1 Bft) 98,00 %
01.08.2017 19:58 30,8 C 27,2 C 45 % 1010,0 hPa 0,0 l/m 4,1 km/h (1 Bft) NO 46 0 min 0,000 mm 0,0 UV-I 47 W/m 17,5 C 30,8 C 6,4 km/h (2 Bft) 97,87 %
01.08.2017 20:00 30,7 C 27,2 C 47 % 1010,0 hPa 0,0 l/m 4,0 km/h (1 Bft) O-NO 63 0 min 0,127 mm 0,0 UV-I 44 W/m 18,1 C 30,7 C 6,4 km/h (2 Bft) 100,00 %
01.08.2017 20:02 30,5 C 27,2 C 46 % 1010,0 hPa 0,0 l/m 3,9 km/h (1 Bft) O-NO 69 0 min 0,000 mm 0,0 UV-I 35 W/m 17,5 C 30,5 C 6,4 km/h (2 Bft) 95,83 %
01.08.2017 20:04 30,3 C 27,2 C 48 % 1010,0 hPa 0,0 l/m 4,4 km/h (1 Bft) O-NO 65 0 min 0,000 mm 0,0 UV-I 28 W/m 18,0 C 30,3 C 6,4 km/h (2 Bft) 97,56 %
01.08.2017 20:06 30,2 C 27,2 C 47 % 1009,9 hPa 0,0 l/m 5,6 km/h (1 Bft) O-NO 76 0 min 0,000 mm 0,0 UV-I 24 W/m 17,6 C 30,2 C 8,0 km/h (2 Bft) 98,11 %
01.08.2017 20:08 30,1 C 27,2 C 48 % 1009,9 hPa 0,0 l/m 5,6 km/h (1 Bft) O-NO 67 0 min 0,000 mm 0,0 UV-I 20 W/m 17,9 C 30,1 C 8,0 km/h (2 Bft) 97,14 %
01.08.2017 20:10 30,0 C 27,2 C 48 % 1009,9 hPa 0,0 l/m 5,6 km/h (1 Bft) O-NO 73 0 min 0,000 mm 0,0 UV-I 17 W/m 17,8 C 30,0 C 8,0 km/h (2 Bft) 96,23 %
01.08.2017 20:12 29,9 C 27,2 C 48 % 1009,9 hPa 0,0 l/m 3,9 km/h (1 Bft) O-NO 67 0 min 0,000 mm 0,0 UV-I 15 W/m 17,7 C 29,9 C 6,4 km/h (2 Bft) 96,00 %
01.08.2017 20:14 29,8 C 27,2 C 49 % 1009,9 hPa 0,0 l/m 4,7 km/h (1 Bft) O-NO 78 0 min 0,000 mm 0,0 UV-I 12 W/m 17,9 C 29,8 C 6,4 km/h (2 Bft) 95,74 %
01.08.2017 20:16 29,8 C 27,2 C 49 % 1010,0 hPa 0,0 l/m 3,8 km/h (1 Bft) O 82 0 min 0,000 mm 0,0 UV-I 12 W/m 17,9 C 29,8 C 6,4 km/h (2 Bft) 96,00 %
01.08.2017 20:18 29,9 C 27,2 C 49 % 1010,0 hPa 0,0 l/m 2,8 km/h (1 Bft) O 81 0 min 0,000 mm 0,0 UV-I 11 W/m 18,0 C 29,9 C 4,8 km/h (1 Bft) 91,30 %
01.08.2017 20:20 29,9 C 27,2 C 49 % 1010,1 hPa 0,0 l/m 2,1 km/h (1 Bft) O-NO 73 0 min 0,000 mm 0,0 UV-I 11 W/m 18,0 C 29,9 C 4,8 km/h (1 Bft) 98,53 %
01.08.2017 20:22 29,8 C 27,2 C 49 % 1010,1 hPa 0,0 l/m 4,2 km/h (1 Bft) O-NO 78 0 min 0,000 mm 0,0 UV-I 11 W/m 17,9 C 29,8 C 6,4 km/h (2 Bft) 94,74 %
01.08.2017 20:24 29,8 C 27,2 C 49 % 1010,0 hPa 0,0 l/m 4,0 km/h (1 Bft) O-NO 63 0 min 0,000 mm 0,0 UV-I 9 W/m 17,9 C 29,8 C 6,4 km/h (2 Bft) 98,00 %
01.08.2017 20:26 29,7 C 27,2 C 50 % 1010,0 hPa 0,0 l/m 4,3 km/h (1 Bft) O-NO 61 0 min 0,000 mm 0,0 UV-I 9 W/m 18,1 C 29,7 C 4,8 km/h (1 Bft) 98,00 %
01.08.2017 20:28 29,7 C 27,2 C 50 % 1010,0 hPa 0,0 l/m 3,9 km/h (1 Bft) O-NO 59 2 min 0,000 mm 0,0 UV-I 9 W/m 18,1 C 29,7 C 6,4 km/h (2 Bft) 100,00 %
01.08.2017 20:30 29,6 C 27,2 C 50 % 1010,1 hPa 0,0 l/m 4,9 km/h (1 Bft) O-NO 59 0 min 0,000 mm 0,0 UV-I 7 W/m 18,1 C 29,6 C 6,4 km/h (2 Bft) 100,00 %
01.08.2017 20:32 29,5 C 27,2 C 51 % 1010,1 hPa 0,0 l/m 3,5 km/h (1 Bft) O-NO 59 0 min 0,000 mm 0,0 UV-I 7 W/m 18,3 C 29,5 C 4,8 km/h (1 Bft) 97,37 %
01.08.2017 20:34 29,4 C 27,2 C 51 % 1010,1 hPa 0,0 l/m 2,7 km/h (1 Bft) O-NO 59 0 min 0,000 mm 0,0 UV-I 7 W/m 18,2 C 29,4 C 4,8 km/h (1 Bft) 100,00 %
01.08.2017 20:36 29,3 C 27,2 C 52 % 1010,1 hPa 0,0 l/m 2,9 km/h (1 Bft) O-NO 59 0 min 0,000 mm 0,0 UV-I 7 W/m 18,4 C 29,3 C 4,8 km/h (1 Bft) 97,62 %
01.08.2017 20:38 29,2 C 27,2 C 52 % 1010,1 hPa 0,0 l/m 1,9 km/h (1 Bft) O-NO 59 0 min 0,000 mm 0,0 UV-I 6 W/m 18,3 C 29,2 C 4,8 km/h (1 Bft) 98,28 %
01.08.2017 20:40 29,1 C 27,2 C 52 % 1010,2 hPa 0,0 l/m 2,9 km/h (1 Bft) O-NO 59 0 min 0,000 mm 0,0 UV-I 5 W/m 18,2 C 29,1 C 4,8 km/h (1 Bft) 100,00 %
01.08.2017 20:42 29,1 C 27,2 C 52 % 1010,2 hPa 0,0 l/m 2,6 km/h (1 Bft) O-NO 59 0 min 0,000 mm 0,0 UV-I 5 W/m 18,2 C 29,1 C 4,8 km/h (1 Bft) 97,87 %
01.08.2017 20:44 29,0 C 27,2 C 53 % 1010,2 hPa 0,0 l/m 1,6 km/h (1 Bft) O-NO 59 0 min 0,000 mm 0,0 UV-I 5 W/m 18,4 C 29,0 C 3,2 km/h (1 Bft) 100,00 %
01.08.2017 20:46 28,9 C 27,2 C 53 % 1010,2 hPa 0,0 l/m 2,0 km/h (1 Bft) O-NO 59 0 min 0,000 mm 0,0 UV-I 5 W/m 18,3 C 28,9 C 3,2 km/h (1 Bft) 98,21 %
01.08.2017 20:48 28,8 C 27,2 C 53 % 1010,2 hPa 0,0 l/m 1,5 km/h (1 Bft) O-NO 59 0 min 0,000 mm 0,0 UV-I 5 W/m 18,2 C 28,8 C 3,2 km/h (1 Bft) 100,00 %
01.08.2017 20:50 28,8 C 27,2 C 54 % 1010,2 hPa 0,0 l/m 1,3 km/h (1 Bft) O-NO 59 0 min 0,000 mm 0,0 UV-I 4 W/m 18,5 C 28,8 C 3,2 km/h (1 Bft) 96,43 %
01.08.2017 20:52 28,8 C 27,2 C 54 % 1010,3 hPa 0,0 l/m 1,8 km/h (1 Bft) O-NO 59 0 min 0,000 mm 0,0 UV-I 0 W/m 18,5 C 28,8 C 3,2 km/h (1 Bft) 96,00 %
01.08.2017 20:54 28,7 C 27,2 C 54 % 1010,3 hPa 0,0 l/m 1,6 km/h (1 Bft) O-NO 59 0 min 0,000 mm 0,0 UV-I 0 W/m 18,5 C 28,7 C 3,2 km/h (1 Bft) 97,37 %
01.08.2017 20:56 28,7 C 27,2 C 54 % 1010,3 hPa 0,0 l/m 1,4 km/h (1 Bft) O-NO 59 0 min 0,000 mm 0,0 UV-I 0 W/m 18,5 C 28,7 C 3,2 km/h (1 Bft) 95,74 %
01.08.2017 20:58 28,7 C 27,2 C 54 % 1010,2 hPa 0,0 l/m 2,5 km/h (1 Bft) O-NO 59 0 min 0,000 mm 0,0 UV-I 0 W/m 18,5 C 28,7 C 3,2 km/h (1 Bft) 94,34 %
01.08.2017 21:00 28,7 C 27,2 C 54 % 1010,2 hPa 0,0 l/m 3,1 km/h (1 Bft) O-NO 59 0 min 0,000 mm 0,0 UV-I 0 W/m 18,5 C 28,7 C 4,8 km/h (1 Bft) 98,00 %
01.08.2017 21:02 28,7 C 27,2 C 55 % 1010,1 hPa 0,0 l/m 2,8 km/h (1 Bft) O-NO 59 0 min 0,050 mm 0,0 UV-I 0 W/m 18,7 C 28,7 C 4,8 km/h (1 Bft) 97,56 %
01.08.2017 21:04 28,6 C 27,2 C 55 % 1010,1 hPa 0,0 l/m 3,0 km/h (1 Bft) O-NO 59 0 min 0,000 mm 0,0 UV-I 0 W/m 18,7 C 28,6 C 4,8 km/h (1 Bft) 98,00 %
01.08.2017 21:06 28,3 C 27,2 C 56 % 1010,0 hPa 0,0 l/m 3,7 km/h (1 Bft) O-NO 59 0 min 0,000 mm 0,0 UV-I 0 W/m 18,7 C 28,3 C 4,8 km/h (1 Bft) 97,56 %
01.08.2017 21:08 28,2 C 27,2 C 57 % 1010,0 hPa 0,0 l/m 4,4 km/h (1 Bft) O-NO 60 0 min 0,000 mm 0,0 UV-I 0 W/m 18,9 C 28,2 C 6,4 km/h (2 Bft) 96,00 %
01.08.2017 21:10 28,0 C 27,2 C 58 % 1010,0 hPa 0,0 l/m 4,9 km/h (1 Bft) O-NO 63 0 min 0,000 mm 0,0 UV-I 0 W/m 18,9 C 28,0 C 6,4 km/h (2 Bft) 98,00 %
01.08.2017 21:12 27,9 C 27,2 C 58 % 1009,9 hPa 0,0 l/m 6,2 km/h (2 Bft) O-NO 67 0 min 0,000 mm 0,0 UV-I 0 W/m 18,9 C 27,9 C 8,0 km/h (2 Bft) 93,62 %
01.08.2017 21:14 27,8 C 27,2 C 58 % 1009,9 hPa 0,0 l/m 7,0 km/h (2 Bft) O-NO 74 0 min 0,000 mm 0,0 UV-I 0 W/m 18,8 C 27,7 C 11,3 km/h (2 Bft) 94,00 %
01.08.2017 21:16 27,9 C 27,2 C 58 % 1009,9 hPa 0,0 l/m 6,5 km/h (2 Bft) O-NO 69 0 min 0,000 mm 0,0 UV-I 0 W/m 18,9 C 27,9 C 8,0 km/h (2 Bft) 97,44 %
01.08.2017 21:18 27,9 C 27,2 C 58 % 1009,8 hPa 0,0 l/m 5,2 km/h (1 Bft) O-NO 69 0 min 0,000 mm 0,0 UV-I 0 W/m 18,9 C 27,9 C 8,0 km/h (2 Bft) 96,00 %
01.08.2017 21:20 28,0 C 27,2 C 58 % 1009,8 hPa 0,0 l/m 5,5 km/h (1 Bft) O-NO 75 0 min 0,000 mm 0,0 UV-I 0 W/m 18,9 C 28,0 C 6,4 km/h (2 Bft) 94,00 %
01.08.2017 21:22 28,1 C 27,2 C 57 % 1009,8 hPa 0,0 l/m 5,4 km/h (1 Bft) O-NO 69 0 min 0,000 mm 0,0 UV-I 0 W/m 18,8 C 28,1 C 8,0 km/h (2 Bft) 97,87 %
01.08.2017 21:24 28,2 C 27,2 C 57 % 1009,8 hPa 0,0 l/m 4,9 km/h (1 Bft) O-NO 69 0 min 0,000 mm 0,0 UV-I 0 W/m 18,9 C 28,2 C 6,4 km/h (2 Bft) 97,37 %
01.08.2017 21:26 28,2 C 27,2 C 57 % 1009,8 hPa 0,0 l/m 5,7 km/h (1 Bft) O-NO 74 0 min 0,000 mm 0,0 UV-I 0 W/m 18,9 C 28,2 C 8,0 km/h (2 Bft) 96,00 %
01.08.2017 21:28 28,2 C 27,2 C 57 % 1009,8 hPa 0,0 l/m 6,5 km/h (2 Bft) O-NO 76 0 min 0,000 mm 0,0 UV-I 0 W/m 18,9 C 28,2 C 11,3 km/h (2 Bft) 95,74 %
01.08.2017 21:30 28,2 C 27,2 C 57 % 1009,8 hPa 0,0 l/m 4,8 km/h (1 Bft) O-NO 77 0 min 0,000 mm 0,0 UV-I 0 W/m 18,9 C 28,2 C 6,4 km/h (2 Bft) 98,00 %
01.08.2017 21:32 28,2 C 27,2 C 57 % 1009,9 hPa 0,0 l/m 4,9 km/h (1 Bft) O 79 0 min 0,000 mm 0,0 UV-I 0 W/m 18,9 C 28,2 C 8,0 km/h (2 Bft) 97,56 %
01.08.2017 21:34 28,1 C 27,2 C 58 % 1009,8 hPa 0,0 l/m 4,1 km/h (1 Bft) O-NO 76 0 min 0,000 mm 0,0 UV-I 0 W/m 19,0 C 28,1 C 9,7 km/h (2 Bft) 96,23 %
01.08.2017 21:36 27,9 C 27,2 C 58 % 1009,8 hPa 0,0 l/m 5,4 km/h (1 Bft) O 101 0 min 0,000 mm 0,0 UV-I 0 W/m 18,9 C 27,9 C 8,0 km/h (2 Bft) 94,74 %
01.08.2017 21:38 27,8 C 27,2 C 59 % 1009,9 hPa 0,0 l/m 6,1 km/h (2 Bft) O 86 0 min 0,000 mm 0,0 UV-I 0 W/m 19,0 C 27,8 C 9,7 km/h (2 Bft) 98,00 %
01.08.2017 21:40 27,8 C 27,2 C 58 % 1009,8 hPa 0,0 l/m 7,8 km/h (2 Bft) O-NO 77 0 min 0,000 mm 0,0 UV-I 0 W/m 18,8 C 27,6 C 12,9 km/h (3 Bft) 96,00 %
01.08.2017 21:42 27,8 C 27,2 C 58 % 1009,8 hPa 0,0 l/m 7,1 km/h (2 Bft) O 84 0 min 0,000 mm 0,0 UV-I 0 W/m 18,8 C 27,7 C 11,3 km/h (2 Bft) 94,12 %
01.08.2017 21:44 27,9 C 27,2 C 58 % 1009,8 hPa 0,0 l/m 6,9 km/h (2 Bft) O 87 0 min 0,000 mm 0,0 UV-I 0 W/m 18,9 C 27,8 C 11,3 km/h (2 Bft) 97,14 %
01.08.2017 21:46 27,9 C 27,2 C 58 % 1009,8 hPa 0,0 l/m 7,0 km/h (2 Bft) O 100 0 min 0,000 mm 0,0 UV-I 0 W/m 18,9 C 27,8 C 11,3 km/h (2 Bft) 92,86 %
01.08.2017 21:48 28,0 C 27,2 C 58 % 1009,9 hPa 0,0 l/m 3,9 km/h (1 Bft) O-NO 69 0 min 0,000 mm 0,0 UV-I 0 W/m 18,9 C 28,0 C 4,8 km/h (1 Bft) 96,00 %
01.08.2017 21:50 28,0 C 27,2 C 58 % 1009,9 hPa 0,0 l/m 4,9 km/h (1 Bft) O-NO 78 0 min 0,000 mm 0,0 UV-I 0 W/m 18,9 C 28,0 C 6,4 km/h (2 Bft) 94,74 %
01.08.2017 21:52 28,1 C 27,2 C 58 % 1010,0 hPa 0,0 l/m 4,7 km/h (1 Bft) O-NO 77 0 min 0,000 mm 0,0 UV-I 0 W/m 19,0 C 28,1 C 6,4 km/h (2 Bft) 98,11 %
01.08.2017 21:54 28,1 C 27,2 C 58 % 1010,0 hPa 0,0 l/m 3,3 km/h (1 Bft) O-NO 76 0 min 0,000 mm 0,0 UV-I 0 W/m 19,0 C 28,1 C 6,4 km/h (2 Bft) 93,62 %
01.08.2017 21:56 28,1 C 27,2 C 58 % 1010,1 hPa 0,0 l/m 2,9 km/h (1 Bft) O-NO 76 0 min 0,000 mm 0,0 UV-I 0 W/m 19,0 C 28,1 C 4,8 km/h (1 Bft) 95,24 %
01.08.2017 21:58 27,8 C 27,2 C 59 % 1010,1 hPa 0,0 l/m 2,3 km/h (1 Bft) O-NO 76 0 min 0,000 mm 0,0 UV-I 0 W/m 19,0 C 27,8 C 4,8 km/h (1 Bft) 98,18 %
01.08.2017 22:00 27,5 C 27,2 C 60 % 1010,2 hPa 0,0 l/m 1,0 km/h (0 Bft) O-NO 76 0 min 0,051 mm 0,0 UV-I 0 W/m 19,0 C 27,5 C 3,2 km/h (1 Bft) 93,75 %
01.08.2017 22:03 27,1 C 27,2 C 62 % 1010,2 hPa 0,0 l/m 0,2 km/h (0 Bft) O-NO 76 0 min 0,000 mm 0,0 UV-I 0 W/m 19,2 C 27,1 C 1,6 km/h (1 Bft) 95,52 %
01.08.2017 22:04 27,0 C 27,2 C 62 % 1010,2 hPa 0,0 l/m 0,0 km/h (0 Bft) O-NO 76 0 min 0,000 mm 0,0 UV-I 0 W/m 19,1 C 27,0 C 0,0 km/h (0 Bft) 95,83 %
01.08.2017 22:06 26,7 C 27,2 C 63 % 1010,2 hPa 0,0 l/m 0,0 km/h (0 Bft) O-NO 76 0 min 0,000 mm 0,0 UV-I 0 W/m 19,1 C 26,7 C 0,0 km/h (0 Bft) 95,74 %
01.08.2017 22:08 26,5 C 27,2 C 63 % 1010,2 hPa 0,0 l/m 1,1 km/h (1 Bft) O-NO 76 0 min 0,000 mm 0,0 UV-I 0 W/m 18,9 C 26,5 C 3,2 km/h (1 Bft) 93,62 %
01.08.2017 22:10 26,4 C 27,2 C 64 % 1010,1 hPa 0,0 l/m 3,1 km/h (1 Bft) O-NO 76 0 min 0,000 mm 0,0 UV-I 0 W/m 19,0 C 26,4 C 4,8 km/h (1 Bft) 94,74 %
01.08.2017 22:12 26,4 C 27,2 C 64 % 1010,1 hPa 0,0 l/m 3,6 km/h (1 Bft) O-NO 76 0 min 0,000 mm 0,0 UV-I 0 W/m 19,0 C 26,4 C 4,8 km/h (1 Bft) 96,00 %
01.08.2017 22:14 26,5 C 27,2 C 63 % 1010,1 hPa 0,0 l/m 4,4 km/h (1 Bft) O-NO 70 0 min 0,000 mm 0,0 UV-I 0 W/m 18,9 C 26,5 C 4,8 km/h (1 Bft) 95,74 %
01.08.2017 22:16 26,7 C 27,2 C 63 % 1010,1 hPa 0,0 l/m 4,5 km/h (1 Bft) O-NO 63 0 min 0,000 mm 0,0 UV-I 0 W/m 19,1 C 26,7 C 6,4 km/h (2 Bft) 94,29 %
01.08.2017 22:18 26,9 C 27,2 C 62 % 1010,2 hPa 0,0 l/m 4,2 km/h (1 Bft) O-NO 63 0 min 0,000 mm 0,0 UV-I 0 W/m 19,0 C 26,9 C 6,4 km/h (2 Bft) 98,39 %
01.08.2017 22:20 27,0 C 27,2 C 61 % 1010,2 hPa 0,0 l/m 2,7 km/h (1 Bft) O-NO 63 0 min 0,000 mm 0,0 UV-I 0 W/m 18,8 C 27,0 C 3,2 km/h (1 Bft) 98,00 %
01.08.2017 22:22 27,1 C 27,2 C 61 % 1010,3 hPa 0,0 l/m 1,9 km/h (1 Bft) O-NO 63 0 min 0,000 mm 0,0 UV-I 0 W/m 18,9 C 27,1 C 3,2 km/h (1 Bft) 92,68 %
01.08.2017 22:24 27,0 C 27,2 C 63 % 1010,4 hPa 0,0 l/m 0,3 km/h (0 Bft) O-NO 63 0 min 0,000 mm 0,0 UV-I 0 W/m 19,3 C 27,0 C 1,6 km/h (1 Bft) 98,00 %
01.08.2017 22:26 26,7 C 27,2 C 65 % 1010,5 hPa 0,0 l/m 0,0 km/h (0 Bft) O-NO 63 0 min 0,000 mm 0,0 UV-I 0 W/m 19,6 C 26,7 C 1,6 km/h (1 Bft) 96,00 %
01.08.2017 22:28 26,3 C 27,2 C 66 % 1010,7 hPa 0,0 l/m 0,8 km/h (0 Bft) O-NO 63 0 min 0,000 mm 0,0 UV-I 0 W/m 19,4 C 26,3 C 1,6 km/h (1 Bft) 94,74 %
01.08.2017 22:30 25,9 C 26,7 C 67 % 1010,7 hPa 0,0 l/m 0,0 km/h (0 Bft) O-NO 63 0 min 0,000 mm 0,0 UV-I 0 W/m 19,3 C 25,9 C 0,0 km/h (0 Bft) 100,00 %
01.08.2017 22:32 25,6 C 27,2 C 69 % 1010,8 hPa 0,0 l/m 1,5 km/h (1 Bft) O-NO 63 0 min 0,000 mm 0,0 UV-I 0 W/m 19,5 C 25,6 C 3,2 km/h (1 Bft) 100,00 %
01.08.2017 22:34 25,4 C 27,2 C 69 % 1010,8 hPa 0,0 l/m 1,3 km/h (1 Bft) O-NO 63 0 min 0,000 mm 0,0 UV-I 0 W/m 19,3 C 25,4 C 3,2 km/h (1 Bft) 100,00 %
01.08.2017 22:36 25,3 C 27,2 C 71 % 1010,8 hPa 0,0 l/m 0,1 km/h (0 Bft) O-NO 63 0 min 0,000 mm 0,0 UV-I 0 W/m 19,7 C 25,3 C 1,6 km/h (1 Bft) 100,00 %
01.08.2017 22:38 25,2 C 27,2 C 72 % 1010,9 hPa 0,0 l/m 1,1 km/h (1 Bft) O-NO 63 0 min 0,000 mm 0,0 UV-I 0 W/m 19,8 C 25,2 C 3,2 km/h (1 Bft) 98,11 %
01.08.2017 22:40 24,9 C 27,2 C 73 % 1010,9 hPa 0,0 l/m 2,3 km/h (1 Bft) O-SO 104 0 min 0,000 mm 0,0 UV-I 0 W/m 19,7 C 24,9 C 4,8 km/h (1 Bft) 100,00 %
01.08.2017 22:42 24,8 C 27,2 C 73 % 1011,0 hPa 0,0 l/m 4,0 km/h (1 Bft) S 182 0 min 0,000 mm 0,0 UV-I 0 W/m 19,6 C 24,8 C 6,4 km/h (2 Bft) 97,87 %
01.08.2017 22:44 24,8 C 27,2 C 73 % 1011,0 hPa 0,0 l/m 4,5 km/h (1 Bft) S 189 0 min 0,000 mm 0,0 UV-I 0 W/m 19,6 C 24,8 C 6,4 km/h (2 Bft) 97,37 %
01.08.2017 22:46 24,8 C 27,2 C 72 % 1011,0 hPa 0,0 l/m 5,5 km/h (1 Bft) S-SW 196 0 min 0,000 mm 0,0 UV-I 0 W/m 19,4 C 24,8 C 8,0 km/h (2 Bft) 98,00 %
01.08.2017 22:48 24,9 C 27,2 C 71 % 1011,0 hPa 0,0 l/m 4,4 km/h (1 Bft) S-SW 196 0 min 0,000 mm 0,0 UV-I 0 W/m 19,3 C 24,9 C 6,4 km/h (2 Bft) 96,43 %
01.08.2017 22:50 25,0 C 27,2 C 71 % 1011,1 hPa 0,0 l/m 6,3 km/h (2 Bft) S-SW 206 0 min 0,000 mm 0,0 UV-I 0 W/m 19,4 C 25,0 C 8,0 km/h (2 Bft) 97,37 %
01.08.2017 22:52 25,1 C 27,2 C 70 % 1011,2 hPa 0,0 l/m 5,1 km/h (1 Bft) S-SW 204 0 min 0,000 mm 0,0 UV-I 0 W/m 19,2 C 25,1 C 6,4 km/h (2 Bft) 97,87 %
01.08.2017 22:54 25,2 C 27,2 C 71 % 1011,2 hPa 0,0 l/m 5,0 km/h (1 Bft) S-SW 203 0 min 0,000 mm 0,0 UV-I 0 W/m 19,6 C 25,2 C 6,4 km/h (2 Bft) 98,00 %
01.08.2017 22:56 25,2 C 27,2 C 70 % 1011,2 hPa 0,0 l/m 4,2 km/h (1 Bft) S-SW 196 0 min 0,000 mm 0,0 UV-I 0 W/m 19,3 C 25,2 C 6,4 km/h (2 Bft) 97,87 %
01.08.2017 22:58 25,3 C 27,2 C 70 % 1011,3 hPa 0,0 l/m 4,3 km/h (1 Bft) S-SW 200 0 min 0,000 mm 0,0 UV-I 0 W/m 19,4 C 25,3 C 6,4 km/h (2 Bft) 97,87 %
01.08.2017 23:00 25,3 C 27,2 C 70 % 1011,3 hPa 0,0 l/m 5,3 km/h (1 Bft) S-SW 209 0 min 0,000 mm 0,0 UV-I 0 W/m 19,4 C 25,3 C 8,0 km/h (2 Bft) 96,00 %
01.08.2017 23:02 25,2 C 27,2 C 70 % 1011,3 hPa 0,0 l/m 3,4 km/h (1 Bft) S-SW 203 0 min 0,026 mm 0,0 UV-I 0 W/m 19,3 C 25,2 C 6,4 km/h (2 Bft) 98,00 %
01.08.2017 23:04 25,2 C 26,7 C 71 % 1011,3 hPa 0,0 l/m 3,9 km/h (1 Bft) S-SW 199 0 min 0,000 mm 0,0 UV-I 0 W/m 19,6 C 25,2 C 6,4 km/h (2 Bft) 97,14 %
01.08.2017 23:06 25,2 C 26,7 C 71 % 1011,3 hPa 0,0 l/m 3,4 km/h (1 Bft) S-SW 199 0 min 0,000 mm 0,0 UV-I 0 W/m 19,6 C 25,2 C 6,4 km/h (2 Bft) 95,74 %
01.08.2017 23:08 25,2 C 26,7 C 71 % 1011,4 hPa 0,0 l/m 2,8 km/h (1 Bft) S-SW 199 0 min 0,000 mm 0,0 UV-I 0 W/m 19,6 C 25,2 C 4,8 km/h (1 Bft) 98,00 %
01.08.2017 23:10 25,2 C 26,7 C 72 % 1011,4 hPa 0,0 l/m 2,9 km/h (1 Bft) S-SW 199 0 min 0,000 mm 0,0 UV-I 0 W/m 19,8 C 25,2 C 4,8 km/h (1 Bft) 98,11 %
01.08.2017 23:12 25,2 C 26,7 C 72 % 1011,5 hPa 0,0 l/m 2,1 km/h (1 Bft) S-SW 199 0 min 0,000 mm 0,0 UV-I 0 W/m 19,8 C 25,2 C 4,8 km/h (1 Bft) 97,22 %
01.08.2017 23:14 25,1 C 26,7 C 72 % 1011,5 hPa 0,0 l/m 2,2 km/h (1 Bft) S-SW 199 0 min 0,000 mm 0,0 UV-I 0 W/m 19,7 C 25,1 C 3,2 km/h (1 Bft) 96,43 %
01.08.2017 23:16 25,1 C 26,7 C 72 % 1011,6 hPa 0,0 l/m 4,1 km/h (1 Bft) S-SW 202 0 min 0,000 mm 0,0 UV-I 0 W/m 19,7 C 25,1 C 4,8 km/h (1 Bft) 97,37 %
01.08.2017 23:18 25,1 C 26,7 C 72 % 1011,7 hPa 0,0 l/m 5,7 km/h (1 Bft) S-SW 204 0 min 0,000 mm 0,0 UV-I 0 W/m 19,7 C 25,1 C 9,7 km/h (2 Bft) 98,21 %
01.08.2017 23:20 25,1 C 26,7 C 72 % 1011,8 hPa 0,0 l/m 4,7 km/h (1 Bft) S-SW 204 0 min 0,000 mm 0,0 UV-I 0 W/m 19,7 C 25,1 C 6,4 km/h (2 Bft) 100,00 %
01.08.2017 23:22 25,1 C 26,7 C 72 % 1012,4 hPa 0,0 l/m 9,2 km/h (2 Bft) S-SW 196 0 min 0,000 mm 0,0 UV-I 0 W/m 19,7 C 24,4 C 14,5 km/h (3 Bft) 97,14 %
01.08.2017 23:24 25,0 C 26,7 C 73 % 1013,0 hPa 0,0 l/m 16,9 km/h (3 Bft) S-SW 198 0 min 0,000 mm 0,0 UV-I 0 W/m 19,8 C 23,0 C 22,5 km/h (4 Bft) 100,00 %
01.08.2017 23:26 25,1 C 26,7 C 70 % 1013,3 hPa 0,0 l/m 30,9 km/h (5 Bft) SW 222 0 min 0,000 mm 0,0 UV-I 0 W/m 19,2 C 21,8 C 49,9 km/h (6 Bft) 100,00 %
01.08.2017 23:28 25,3 C 26,7 C 68 % 1013,4 hPa 0,0 l/m 31,8 km/h (5 Bft) SW 218 0 min 0,000 mm 0,0 UV-I 0 W/m 19,0 C 22,0 C 46,7 km/h (6 Bft) 97,56 %
01.08.2017 23:30 25,7 C 26,7 C 67 % 1013,5 hPa 0,0 l/m 32,4 km/h (5 Bft) SW 232 0 min 0,000 mm 0,0 UV-I 0 W/m 19,1 C 22,6 C 45,1 km/h (6 Bft) 100,00 %
01.08.2017 23:32 25,9 C 26,7 C 65 % 1013,5 hPa 0,0 l/m 27,8 km/h (4 Bft) S-SW 209 0 min 0,000 mm 0,0 UV-I 0 W/m 18,8 C 23,2 C 41,8 km/h (6 Bft) 100,00 %
01.08.2017 23:34 26,2 C 26,7 C 64 % 1013,5 hPa 0,0 l/m 27,9 km/h (4 Bft) SW 221 0 min 0,000 mm 0,0 UV-I 0 W/m 18,8 C 23,6 C 40,2 km/h (6 Bft) 100,00 %
01.08.2017 23:36 26,3 C 26,7 C 64 % 1013,6 hPa 0,0 l/m 27,5 km/h (4 Bft) SW 229 0 min 0,000 mm 0,0 UV-I 0 W/m 18,9 C 23,7 C 38,6 km/h (5 Bft) 98,00 %
01.08.2017 23:38 26,4 C 26,7 C 63 % 1013,9 hPa 0,0 l/m 28,8 km/h (4 Bft) S-SW 202 0 min 0,000 mm 0,0 UV-I 0 W/m 18,8 C 23,8 C 38,6 km/h (5 Bft) 100,00 %
01.08.2017 23:40 26,6 C 26,7 C 62 % 1014,1 hPa 0,0 l/m 24,3 km/h (4 Bft) SW 223 0 min 0,000 mm 0,0 UV-I 0 W/m 18,7 C 24,4 C 35,4 km/h (5 Bft) 100,00 %
01.08.2017 23:42 26,7 C 26,7 C 62 % 1014,1 hPa 0,0 l/m 29,6 km/h (5 Bft) SW 232 0 min 0,000 mm 0,0 UV-I 0 W/m 18,8 C 24,2 C 46,7 km/h (6 Bft) 100,00 %
01.08.2017 23:44 26,8 C 26,7 C 61 % 1014,2 hPa 0,0 l/m 31,0 km/h (5 Bft) W-SW 244 0 min 0,000 mm 0,0 UV-I 0 W/m 18,6 C 24,2 C 46,7 km/h (6 Bft) 100,00 %
01.08.2017 23:46 26,9 C 26,7 C 60 % 1014,5 hPa 0,0 l/m 28,0 km/h (4 Bft) W-SW 242 0 min 0,000 mm 0,0 UV-I 0 W/m 18,5 C 24,5 C 46,7 km/h (6 Bft) 100,00 %
01.08.2017 23:48 27,1 C 26,7 C 60 % 1014,6 hPa 0,0 l/m 26,9 km/h (4 Bft) W-SW 242 0 min 0,000 mm 0,0 UV-I 0 W/m 18,6 C 24,9 C 45,1 km/h (6 Bft) 100,00 %
01.08.2017 23:50 27,2 C 26,7 C 58 % 1014,6 hPa 0,0 l/m 31,6 km/h (5 Bft) W-SW 253 0 min 0,000 mm 0,0 UV-I 0 W/m 18,2 C 24,8 C 46,7 km/h (6 Bft) 100,00 %
01.08.2017 23:52 27,3 C 26,7 C 57 % 1014,9 hPa 0,0 l/m 29,6 km/h (5 Bft) W-SW 254 0 min 0,000 mm 0,0 UV-I 0 W/m 18,0 C 25,0 C 48,3 km/h (6 Bft) 100,00 %
01.08.2017 23:54 27,3 C 26,7 C 57 % 1014,9 hPa 0,0 l/m 33,3 km/h (5 Bft) W-NW 285 0 min 0,000 mm 0,0 UV-I 0 W/m 18,0 C 24,8 C 51,5 km/h (7 Bft) 100,00 %
01.08.2017 23:55 27,4 C 26,7 C 57 % 1014,9 hPa 0,0 l/m 30,6 km/h (5 Bft) W-SW 247 0 min 0,000 mm 0,0 UV-I 0 W/m 18,1 C 25,1 C 51,5 km/h (7 Bft) 97,37 %
01.08.2017 23:58 27,4 C 26,7 C 55 % 1015,3 hPa 0,0 l/m 29,9 km/h (5 Bft) W 273 0 min 0,000 mm 0,0 UV-I 0 W/m 17,5 C 25,1 C 41,8 km/h (6 Bft) 100,00 %
_ Min-Zeit 06:24 01:18 15:22 21:18 - 00:20 - - - - - - 15:22 06:24 00:22 00:02
Minimum _ 17,6 C 25,0 C 27 % 1009,8 hPa - 0,0 km/h (0 Bft) - - - - - - 12,8 C 17,6 C 0,0 km/h (0 Bft) 10,53 %
_ Max-Zeit 16:22 15:42 05:26 23:58 00:00 23:54 - - 11:00 14:02 12:52 12:52 11:14 16:22 23:54 00:06
Maximum _ 35,2 C 27,2 C 93 % 1015,3 hPa 0,0 l/m 33,3 km/h
W-NW (5 Bft)
- - 4 min 0,635 mm 6,2 UV-I 858 W/m 21,1 C 35,2 C 51,5 km/h
W-SW (7 Bft)
100,00 %
Durchschnitt _ 26,8 C 26,0 C 63 % 1012,5 hPa #0,0 l/m 4,5 km/h (1 Bft) O-NO - #13:40 h #5,690 mm 3,5 UV-I 471 W/m 18,0 C 26,8 C 7,5 km/h (2 Bft) 96,41 %